     2.11           OBSERVATION DATA    G (GPS)             RINEX VERSION / TYPE
teqc 2010Oct21 OPUS Account 20111028 21:02:16UTC            PGM / RUN BY / DATE
H 1528                                                      MARKER NAME
3092                                                        MARKER NUMBER
CSMIDDLETON NGS                                             OBSERVER / AGENCY
0220320152 TRIMBLE 5700 2.01                                REC # / TYPE / VERS
12214372 TRM41249.00 NONE                                   ANT # / TYPE
  -694879.1770 -5591484.6162  2978764.2031                  APPROX POSITION XYZ
        2.0000        0.0000        0.0000                  ANTENNA: DELTA H/E/N
     1     1                                                WAVELENGTH FACT L1/2
     5    L1    L2    C1    P1    P2                        # / TYPES OF OBSERV
    15                                                      LEAP SECONDS
  2011     8    28     0     0   30.0000000     GPS         TIME OF FIRST OBS
                                                            END OF HEADER
 11  8 28  0  0 30.0000000  0  8G12G09G17G10G04G05G25G02
 -24098747.68057 -18766674.50056  21258344.8134                   21258342.3754
 -11926208.58656  -9281278.03953  24094841.2114                   24094843.1804
 -29307997.74657 -22825513.13754  23443968.3754                   23443968.4804
 -29022577.91058 -22604253.03156  20934072.1094                   20934070.7664
 -29479277.78157 -22957946.28555  22101094.1484                   22101093.4064
 -21218897.68457 -16522261.27356  21570029.5864                   21570028.4304
  -6383495.46157  -4962501.91455  23754732.1484                   23754734.3244
 -32381095.60258 -25219918.43757  20697338.6884                   20697334.6294
 11  8 28  0  1  0.0000000  0  8G12G09G17G10G04G05G25G02
 -24175093.31247 -18826164.58646  21243816.6564                   21243814.3284
 -11872644.11747  -9239539.62943  24105034.7734                   24105036.7934
 -29278835.57047 -22802789.43744  23449518.1954                   23449518.0594
 -29031397.90648 -22611125.74646  20932393.7734                   20932392.5084
 -29427101.39547 -22917289.39545  22111023.2504                   22111021.5164
 -21326376.34447 -16606010.79346  21549576.6954                   21549576.1684
  -6504670.75847  -5056924.16045  23731673.7664                   23731675.2544
 -32401772.29348 -25236030.12547  20693403.7734                   20693400.2194
 11  8 28  0  1 30.0000000  0  8G12G09G17G10G04G05G25G02
 -24250942.97348 -18885268.19546  21229382.7974                   21229380.7384
 -11818985.93047  -9197728.17643  24115245.7734                   24115247.8204
 -29249484.96947 -22779918.90644  23455102.9454                   23455103.6254
 -29039578.29748 -22617500.05946  20930837.0164                   20930835.6644
 -29374826.19547 -22876555.49645  22120970.3054                   22120969.9414
 -21433461.64848 -16689453.80146  21529199.2194                   21529198.3914
  -6625592.31647  -5151148.71545  23708662.9844                   23708664.6054
 -32422182.30148 -25251934.02347  20689519.8364                   20689516.0084
 11  8 28  0  2  0.0000000  0  8G12G09G17G10G04G05G25G02
 -24326297.37948 -18943985.90246  21215043.3284                   21215041.1724
 -11765239.93446  -9155848.30944  24125473.5474                   24125475.7234
 -29219948.37947 -22756903.42244  23460723.8134                   23460724.2424
 -29047122.57848 -22623378.69946  20929401.4844                   20929399.7464
 -29322456.67647 -22835748.09845  22130936.5944                   22130935.4844
 -21540153.75447 -16772590.42646  21508896.3594                   21508895.5904
  -6746260.37547  -5245175.72344  23685700.2734                   23685701.0274
 -32442329.59048 -25267633.19547  20685686.2584                   20685682.1914
 11  8 28  0  2 30.0000000  0  8G12G09G17G10G04G05G25G02
 -24401153.70748 -19002315.48446  21200798.5234                   21200796.4184
 -11711409.02747  -9113902.27044  24135717.1484                   24135720.0004
 -29190224.83247 -22733742.29745  23466380.2974                   23466380.3244
 -29054030.56648 -22628761.53946  20928087.1024                   20928085.3094
 -29269994.02347 -22794868.14145  22140919.2194                   22140918.3364
 -21646449.43748 -16855418.14146  21488668.8914                   21488668.0744
  -6866671.73847  -5339002.72344  23662786.9144                   23662789.0634
 -32462214.84048 -25283128.18447  20681902.1334                   20681897.9304
 11  8 28  0  3  0.0000000  0  8G12G09G17G10G04G05G25G02
 -24475510.50448 -19060255.82446  21186649.0474                   21186646.8914
 -11657496.32847  -9071892.52744  24145976.3444                   24145979.3524
 -29160313.87147 -22710435.09444  23472071.9454                   23472072.2624
 -29060303.36348 -22633649.42646  20926893.1484                   20926891.6684
 -29217439.98447 -22753916.97745  22150920.2664                   22150918.9574
 -21752346.15648 -16937934.98846  21468517.4844                   21468516.5554
  -6986823.60947  -5432627.51244  23639923.2194                   23639924.1254
 -32481838.96548 -25298419.69546  20678167.7894                   20678163.4614
 11  8 28  0  3 30.0000000  0  8G12G09G17G10G04G05G25G02
 -24549366.18448 -19117805.68746  21172594.8054                   21172592.4694
 -11603505.74646  -9029822.12144  24156250.5084                   24156254.0234
 -29130215.35247 -22686981.76644  23477798.8444                   23477799.7584
 -29065941.88748 -22638043.06246  20925820.0004                   20925818.4064
 -29164796.60547 -22712896.17645  22160937.8984                   22160936.8714
 -21857841.80548 -17020139.31646  21448442.1334                   21448441.4574
  -7106713.86347  -5526048.44944  23617108.7664                   23617109.9964
 -32501204.01648 -25313509.32447  20674482.9774                   20674478.5554
 11  8 28  0  4  0.0000000  0  8G12G09G17G10G04G05G25G02
 -24622717.72348 -19174962.71146  21158636.4384                   21158634.3484
 -11549439.64546  -8987692.84044  24166538.8204                   24166542.6484
 -29099927.78547 -22663381.12144  23483562.9534                   23483563.9264
 -29070946.11748 -22641942.45346  20924867.9774                   20924866.1454
 -29112064.74247 -22671806.45345  22170972.5394                   22170972.3874
 -21962932.73848 -17102028.26646  21428443.8834                   21428443.0864
  -7226339.01647  -5619262.83245  23594344.4304                   23594345.6804
 -32520310.35248 -25328397.36747  20670846.8984                   20670842.7154
 11  8 28  0  4 30.0000000  0  8G12G09G17G10G04G05G25G02
 -24695561.51248 -19231724.08646  21144774.5784                   21144772.5314
 -11495299.02747  -8945505.51244  24176842.0084                   24176845.2734
 -29069448.77047 -22639631.28144  23489362.2894                   23489363.7664
 -29075315.12548 -22645346.86346  20924036.3594                   20924034.8634
 -29059244.12947 -22630647.55945  22181023.5704                   22181023.0554
 -22067614.66448 -17183598.52746  21408523.6724                   21408522.3634
  -7345694.12947  -5712266.77045  23571631.7974                   23571633.8554
 -32539156.91048 -25343082.98046  20667260.4924                   20667256.6604
 11  8 28  0  5  0.0000000  0  8G12G09G17G10G04G05G25G02
 -24767897.49648 -19288089.77746  21131009.5784                   21131007.3754
 -11441089.30546  -8903264.35244  24187158.0394                   24187161.2974
 -29038780.29747 -22615733.82044  23495199.1954                   23495198.8244
 -29079051.43048 -22648258.26246  20923325.4844                   20923323.6844
 -29006338.29347 -22589422.27745  22191091.6414                   22191090.8204
 -22171886.98448 -17264849.60246  21388680.8594                   21388679.7774
  -7464778.81247  -5805059.97745  23548970.7194                   23548972.7704
 -32557747.21148 -25357568.92247  20663722.7274                   20663718.9654
 11  8 28  0  5 30.0000000  0  8G12G09G17G10G04G05G25G02
 -24839723.21548 -19344057.85546  21117341.5234                   21117339.5234
 -11386813.33646  -8860971.55144  24197485.7814                   24197489.9344
 -29007921.39147 -22591687.96144  23501071.6414                   23501072.1914
 -29082155.35948 -22650676.89146  20922734.9224                   20922733.4304
 -28953348.64847 -22548131.67645  22201175.3754                   22201175.0744
 -22275746.51648 -17345779.03546  21368917.2734                   21368916.3594
  -7583589.75047  -5897639.89145  23526361.8984                   23526363.9614
 -32576081.92248 -25371855.69147  20660233.8134                   20660230.0164
 11  8 28  0  6  0.0000000  0  8G12G09G17G10G04G05G25G02
 -24911036.02348 -19399626.27346  21103771.2194                   21103769.0594
 -11332473.72745  -8818629.21144  24207825.7734                   24207830.5664
 -28976870.91047 -22567492.82444  23506980.5394                   23506980.4494
 -29084626.79748 -22652602.67246  20922264.3674                   20922262.8984
 -28900276.22747 -22506776.57845  22211274.8754                   22211274.0354
 -22379190.13348 -17426384.37146  21349232.7584                   21349231.6764
  -7702123.90647  -5990004.10545  23503805.1724                   23503806.9964
 -32594161.42648 -25385943.60546  20656793.5554                   20656789.4614
 11  8 28  0  6 30.0000000  0  8G12G09G17G10G04G05G25G02
 -24981835.14548 -19454794.40646  21090298.4064                   21090296.3324
 -11278074.82846  -8776240.66844  24218178.5084                   24218182.4414
 -28945629.04747 -22543148.55944  23512925.1484                   23512925.2304
 -29086467.87548 -22654037.27046  20921914.2114                   20921912.4344
 -28847123.48447 -22465358.88345  22221389.4304                   22221388.8404
 -22482216.13348 -17506664.29746  21329627.1644                   21329626.0784
  -7820379.28147  -6082151.09044  23481302.0004                   23481303.3554
 -32611987.76248 -25399834.24646  20653401.0864                   20653397.1564
 11  8 28  0  7  0.0000000  0  8G12G09G17G10G04G05G25G02
 -25052118.11348 -19509560.34846  21076924.2344                   21076921.8834
 -11223619.66446  -8733808.25843  24228540.6414                   24228545.3364
 -28914195.34047 -22518654.81244  23518907.2584                   23518906.8364
 -29087679.17248 -22654981.12546  20921683.7344                   20921682.1454
 -28793891.93747 -22423879.78145  22231518.8364                   22231518.3324
 -22584822.01248 -17586616.85946  21310101.8284                   21310100.9344
  -7938353.07847  -6174078.68744  23458852.4694                   23458854.0234
 -32629562.36348 -25413528.72347  20650056.7894                   20650052.8324
 11  8 28  0  7 30.0000000  0  8G12G09G17G10G04G05G25G02
 -25121883.78948 -19563923.19146  21063648.0784                   21063645.6604
 -11169111.24646  -8691334.33644  24238913.5314                   24238918.3714
 -28882569.64847 -22494011.45744  23524925.4694                   23524925.5824
 -29088261.74248 -22655435.05546  20921573.0634                   20921571.4574
 -28740583.25847 -22382340.57845  22241663.5164                   22241662.5664
 -22687005.22748 -17666240.06246  21290657.2034                   21290656.0704
  -8056042.79746  -6265784.90644  23436456.9384                   23436457.9804
 -32646886.40648 -25427027.96146  20646760.3754                   20646756.2814
 11  8 28  0  8  0.0000000  0  8G12G09G17G10G04G05G25G02
 -25191131.27348 -19617882.25846  21050470.9534                   21050468.6644
 -11114553.89147  -8648822.29344  24249296.0944                   24249300.0084
 -28850752.27746 -22469218.73444  23530979.8754                   23530980.2934
 -29088217.80148 -22655400.80546  20921581.0164                   20921579.7774
 -28687200.02047 -22340743.27345  22251821.6334                   22251820.6134
 -22788764.34048 -17745532.80946  21271293.0784                   21271291.8634
  -8173446.71146  -6357268.41844  23414115.1334                   23414117.2304
 -32663961.88748 -25440333.51246  20643510.6174                   20643506.4844
 11  8 28  0  8 30.0000000  0  8G12G09G17G10G04G05G25G02
 -25259856.93448 -19671434.70746  21037392.3444                   21037390.5084
 -11059949.35246  -8606273.46544  24259688.0864                   24259691.0044
 -28818741.37946 -22444275.25044  23537071.7114                   23537072.0044
 -29087546.36747 -22654877.59046  20921709.0944                   20921707.5634
 -28633742.12547 -22299087.78945  22261994.5164                   22261993.8014
 -22890095.25448 -17824491.88746  21252009.9844                   21252009.3594
  -8290560.49247  -6448525.87144  23391829.3054                   23391830.3554
 -32680788.39148 -25453445.05946  20640308.8364                   20640304.7384
 11  8 28  0  9  0.0000000  0  8G12G09G17G10G04G05G25G02
 -25328061.59848 -19724581.18446  21024413.6644                   21024411.6604
 -11005303.35547  -8563692.31644  24270086.3134                   24270089.9064
 -28786539.31246 -22419182.79744  23543199.1414                   23543199.6954
 -29086251.15248 -22653868.31646  20921955.7344                   20921953.3794
 -28580214.02347 -22257377.61745  22272180.5634                   22272179.5044
 -22990998.05148 -17903117.36346  21232808.9454                   21232807.7114
  -8407384.13347  -6539557.25044  23369598.8054                   23369599.3054
 -32697369.93448 -25466365.71147  20637153.5784                   20637149.2894
 11  8 28  0  9 30.0000000  0  8G12G09G17G10G04G05G25G02
 -25395740.59048 -19777318.04746  21011534.8054                   21011532.8954
 -10950616.44147  -8521079.29344  24280492.4144                   24280496.1174
 -28754142.93746 -22393938.95344  23549364.3674                   23549364.7504
 -29084330.61347 -22652371.77746  20922320.7034                   20922319.2464
 -28526614.29347 -22215611.60245  22282380.4774                   22282379.0944
 -23091467.78548 -17981405.38746  21213690.1254                   21213689.3754
  -8523912.28947  -6630358.40645  23347424.0004                   23347425.1454
 -32713705.24248 -25479094.51646  20634044.9144                   20634040.7584
 11  8 28  0 10  0.0000000  0  8G12G09G17G10G04G05G25G02
 -25462895.92648 -19829646.87146  20998755.6254                   20998753.4304
 -10895895.08647  -8478439.37943  24290905.6954                   24290908.4574
 -28721554.91446 -22368545.74244  23555565.6804                   23555566.2624
 -29081788.93747 -22650391.23446  20922804.6804                   20922802.7304
 -28472947.98447 -22173793.73845  22292592.2034                   22292591.9884
 -23191505.09848 -18059356.47346  21194653.4844                   21194652.6724
  -8640145.49247  -6720929.70345  23325306.1804                   23325307.4654
 -32729798.21548 -25491634.47347  20630982.6954                   20630978.3874
 11  8 28  0 10 30.0000000  0  8G12G09G17G10G04G05G25G02
 -25529522.10548 -19881563.35546  20986077.4534                   20986074.8244
 -10841139.17647  -8435772.55543  24301325.4614                   24301329.5634
 -28688771.51646 -22343000.32444  23561803.4694                   23561804.2734
 -29078624.01247 -22647925.03546  20923406.7584                   20923405.0944
 -28419213.11747 -22131922.43045  22302818.3594                   22302817.1914
 -23291104.02048 -18136965.95746  21175700.7034                   21175699.4064
  -8756077.75847  -6811266.50445  23303244.7734                   23303245.9384
 -32745646.92648 -25503984.10246  20627966.7894                   20627962.4344
 11  8 28  0 11  0.0000000  0  8G12G09G17G10G04G05G25G02
 -25595618.88748 -19933067.32046  20973499.5004                   20973497.1054
 -10786353.30947  -8393082.40643  24311751.8054                   24311754.0984
 -28655794.01246 -22317303.61744  23568079.3674                   23568080.0704
 -29074838.18748 -22644975.02746  20924127.3674                   20924125.5274
 -28365412.75047 -22090000.09445  22313056.1334                   22313055.3284
 -23390263.88348 -18214233.30546  21156831.0314                   21156829.9614
  -8871707.85547  -6901367.83645  23281240.8524                   23281242.5984
 -32761254.17648 -25516145.58647  20624996.5234                   20624992.5594
 11  8 28  0 11 30.0000000  0  8G12G09G17G10G04G05G25G02
 -25661184.12548 -19984157.10246  20961022.5704                   20961020.3364
 -10731539.77747  -8350370.69943  24322182.1254                   24322185.4454
 -28622620.65246 -22291454.32844  23574392.3834                   23574392.4534
 -29070432.15647 -22641541.74646  20924965.4304                   20924964.0594
 -28311547.66047 -22048027.32445  22323306.5704                   22323305.6334
 -23488981.58248 -18291156.11346  21138045.6334                   21138044.6254
  -8987032.40646  -6991231.07045  23259295.0084                   23259297.0554
 -32776620.41048 -25528119.26246  20622072.5704                   20622068.6254
 11  8 28  0 12  0.0000000  0  8G12G09G17G10G04G05G25G02
 -25726216.46148 -20034831.63746  20948647.3364                   20948644.9964
 -10676702.24246  -8307640.29743  24332617.4774                   24332621.4024
 -28589252.09646 -22265452.97744  23580741.8524                   23580742.4304
 -29065407.47348 -22637626.39846  20925921.9774                   20925919.8404
 -28257619.80547 -22006005.64545  22333568.5314                   22333567.1214
 -23587254.77048 -18367732.55946  21119344.7344                   21119343.6884
  -9102049.20347  -7080854.49645  23237408.0554                   23237410.1054
 -32791747.26648 -25539906.41446  20619193.7734                   20619189.6134
 11  8 28  0 12 30.0000000  0  8G12G09G17G10G04G05G25G02
 -25790714.02348 -20085089.45746  20936373.9694                   20936371.6644
 -10621843.87546  -8264893.67643  24343056.7734                   24343061.1134
 -28555688.15646 -22239299.27344  23587129.4534                   23587129.5084
 -29059765.02348 -22633229.68446  20926995.4844                   20926993.7464
 -28203630.77347 -21963936.30945  22343841.9304                   22343842.1644
 -23685081.18448 -18443960.85946  21100728.8754                   21100728.0744
  -9216755.39147  -7170235.85545  23215579.5004                   23215582.2274
 -32806635.52748 -25551507.64546  20616360.7034                   20616356.3094
 11  8 28  0 13  0.0000000  0  8G12G09G17G10G04G05G25G02
 -25854674.19148 -20134928.53546  20924202.8054                   20924200.6454
 -10566966.73046  -8222132.49243  24353499.1174                   24353504.3404
 -28521926.93046 -22212991.88344  23593554.1804                   23593554.4924
 -29053505.20348 -22628351.89146  20928186.4384                   20928185.1414
 -28149580.85547 -21921819.52345  22354127.9224                   22354126.6724
 -23782457.54748 -18519838.47346  21082198.9774                   21082197.7074
  -9331147.47746  -7259372.46545  23193811.8754                   23193813.8834
 -32821285.82048 -25562923.44546  20613572.8594                   20613568.7274
 11  8 28  0 13 30.0000000  0  8G12G09G17G10G04G05G25G02
 -25918095.92648 -20184348.05146  20912133.7664                   20912131.4694
 -10512074.37945  -8179359.45343  24363945.1024                   24363949.4844
 -28487968.92246 -22186531.16844  23600016.0004                   23600016.2384
 -29046629.63347 -22622994.29346  20929495.0864                   20929493.3444
 -28095472.25847 -21879657.02745  22364424.0864                   22364423.6884
 -23879382.04348 -18595363.98046  21063754.3984                   21063753.4024
  -9445223.24647  -7348262.62945  23172104.0234                   23172105.3524
 -32835699.82448 -25574155.13746  20610830.0944                   20610826.0434
 11  8 28  0 14  0.0000000  0  8G12G09G17G10G04G05G25G02
 -25980977.81248 -20233346.91046  20900167.9694                   20900165.4414
 -10457170.21945  -8136577.26243  24374392.7504                   24374398.2074
 -28453813.93746 -22159916.96144  23606515.6564                   23606515.6564
 -29039140.12148 -22617158.30546  20930920.3204                   20930918.8164
 -28041306.83247 -21837450.24645  22374731.8134                   22374730.6524
 -23975852.62148 -18670535.79346  21045396.8984                   21045395.8054
  -9558980.44147  -7436904.55945  23150457.1414                   23150457.6954
 -32849878.93048 -25585203.77747  20608131.9774                   20608128.0044
 11  8 28  0 14 30.0000000  0  8G12G09G17G10G04G05G25G02
 -26043317.36748 -20281923.17646  20888305.2114                   20888303.0044
 -10402256.57045  -8093787.68743  24384843.0164                   24384848.5704
 -28419460.69546 -22133148.27044  23613052.9774                   23613052.8984
 -29031036.85547 -22610844.07046  20932462.2734                   20932460.4304
 -27987084.76247 -21795199.32045  22385049.9384                   22385049.2304
 -24071865.76248 -18745351.15646  21027126.2194                   21027124.4224
  -9672415.27047  -7525295.31245  23128871.2974                   23128871.6914
 -32863823.49248 -25596069.67246  20605478.3754                   20605474.2704
 11  8 28  0 15  0.0000000  0  8G12G09G17G10G04G05G25G02
 -26105112.91448 -20330075.53546  20876546.1564                   20876543.4654
 -10347336.63745  -8050993.18443  24395293.6724                   24395299.1604
 -28384909.24646 -22106225.12544  23619627.7974                   23619628.5044
 -29022321.32048 -22604052.74646  20934121.1024                   20934119.4454
 -27932807.66447 -21752905.52345  22395378.2424                   22395377.6414
 -24167419.65648 -18819808.67246  21008942.5474                   21008941.3834
  -9785525.28147  -7613432.96945  23107347.0474                   23107347.7034
 -32877534.57448 -25606753.61747  20602869.3204                   20602865.1524
 11  8 28  0 15 30.0000000  0  8G12G09G17G10G04G05G25G02
 -26166362.89848 -20377802.78946  20864890.4304                   20864887.8444
 -10292413.10946  -8008195.87544  24405746.4694                   24405750.8054
 -28350158.05946 -22079146.34844  23626240.8984                   23626241.4344
 -29012994.47748 -22596785.06646  20935895.6174                   20935894.0704
 -27878476.82447 -21710569.86745  22405717.0474                   22405716.6254
 -24262511.52048 -18893906.17646  20990847.3984                   20990845.8484
  -9898307.50447  -7701315.21145  23085885.1414                   23085885.6804
 -32891013.36748 -25617256.57447  20600304.0634                   20600300.2814
 11  8 28  0 16  0.0000000  0  8G12G09G17G10G04G05G25G02
 -26227067.95348 -20425105.42246  20853338.6334                   20853336.3014
 -10237491.25446  -7965399.85244  24416197.5634                   24416202.8134
 -28315209.52746 -22051913.79344  23632891.1334                   23632892.0474
 -29003059.94548 -22589043.86746  20937786.0554                   20937784.5554
 -27824095.73847 -21668195.01645  22416065.3524                   22416064.8444
 -24357141.11748 -18967643.45346  20972839.9144                   20972838.4384
 -10010761.37547  -7788941.57045  23064485.6254                   23064486.6524
 -32904262.89548 -25627580.87946  20597782.9774                   20597778.8954
 11  8 28  0 16 30.0000000  0  8G12G09G17G10G04G05G25G02
 -26287225.79348 -20471981.66046  20841890.9144                   20841888.2194
 -10182573.44146  -7922606.98444  24426648.7664                   24426653.1914
 -28280063.01646 -22024526.94944  23639579.2974                   23639580.1564
 -28992518.18048 -22580829.51246  20939792.2344                   20939790.4614
 -27769665.05947 -21625781.55144  22426423.2504                   22426422.7544
 -24451305.55148 -19041018.28146  20954920.7664                   20954919.3094
 -10122883.61747  -7876309.52345  23043149.3914                   23043151.1294
 -32917283.87948 -25637727.09446  20595305.2114                   20595301.1334
 11  8 28  0 17  0.0000000  0  8G12G09G17G10G04G05G25G02
 -26346835.48448 -20518430.76246  20830547.4534                   20830545.1684
 -10127663.33247  -7879820.08244  24437097.9534                   24437103.1174
 -28244718.62146 -21996985.93744  23646305.3914                   23646306.0124
 -28981371.39548 -22572143.69546  20941913.2194                   20941911.8594
 -27715187.04347 -21583331.17645  22436790.6024                   22436789.3164
 -24545003.15648 -19114029.34046  20937091.0084                   20937089.6174
 -10234672.16447  -7963417.39545  23021876.1884                   23021877.7894
 -32930077.91448 -25647696.46546  20592870.7034                   20592866.3364
 11  8 28  0 17 30.0000000  0  8G12G09G17G10G04G05G25G02
 -26405891.20348 -20564448.19946  20819309.4534                   20819307.1484
 -10072760.13747  -7837038.59444  24447545.3364                   24447550.5314
 -28209171.60946 -21969287.03144  23653069.4224                   23653070.2114
 -28969616.64148 -22562984.13746  20944149.8284                   20944148.1414
 -27660658.61347 -21540841.54745  22447166.5864                   22447165.8284
 -24638227.77048 -19186671.84046  20919350.5474                   20919349.3634
 -10346120.17647  -8050259.94145  23000668.6564                   23000670.7344
 -32942641.86348 -25657486.55146  20590479.7894                   20590475.7774
 11  8 28  0 18  0.0000000  0  8G12G09G17G10G04G05G25G02
 -26464393.54748 -20610034.43446  20808176.8134                   20808174.6454
 -10017869.09047  -7794266.57844  24457991.0944                   24457996.1804
 -28173424.14846 -21941431.93444  23659871.9534                   23659872.5864
 -28957257.94948 -22553354.00046  20946501.9694                   20946500.2034
 -27606083.86747 -21498315.79745  22457551.9844                   22457550.8714
 -24730979.32448 -19258945.71146  20901700.8364                   20901699.0634
 -10457227.50447  -8136837.03145  22979525.7664                   22979527.4964
 -32954979.71148 -25667100.46546  20588131.7114                   20588127.5124
 11  8 28  0 18 30.0000000  0  8G12G09G17G10G04G05G25G02
 -24946923.03948 -19427589.88346  21096942.3204                   21096939.4494
  -8387578.14147  -6523910.21544  24768225.7974                   24768230.1374
 -26562060.24647 -20685823.77044  23966504.5084                   23966505.2234
 -27368880.46148 -21315657.25046  21248760.4224                   21248758.7584
 -25976048.65247 -20228158.52745  22767737.4924                   22767736.8594
 -23247835.65248 -18103249.28146  21183933.3914                   21183931.9534
  -8992570.84447  -6995546.07045  23258240.7504                   23258242.0704
 -31391675.19148 -24448941.09446  20885618.7344                   20885614.4104
 11  8 28  0 19  0.0000000  0  8G12G09G17G10G04G05G25G02
 -25004318.94548 -19472313.96546  21086019.8984                   21086017.3914
  -8332723.42647  -6481166.48444  24778664.1024                   24778669.6564
 -26525914.22747 -20657658.10944  23973383.3204                   23973384.1604
 -27355321.76648 -21305092.03546  21251340.4844                   21251339.0044
 -25921388.00047 -20185565.84845  22778138.9614                   22778138.3054
 -23339637.55948 -18174783.18046  21166464.0944                   21166462.7504
  -9102991.86347  -7081588.37945  23237228.5704                   23237230.2344
 -31403567.24648 -24458207.63346  20883356.0394                   20883351.4144
 11  8 28  0 19 30.0000000  0  8G12G09G17G10G04G05G25G02
 -25061158.66848 -19516604.65246  21075203.4384                   21075201.2154
  -8277890.88346  -6438440.01643  24789098.3524                   24789103.9024
 -26489567.74647 -20629336.26644  23980299.5314                   23980300.7154
 -27341164.59048 -21294060.46546  21254034.1414                   21254032.4064
 -25866685.88347 -20142940.84444  22788548.3524                   22788547.5594
 -23430960.70748 -18245944.00846  21149085.8284                   21149084.8164
  -9213065.17647  -7167359.77045  23216282.3204                   23216283.1724
 -31415237.49248 -24467301.32846  20881134.8674                   20881130.8244
 11  8 28  0 20  0.0000000  0  8G12G09G17G10G04G05G25G02
 -25117439.21148 -19560459.60546  21064493.8204                   21064491.2234
  -8223082.17246  -6395732.11743  24799528.6884                   24799532.4064
 -26453019.44547 -20600857.13744  23987254.8834                   23987255.2304
 -27326408.96948 -21282562.57446  21256842.0944                   21256840.6684
 -25811941.97747 -20100283.30144  22798965.5234                   22798965.5744
 -23521801.46148 -18316728.95346  21131799.3524                   21131797.8794
  -9322786.75047  -7252857.08245  23195402.9924                   23195403.0234
 -31426685.61348 -24476221.94146  20878956.4534                   20878952.4614
 11  8 28  0 20 30.0000000  0  8G12G09G17G10G04G05G25G02
 -25173161.76248 -19603879.77746  21053890.0004                   21053887.7974
  -8168302.73846  -6353047.05943  24809952.3674                   24809957.6564
 -26416271.19147 -20572222.21144  23994247.7274                   23994248.5394
 -27311059.00448 -21270601.55946  21259762.9694                   21259761.2934
 -25757160.41047 -20057596.40244  22809390.7894                   22809389.5594
 -23612160.38748 -18387138.44946  21114604.9064                   21114603.2544
  -9432156.42247  -7338080.16845  23174590.2114                   23174591.0514
 -31437915.39548 -24484972.41446  20876819.3364                   20876815.5204
 11  8 28  0 21  0.0000000  0  8G12G09G17G10G04G05G25G02
 -25228322.93748 -19646862.51646  21043393.4224                   21043391.0314
  -8113553.51246  -6310385.46542  24820371.1334                   24820375.1094
 -26379320.64146 -20543429.67244  24001278.9614                   24001280.4614
 -27295114.16848 -21258177.00846  21262797.2894                   21262795.6644
 -25702340.20347 -20014879.39844  22819822.5864                   22819822.0514
 -23702033.14148 -18457169.10546  21097502.5554                   21097501.1334
  -9541169.32047  -7423025.25445  23153845.4534                   23153846.7034
 -31448925.55948 -24493551.77046  20874724.4384                   20874719.9654
 11  8 28  0 21 30.0000000  0  8G12G09G17G10G04G05G25G02
 -25282922.87948 -19689407.91846  21033003.0394                   21033001.1724
  -8058838.97346  -6267750.90643  24830782.6724                   24830787.1844
 -26342169.22746 -20514480.58644  24008349.0084                   24008349.4184
 -27278577.61348 -21245291.38746  21265944.2424                   21265942.1024
 -25647484.41447 -19972134.67644  22830261.2034                   22830260.7704
 -23791419.35248 -18526820.64146  21080493.0234                   21080491.6214
  -9649824.55547  -7507691.62545  23133168.8054                   23133170.1094
 -31459718.71148 -24501962.01246  20872670.6414                   20872666.0354
 11  8 28  0 22  0.0000000  0  8G12G09G17G10G04G05G25G02
 -25336958.05948 -19731513.25046  21022720.7194                   21022718.4144
  -8004159.73046  -6225143.90642  24841187.5084                   24841193.4384
 -26304814.34046 -20485372.97344  24015457.2664                   24015458.4454
 -27261448.78948 -21231944.25446  21269203.6884                   21269202.0784
 -25592591.98447 -19929361.40244  22840706.9224                   22840706.5634
 -23880314.52048 -18596089.54746  21063576.3984                   21063575.0594
  -9758117.26647  -7592075.50445  23112562.2344                   23112562.9414
 -31470294.28948 -24510202.72346  20870658.1484                   20870653.8364
 11  8 28  0 22 30.0000000  0  8G12G09G17G10G04G05G25G02
 -25390430.21148 -19773179.86346  21012545.3524                   21012543.1214
  -7949521.42246  -6182568.83242  24851585.0864                   24851590.3714
 -26267258.64146 -20456108.88743  24022604.2504                   24022604.4384
 -27243732.06247 -21218139.01246  21272574.9924                   21272573.2734
 -25537666.83247 -19886562.62544  22851158.2194                   22851158.5864
 -23968719.22748 -18664976.27746  21046753.7584                   21046752.2814
  -9866047.57847  -7676177.00045  23092023.1954                   23092024.6724
 -31480656.17647 -24518276.91846  20868686.2114                   20868682.0004
 11  8 28  0 23  0.0000000  0  8G12G09G17G10G04G05G25G02
 -25443336.20348 -19814405.30546  21002477.7504                   21002475.2734
  -7894925.57446  -6140026.87543  24861975.1484                   24861981.1134
 -26229500.04346 -20426686.66443  24029789.2114                   24029789.7034
 -27225427.67647 -21203875.85246  21276058.1094                   21276056.2894
 -25482708.84847 -19843738.26244  22861617.2344                   22861616.5594
 -24056629.63748 -18733477.84846  21030024.8674                   21030023.4344
  -9973611.23047  -7759992.80545  23071554.1644                   23071556.2814
 -31490803.84848 -24526184.19546  20866755.4064                   20866751.1374
 11  8 28  0 23 30.0000000  0  8G12G09G17G10G04G05G25G02
 -25495676.09848 -19855189.63746  20992517.5784                   20992515.5594
  -7840376.64846  -6097521.37543  24872355.5634                   24872360.6134
 -26191539.71146 -20397107.25043  24037012.8754                   24037014.1524
 -27206538.50447 -21189157.02046  21279652.7664                   21279651.1954
 -25427720.23447 -19800890.05944  22872081.1954                   22872080.6294
 -24144045.07048 -18801593.71546  21013390.2974                   21013388.6254
 -10080806.92247  -7843521.85545  23051155.9224                   23051156.9924
 -31500739.35948 -24533926.15646  20864864.7034                   20864860.3134
 11  8 28  0 24  0.0000000  0  8G12G09G17G10G04G05G25G02
 -25547446.69548 -19895530.36346  20982666.0474                   20982663.7234
  -7785875.23446  -6055052.96143  24882727.5864                   24882732.3674
 -26153375.24646 -20367368.80143  24044275.2034                   24044276.7974
 -27187064.20748 -21173982.25446  21283358.6334                   21283357.1054
 -25372700.39147 -19758017.49244  22882551.1724                   22882550.1994
 -24230961.73448 -18869320.93446  20996850.3984                   20996848.8244
 -10187630.02347  -7926760.60545  23030828.3984                   23030829.8204
 -31510462.01648 -24541502.23846  20863014.3364                   20863010.2664
 11  8 28  0 24 30.0000000  0  8G12G09G17G10G04G05G25G02
 -25598648.83248 -19935428.12546  20972922.6174                   20972920.0704
  -7731426.73446  -6012625.77743  24893087.9614                   24893093.6214
 -26115008.78946 -20337472.93443  24051576.1484                   24051577.3444
 -27167008.71148 -21158354.59446  21287174.7584                   21287173.5274
 -25317652.73847 -19715123.27044  22893026.2814                   22893025.9774
 -24317379.94948 -18936659.75046  20980405.6564                   20980403.8164
 -10294080.17247  -8009708.72745  23010571.7814                   23010572.9024
 -31519975.21548 -24548915.12146  20861204.1724                   20861200.1724
 11  8 28  0 25  0.0000000  0  8G12G09G17G10G04G05G25G02
 -25649279.24248 -19974880.39546  20963287.7424                   20963285.7074
  -7677031.59046  -5970240.19544  24903440.1414                   24903445.6724
 -26076437.73446 -20307417.63744  24058916.2274                   24058917.0204
 -27146371.52748 -21142273.67646  21291102.1954                   21291100.7274
 -25262576.13747 -19672206.48444  22903506.6954                   22903506.8324
 -24403295.06648 -19003606.54346  20964056.2664                   20964054.7194
 -10400152.38347  -8092362.37145  22990386.8134                   22990387.5904
 -31529277.87148 -24556163.94946  20859433.6954                   20859429.5274
 11  8 28  0 25 30.0000000  0  8G12G09G17G10G04G05G25G02
 -25699337.61748 -20013886.92646  20953762.0234                   20953759.7544
  -7622693.55546  -5927899.10244  24913779.8134                   24913785.9774
 -26037663.00846 -20277203.65243  24066295.3204                   24066295.3284
 -27125155.62148 -21125741.80146  21295139.4144                   21295137.7234
 -25207472.83247 -19629268.88345  22913992.8674                   22913992.1884
 -24488706.10948 -19070160.54346  20947803.3674                   20947801.6564
 -10505845.21947  -8174720.38345  22970273.5234                   22970275.2854
 -31538371.91448 -24563250.21546  20857703.3134                   20857699.0514
 11  8 28  0 26  0.0000000  0  8G12G09G17G10G04G05G25G02
 -25748823.34448 -20052447.22346  20944345.5084                   20944343.0234
  -7568416.35546  -5885605.42643  24924108.8134                   24924114.3134
 -25998684.71146 -20246831.05544  24073712.4384                   24073712.7274
 -27103363.08248 -21108760.60246  21299286.2664                   21299284.7384
 -25152344.69147 -19586311.93444  22924483.1024                   22924482.9884
 -24573611.67648 -19136320.68446  20931646.1414                   20931644.3914
 -10611156.56647  -8256781.14545  22950233.2504                   22950234.3094
 -31547259.06248 -24570175.26646  20856012.1094                   20856007.7624
 11  8 28  0 26 30.0000000  0  8G12G09G17G10G04G05G25G02
 -25797735.43748 -20090560.54746  20935037.7584                   20935035.5084
  -7514202.69545  -5843361.25444  24934425.6954                   24934431.3874
 -25959502.78546 -20216299.75044  24081168.5554                   24081169.3554
 -27080995.74247 -21091331.51246  21303542.8444                   21303541.3484
 -25097192.62547 -19543336.34845  22934978.6884                   22934978.4104
 -24658009.81648 -19202085.41846  20915585.4614                   20915584.0944
 -10716083.86347  -8338542.63745  22930266.8444                   22930267.7424
 -31555940.52048 -24576940.03946  20854360.0634                   20854355.8014
 11  8 28  0 27  0.0000000  0  7G12G17G10G04G05G25G02
 -25846073.85548 -20128226.84446  20925839.3754                   20925837.0554
 -25920117.98047 -20185610.33644  24088663.4304                   24088663.4224
 -27058056.75447 -21073456.98846  21307907.8204                   21307906.2934
 -25042019.18747 -19500344.10244  22945477.1804                   22945477.2934
 -24741899.81648 -19267454.19946  20899622.0394                   20899620.3364
 -10820625.55947  -8420003.67645  22910372.9144                   22910373.8634
 -31564418.43748 -24583546.20346  20852746.8284                   20852742.4614
 11  8 28  0 27 30.0000000  0  7G12G17G10G04G05G25G02
 -25893834.57448 -20165442.98046  20916750.5554                   20916747.9924
 -25880527.22547 -20154760.49644  24096196.8674                   24096198.2424
 -27034544.75447 -21055135.94546  21312382.2114                   21312380.3674
 -24986822.25047 -19457333.54345  22955981.7664                   22955980.6054
 -24825276.48848 -19332422.98846  20883755.7664                   20883754.2274
 -10924776.24247  -8501160.02345  22890553.4384                   22890554.1564
 -31572690.86748 -24589992.25447  20851172.5474                   20851168.2544
 11  8 28  0 28  0.0000000  0  7G12G17G10G04G05G25G02
 -25941007.61348 -20202201.19146  20907773.8524                   20907771.5164
 -25840721.70347 -20123743.24244  24103772.1644                   24103772.9224
 -27010452.99247 -21036363.15246  21316966.8594                   21316965.3014
 -24931594.47747 -19414298.95745  22966491.5944                   22966490.8404
 -24908129.35248 -19396983.62146  20867989.5084                   20867987.4654
 -11028524.59847  -8582002.87145  22870810.8754                   22870811.9804
 -31580749.88348 -24596272.00846  20849639.1884                   20849634.9654
 11  8 28  0 28 30.0000000  0  7G12G17G10G04G05G25G02
 -25987588.02048 -20238497.60946  20898909.6094                   20898907.4454
 -25800697.05947 -20092555.27744  24111388.5944                   24111389.9064
 -26985779.25448 -21017136.85546  21321662.1254                   21321660.2894
 -24876332.55147 -19371237.76644  22977006.8204                   22977006.7704
 -24990452.50448 -19461131.48046  20852323.6954                   20852321.6024
 -11131863.78947  -8662526.90245  22851146.2274                   22851146.9304
 -31588593.05548 -24602383.56646  20848146.8364                   20848142.6214
 11  8 28  0 29  0.0000000  0  7G12G17G10G04G05G25G02
 -26033579.60248 -20274335.21146  20890158.1724                   20890155.9414
 -25760457.97347 -20061200.20744  24119045.8204                   24119047.1884
 -26960530.48448 -20997462.49646  21326466.5634                   21326464.7504
 -24821042.90247 -19328154.96144  22987528.0234                   22987527.8014
 -25072249.04748 -19524869.00046  20836758.2814                   20836756.9384
 -11234796.46147  -8742734.15645  22831558.9534                   22831559.9304
 -31596226.44148 -24608331.66446  20846693.9304                   20846689.9264
 11  8 28  0 29 30.0000000  0  7G12G17G10G04G05G25G02
 -26078986.53948 -20309717.23846  20881517.2194                   20881514.7704
 -25720009.28146 -20029681.79744  24126742.8364                   24126743.5354
 -26934713.55948 -20977345.41846  21331379.2194                   21331377.6254
 -24765731.37947 -19285055.11344  22998053.6644                   22998053.3054
 -25153522.07848 -19588198.58246  20821292.5634                   20821290.7034
 -11337324.81247  -8822626.35545  22812048.2344                   22812049.1334
 -31603655.69548 -24614120.69546  20845280.1414                   20845276.0434
 11  8 28  0 30  0.0000000  0  7G12G17G10G04G05G25G02
 -26123809.57448 -20344644.27346  20872987.7424                   20872985.3014
 -25679352.94546 -19998001.61344  24134479.6484                   24134480.8284
 -26908332.22748 -20956788.54346  21336399.8444                   21336397.9614
 -24710401.06247 -19241940.63344  23008582.5004                   23008582.0164
 -25234271.50048 -19651120.16446  20805926.6484                   20805924.9384
 -11439448.26247  -8902203.06645  22792615.0944                   22792616.0314
 -31610883.59848 -24619752.82446  20843905.0474                   20843901.0124
 11  8 28  0 30 30.0000000  0  7G12G17G10G04G05G25G02
 -26168048.29748 -20379115.99646  20864569.6094                   20864567.1844
 -25638489.02346 -19966159.66044  24142256.0004                   24142257.4184
 -26881388.84448 -20935793.69946  21341526.6484                   21341524.9734
 -24655053.39847 -19198812.61744  23019115.4064                   23019114.8914
 -25314496.18048 -19713632.85946  20790660.1174                   20790658.6174
 -11541164.82847  -8981462.69945  22773258.7734                   22773259.9344
 -31617911.85548 -24625229.39146  20842567.3204                   20842563.4614
 11  8 28  0 31  0.0000000  0  7G12G17G10G04G05G25G02
 -26211703.66848 -20413133.16446  20856262.1564                   20856259.8404
 -25597418.94546 -19934157.08244  24150070.7344                   24150072.6214
 -26853887.34048 -20914363.95746  21346759.8674                   21346758.3874
 -24599691.31247 -19155673.38744  23029649.6644                   23029649.7304
 -25394196.04748 -19775736.59847  20775493.5554                   20775492.1214
 -11642473.78147  -9060404.73045  22753980.7114                   22753981.3914
 -31624743.71548 -24630552.91446  20841267.4224                   20841263.4104
 11  8 28  0 31 30.0000000  0  7G12G17G10G04G05G25G02
 -26254775.44148 -20446695.57446  20848065.5394                   20848063.5354
 -25556143.64546 -19901994.55144  24157926.1174                   24157926.7544
 -26825830.42648 -20892501.43745  21352099.3834                   21352096.8794
 -24544316.79747 -19112524.44544  23040187.8134                   23040187.1724
 -25473370.12948 -19837430.64846  20760427.6094                   20760425.5204
 -11743373.37947  -9139027.75445  22734779.8364                   22734780.7154
 -31631380.79348 -24635724.67246  20840004.2274                   20840000.4414
 11  8 28  0 32  0.0000000  0  7G12G17G10G04G05G25G02
 -26297258.78948 -20479799.48047  20839981.3134                   20839978.9654
 -25514658.96946 -19869668.88344  24165819.6564                   24165820.6134
 -26797216.25448 -20870204.68046  21357544.3984                   21357542.4064
 -24488926.70347 -19069363.38344  23050728.5234                   23050727.7584
 -25552012.73448 -19898710.55946  20745462.1094                   20745460.3054
 -11843857.11747  -9217326.74245  22715658.4534                   22715659.3054
 -31637820.12548 -24640742.32446  20838779.0474                   20838774.7934
 11  8 28  0 32 30.0000000  0  7G12G17G10G04G05G25G02
 -26339156.43448 -20512447.00046  20832008.7894                   20832006.3364
 -25472968.29746 -19837182.68044  24173753.4774                   24173755.3714
 -26768050.62148 -20847478.21146  21363094.2894                   21363091.9064
 -24433525.77746 -19026193.89544  23061270.8754                   23061270.3714
 -25630125.59848 -19959577.66847  20730597.5234                   20730596.0164
 -11943926.16447  -9295302.57845  22696615.8754                   22696616.6884
 -31644066.57048 -24645609.68046  20837590.2274                   20837586.2584
 11  8 28  0 33  0.0000000  0  7G12G17G10G04G05G25G02
 -26380470.12548 -20544639.46946  20824146.9224                   20824144.6844
 -25431074.10246 -19804537.89544  24181725.6564                   24181727.1844
 -26738337.85948 -20824325.41446  21368748.2344                   21368746.2034
 -24378117.47747 -18983018.61744  23071814.8594                   23071814.2194
 -25707709.53148 -20020032.63747  20715834.4614                   20715832.2384
 -12043580.31247  -9372955.11745  22677652.1414                   22677653.5744
 -31650123.51248 -24650329.37146  20836437.7274                   20836433.4774
 11  8 28  0 33 30.0000000  0  7G12G17G10G04G05G25G02
 -26421195.21548 -20576373.30946  20816397.3754                   20816394.9104
 -25388972.33246 -19771731.37544  24189737.4384                   24189738.1604
 -26708076.11748 -20800744.82845  21374507.0314                   21374505.3554
 -24322698.92647 -18939835.35944  23082360.4454                   23082359.6954
 -25784759.05148 -20080071.18047  20701172.0704                   20701170.1524
 -12142813.32447  -9450279.49245  22658768.8984                   22658769.7624
 -31655988.05548 -24654899.13746  20835321.7424                   20835317.6094
 11  8 28  0 34  0.0000000  0  7G12G17G10G04G05G25G02
 -26461333.72348 -20607650.06246  20808759.1884                   20808756.9964
 -25346666.08246 -19738765.52043  24197787.3204                   24197789.4884
 -26677270.52748 -20776740.47746  21380369.0554                   21380367.3834
 -24267274.19947 -18896647.31644  23092907.6414                   23092907.0274
 -25861275.66448 -20139694.48447  20686611.3754                   20686609.5274
 -12241625.79347  -9527276.17645  22639965.3524                   22639966.2344
 -31661664.09048 -24659322.02046  20834241.6644                   20834237.4534
 11  8 28  0 34 30.0000000  0  7G12G17G10G04G05G25G02
 -26500882.12147 -20638466.98846  20801232.9534                   20801230.6604
 -25304152.07046 -19705637.75843  24205878.0944                   24205880.0234
 -26645920.43448 -20752311.85245  21386334.8914                   21386332.5824
 -24211841.50847 -18853453.05144  23103456.4774                   23103455.4064
 -25937254.68448 -20198898.85947  20672153.0474                   20672151.1764
 -12340012.37547  -9603940.99245  22621242.6564                   22621244.0554
 -31667150.05548 -24663596.78546  20833197.8134                   20833193.3634
 11  8 28  0 35  0.0000000  0  7G12G17G10G04G05G25G02
 -26539840.30948 -20668824.02046  20793819.8284                   20793817.5594
 -25261431.25846 -19672348.87143  24214007.8914                   24214009.0634
 -26614028.30948 -20727460.84845  21392403.6884                   21392402.1524
 -24156401.86347 -18810253.35544  23114005.8284                   23114005.3444
 -26012694.82048 -20257683.34446  20657797.0554                   20657795.6484
 -12437971.00847  -9680272.34445  22602602.2034                   22602603.0084
 -31672447.34048 -24667724.53546  20832189.4144                   20832185.6844
 11  8 28  0 35 30.0000000  0  7G12G17G10G04G05G25G02
 -26578207.98848 -20698720.91046  20786518.6484                   20786516.3444
 -25218503.86746 -19638899.04744  24222177.1334                   24222177.8874
 -26581597.23048 -20702189.89546  21398575.2584                   21398573.0664
 -24100957.31247 -18767049.85544  23124557.1644                   23124556.7424
 -26087595.24648 -20316047.26647  20643544.0944                   20643542.1024
 -12535500.13347  -9756269.01645  22584042.5784                   22584043.3244
 -31677557.91448 -24671706.80946  20831216.9454                   20831212.9344
 11  8 28  0 36  0.0000000  0  7G12G17G10G04G05G25G02
 -26615985.71948 -20728158.09046  20779330.0004                   20779327.5004
 -25175370.29346 -19605288.50443  24230384.6414                   24230386.0634
 -26548630.33647 -20676501.41446  21404848.8364                   21404846.5434
 -24045509.85547 -18723844.08644  23135107.8284                   23135107.8484
 -26161955.31648 -20373990.14547  20629393.7584                   20629392.0514
 -12632598.02747  -9831929.66445  22565565.7344                   22565566.5164
 -31682483.40648 -24675544.84046  20830279.6804                   20830275.9654
 11  8 28  0 36 30.0000000  0  7G12G17G10G04G05G25G02
 -26653171.00048 -20757133.64146  20772253.8054                   20772251.4144
 -25132029.58246 -19571516.57043  24238631.5554                   24238633.3794
 -26515128.00847 -20650395.71545  21411224.0704                   21411222.1914
 -23990058.43747 -18680635.21544  23145659.7974                   23145659.9104
 -26235771.75848 -20431509.40647  20615346.6644                   20615345.1134
 -12729260.72747  -9907251.20345  22547171.3674                   22547172.2304
 -31687223.30548 -24679238.27746  20829377.6484                   20829373.4064
 11  8 28  0 37  0.0000000  0  7G12G17G10G04G05G25G02
 -26689766.09448 -20785649.29746  20765289.6254                   20765287.5354
 -25088484.20746 -19537585.13343  24246918.5554                   24246920.0864
 -26481095.15647 -20623876.62145  21417700.0944                   21417698.2934
 -23934607.13746 -18637426.44544  23156211.1884                   23156211.8284
 -26309045.92648 -20488606.12147  20601402.8284                   20601401.4264
 -12825488.65247  -9982233.95345  22528859.8914                   22528860.5274
 -31691781.41048 -24682790.03546  20828510.5234                   20828506.4454
 11  8 28  0 37 30.0000000  0  7G12G17G10G04G05G25G02
 -26725766.50048 -20813701.55946  20758439.3364                   20758437.0204
 -25044730.21246 -19503491.23443  24255245.0314                   24255246.2814
 -26446530.02747 -20596942.77745  21424277.6724                   21424276.0594
 -23879152.70746 -18594215.25444  23166764.6724                   23166764.3134
 -26381772.47748 -20545276.12147  20587563.8914                   20587562.0204
 -12921275.50847 -10056873.01645  22510632.1484                   22510632.9774
 -31696154.93747 -24686197.98046  20827678.0944                   20827673.8484
 11  8 28  0 38  0.0000000  0  7G12G17G10G04G05G25G02
 -26761172.35247 -20841290.54746  20751701.6644                   20751699.5274
 -25000768.22746 -19469235.15243  24263610.8594                   24263610.8404
 -26411435.75447 -20569596.60945  21430955.6884                   21430954.2734
 -23823696.96146 -18551003.02344  23177317.1174                   23177317.1684
 -26453950.40648 -20601518.62547  20573828.7274                   20573826.5984
 -13016619.58647 -10131167.05145  22492488.7734                   22492489.3164
 -31700345.55147 -24689463.38346  20826880.7194                   20826876.5984
 11  8 28  0 38 30.0000000  0  7G12G17G10G04G05G25G02
 -26795984.06248 -20868416.56646  20745076.9534                   20745074.7194
 -24956599.08246 -19434817.71143  24272016.1884                   24272016.6884
 -26375815.60247 -20541840.66846  21437734.3754                   21437733.0004
 -23768241.66446 -18507791.14844  23187870.2894                   23187869.8954
 -26525579.46148 -20657333.43747  20560198.1334                   20560196.5204
 -13111519.42647 -10205114.94145  22474429.7814                   22474430.5124
 -31704355.16048 -24692587.75046  20826117.9454                   20826114.0394
 11  8 28  0 39  0.0000000  0  7G12G17G10G04G05G25G02
 -26830201.47748 -20895079.50046  20738565.9614                   20738563.6684
 -24912223.68946 -19400239.56243  24280459.8364                   24280461.3794
 -26339672.61747 -20513677.32845  21444612.1414                   21444610.7074
 -23712788.49646 -18464580.91844  23198422.7814                   23198422.1844
 -26596658.77048 -20712719.87947  20546672.1484                   20546670.7974
 -13205973.44547 -10278715.45745  22456455.6484                   22456456.6454
 -31708185.48448 -24695572.41846  20825388.9454                   20825384.7384
 11  8 28  0 39 30.0000000  0  7G12G17G10G04G05G25G02
 -26863820.35548 -20921276.03946  20732168.4304                   20732165.6334
 -24867638.13346 -19365497.57843  24288944.4614                   24288945.0004
 -26303005.16047 -20485105.30546  21451589.7114                   21451588.0664
 -23657334.65246 -18421370.19544  23208975.0944                   23208975.5274
 -26667183.22348 -20767673.96147  20533251.8524                   20533249.9104
 -13299975.54747 -10351963.82045  22438567.5864                   22438568.7114
 -31711833.77048 -24698415.24246  20824694.5474                   20824690.0784
 11  8 28  0 40  0.0000000  0  7G12G17G10G04G05G25G02
 -26896842.71147 -20947007.76246  20725884.5394                   20725882.3134
 -24822844.27046 -19330593.32443  24297468.3444                   24297469.8204
 -26265817.40647 -20456127.85546  21458666.2894                   21458664.8284
 -23601882.72346 -18378160.94944  23219527.7664                   23219526.8324
 -26737153.04748 -20822195.87147  20519937.0084                   20519935.1334
 -13393525.23047 -10424859.66045  22420765.9534                   22420766.8554
 -31715303.00447 -24701118.54746  20824034.7274                   20824030.3794
 11  8 28  0 40 30.0000000  0  7G12G17G10G04G05G25G02
 -26929268.06648 -20972274.30146  20719714.3054                   20719711.7304
 -24777842.22746 -19295526.83243  24306032.2664                   24306033.0004
 -26228112.11348 -20426747.12945  21465841.1644                   21465839.8834
 -23546433.81646 -18334954.07044  23230079.1414                   23230079.1414
 -26806567.28148 -20876284.84847  20506727.7194                   20506725.9494
 -13486620.28147 -10497401.23445  22403050.3204                   22403051.1914
 -31718594.35948 -24703683.23846  20823408.0164                   20823404.1604
 11  8 28  0 41  0.0000000  0  8G12G29G17G10G04G05G25G02
 -26961096.14547 -20997075.42246  20713657.4534                   20713655.1174
   1419953.55156   1116078.69154  24566004.5164                   24566004.2234
 -24732632.26646 -19260298.34043  24314635.5084                   24314637.5824
 -26189891.40648 -20396964.77745  21473114.6094                   21473113.3134
 -23490988.93746 -18291750.31244  23240629.9534                   23240630.1374
 -26875424.48448 -20929939.78147  20493624.8984                   20493622.8364
 -13579258.60547 -10569586.93045  22385421.8984                   22385422.7114
 -31721708.71547 -24706110.01246  20822815.6644                   20822811.2704
 11  8 28  0 41 30.0000000  0  8G12G29G17G10G04G05G25G02
 -26992334.69948 -21021417.17246  20707712.9844                   20707710.5314
   1314101.87946   1033596.94144  24545861.5004                   24545861.2274
 -24687223.08647 -19224914.60543  24323276.9774                   24323278.2344
 -26151166.46148 -20366789.51645  21480483.5164                   21480482.0434
 -23435557.59047 -18248557.10244  23251178.3834                   23251177.8674
 -26943732.15248 -20983166.49647  20480626.4384                   20480624.4844
 -13671446.45347 -10641421.59845  22367879.3524                   22367879.6604
 -31724655.60947 -24708406.30146  20822254.8524                   20822250.4734
 11  8 28  0 42  0.0000000  0  8G12G29G17G10G04G05G25G02
 -27022988.66848 -21045303.40647  20701879.8914                   20701877.2664
   1208171.90647    951054.21144  24525702.7504                   24525703.2664
 -24641619.85246 -19189379.65643  24331954.8674                   24331955.6994
 -26111944.71548 -20336227.14145  21487947.2344                   21487945.7664
 -23380145.81646 -18205379.13744  23261722.7114                   23261722.3134
 -27011494.09048 -21035967.96947  20467731.5084                   20467729.7664
 -13763186.75047 -10712907.54745  22350421.8524                   22350422.4024
 -31727441.46948 -24710577.10246  20821724.5944                   20821720.5314
 11  8 28  0 42 30.0000000  0  8G12G29G17G10G04G05G25G02
 -27053053.77048 -21068730.77347  20696158.6954                   20696156.2464
   1102168.68847    868454.37544  24505531.2974                   24505531.6484
 -24595818.12147 -19153690.07844  24340670.9844                   24340671.6454
 -26072224.05548 -20305275.99645  21495506.1174                   21495504.4534
 -23324750.03547 -18162213.63344  23272264.5084                   23272264.2624
 -27078704.61748 -21088339.77747  20454941.8984                   20454939.9344
 -13854472.78947 -10784039.50445  22333050.3914                   22333050.9774
 -31730062.66848 -24712619.59846  20821225.8134                   20821221.6374
 11  8 28  0 43  0.0000000  0  8G12G29G17G10G04G05G25G02
 -27082526.99248 -21091696.94146  20690550.1724                   20690547.5944
    996095.13347    785799.69944  24485346.4844                   24485346.3794
 -24549815.62947 -19117844.01644  24349424.7194                   24349426.4344
 -26032004.85948 -20273936.37945  21503159.4384                   21503157.8874
 -23269368.59047 -18119059.32044  23282803.4064                   23282803.1294
 -27145360.20348 -21140279.15647  20442257.5314                   20442255.6484
 -13945300.05547 -10854813.98845  22315766.7974                   22315767.3094
 -31732518.02748 -24714532.87146  20820758.4844                   20820754.5394
 11  8 28  0 43 30.0000000  0  8G12G29G17G10G04G05G25G02
 -27111402.77748 -21114197.57046  20685055.4304                   20685053.0984
    889957.49647    703095.09443  24465149.3674                   24465148.9304
 -24503607.11347 -19081837.44944  24358217.4384                   24358218.6374
 -25991283.91448 -20242205.79345  21510908.2734                   21510906.9454
 -23213996.87947 -18075912.60244  23293340.3364                   23293340.0204
 -27211453.91848 -21191780.71947  20429680.3914                   20429678.3164
 -14035660.67647 -10925224.85545  22298571.4924                   22298572.3634
 -31734802.78148 -24716313.21546  20820323.7504                   20820319.6884
 11  8 28  0 44  0.0000000  0  8G12G29G17G10G04G05G25G02
 -27139683.27047 -21136234.33646  20679673.8834                   20679671.1254
    783753.85247    620339.03143  24444939.2734                   24444938.7304
 -24457194.89847 -19045672.15244  24367049.8524                   24367051.1644
 -25950065.93448 -20210087.90245  21518751.8594                   21518750.1254
 -23158638.19547 -18032775.99244  23303874.5004                   23303873.9774
 -27276987.09448 -21242845.50047  20417209.6724                   20417207.7814
 -14125554.95747 -10995272.34045  22281465.3674                   22281466.3404
 -31736920.59848 -24717963.46946  20819921.3444                   20819916.9384
 11  8 28  0 44 30.0000000  0  8G12G29G17G10G04G05G25G02
 -27167365.67248 -21157805.05146  20674405.9304                   20674403.5084
    677487.61347    537534.21544  24424717.2424                   24424717.3594
 -24410576.66046 -19009346.32443  24375920.7424                   24375921.4964
 -25908350.87548 -20177582.67245  21526690.2664                   21526688.7704
 -23103290.80546 -17989648.23044  23314406.9064                   23314406.6644
 -27341956.36348 -21293470.87947  20404846.5004                   20404844.5394
 -14214978.33247 -11064952.87145  22264448.4224                   22264449.3094
 -31738869.87548 -24719482.39546  20819549.6024                   20819545.6684
 11  8 28  0 45  0.0000000  0  8G12G29G17G10G04G05G25G02
 -27194446.75848 -21178907.20746  20669252.3054                   20669250.1374
    571162.33246    454683.38743  24404483.9384                   24404483.4574
 -24363749.70747 -18972857.82444  24384832.0164                   24384833.5784
 -25866138.43748 -20144689.88745  21534722.6254                   21534721.6564
 -23047952.78146 -17946527.75444  23324938.0394                   23324937.1644
 -27406357.35548 -21343653.43747  20392591.4694                   20392589.4924
 -14303925.52048 -11134262.35546  22247521.8284                   22247522.8284
 -31740648.48048 -24720868.34046  20819211.3984                   20819207.3754
 11  8 28  0 45 30.0000000  0  7G12G29G10G04G05G25G02
 -27220927.41848 -21199541.50046  20664213.3834                   20664210.8404
    464777.43846    371786.07843  24384240.0944                   24384239.2424
 -25823431.82448 -20111412.02345  21542849.6174                   21542847.9534
 -22992625.98847 -17903416.03544  23335465.7194                   23335466.2934
 -27470190.09848 -21393393.21147  20380444.4384                   20380442.5434
 -14392395.46547 -11203199.96146  22230687.0634                   22230687.5394
 -31742258.76248 -24722123.10946  20818905.1094                   20818901.0124
 11  8 28  0 46  0.0000000  0  7G12G29G10G04G05G25G02
 -27246807.32448 -21219707.66846  20659288.5784                   20659286.1764
    358333.72346    288842.98443  24363984.4454                   24363984.4224
 -25780233.64548 -20077751.10945  21551069.7344                   21551068.2074
 -22937310.68747 -17860313.27744  23345991.9144                   23345992.6684
 -27533453.13748 -21442689.05147  20368405.4534                   20368403.7304
 -14480385.84447 -11271763.85945  22213943.0864                   22213943.7734
 -31743701.23848 -24723247.12946  20818630.4144                   20818626.1684
 11  8 28  0 46 30.0000000  0  7G12G29G10G04G05G25G02
 -27272077.93448 -21239399.05946  20654479.8674                   20654477.5984
    251840.69546    205861.43843  24343718.8524                   24343718.9734
 -25736537.91048 -20043702.49245  21559384.8674                   21559383.3484
 -22881999.34047 -17817213.60244  23356517.4534                   23356517.3984
 -27596136.85248 -21491533.47747  20356477.4844                   20356475.6604
 -14567885.91448 -11339945.71546  22197292.0784                   22197292.8364
 -31744968.43048 -24724234.56246  20818389.3984                   20818385.2704
 11  8 28  0 47  0.0000000  0  7G12G29G10G04G05G25G02
 -27296737.50048 -21258614.30546  20649787.5784                   20649785.1094
    145300.63746    122843.23043  24323445.3444                   24323444.8284
 -25692345.11747 -20009266.56645  21567794.4144                   21567792.9454
 -22826690.80547 -17774116.10244  23367042.2034                   23367043.1174
 -27658238.64848 -21539924.45347  20344659.7894                   20344658.2624
 -14654891.66047 -11407742.37546  22180735.5004                   22180736.3594
 -31746059.22747 -24725084.55146  20818181.1884                   20818177.4964
 11  8 28  0 47 30.0000000  0  7G12G29G10G04G05G25G02
 -27320788.18748 -21277355.09846  20645210.5634                   20645208.3874
     38712.17646     39787.33643  24303162.2814                   24303161.9654
 -25647660.47748 -19974447.37945  21576297.7734                   21576296.4304
 -22771388.41847 -17731023.42244  23377566.2504                   23377566.7934
 -27719759.90248 -21587863.06647  20332952.6094                   20332950.9024
 -14741403.43047 -11475154.10246  22164272.7814                   22164273.8714
 -31746977.12147 -24725799.80146  20818007.0634                   20818003.0664
 11  8 28  0 48  0.0000000  0  7G12G29G10G04G05G25G02
 -27344233.33248 -21295624.04746  20640749.0634                   20640746.8164
    -67927.58246    -43308.50443  24282869.2814                   24282869.0824
 -25602489.96947 -19939249.58645  21584893.6254                   21584892.0004
 -22716096.05547 -17687938.56644  23388087.8444                   23388088.4384
 -27780702.61348 -21635350.85547  20321356.0234                   20321353.4884
 -14827422.46147 -11542181.87946  22147904.0634                   22147904.8444
 -31747726.35548 -24726383.62946  20817864.5554                   20817860.5474
 11  8 28  0 48 30.0000000  0  7G12G29G10G04G05G25G02
 -27367075.60248 -21313423.21146  20636402.2584                   20636399.9224
   -174620.56246   -126445.83643  24262565.1414                   24262566.0664
 -25556839.09848 -19903677.49245  21593580.5004                   21593579.3204
 -22660817.52747 -17644864.46144  23398606.8524                   23398607.4804
 -27841068.91848 -21682389.50447  20309868.3984                   20309866.4344
 -14912949.75447 -11608826.48446  22131628.6094                   22131629.5704
 -31748310.95348 -24726839.16846  20817753.3834                   20817749.6524
 11  8 28  0 49  0.0000000  0  7G12G29G10G04G05G25G02
 -25813894.74648 -20103152.41446  20931962.7664                   20931960.7384
   1294057.54747   1017978.70344  24542045.9144                   24542046.3594
 -23935291.39148 -18640133.82445  21902150.8834                   21902149.3524
 -21030135.09047 -16374202.89544  23708915.7034                   23708915.9184
 -26325435.63748 -20501376.52747  20598283.6954                   20598282.1174
 -13422560.02047 -10447483.78946  22415240.5314                   22415241.4384
 -30173311.47348 -23499566.85946  21117466.0084                   21117461.5664
 11  8 28  0 49 30.0000000  0  7G12G29G10G04G05G25G02
 -25835533.73848 -20120013.96147  20927845.1174                   20927842.6764
   1187258.29747    934758.59444  24521722.5634                   24521722.6564
 -23888688.53948 -18603819.91845  21911019.1254                   21911017.3874
 -20974887.78147 -16331153.12144  23719428.8594                   23719429.6254
 -26384647.78148 -20547515.82047  20587016.2504                   20587014.2544
 -13507098.86347 -10513358.16846  22399153.3914                   22399153.7774
 -30173570.84448 -23499768.97746  21117416.3914                   21117412.3284
 11  8 28  0 50  0.0000000  0  7G12G29G10G04G05G25G02
 -25856571.40248 -20136406.95346  20923841.7194                   20923839.5084
   1080407.25847    851498.09444  24501390.1094                   24501390.0864
 -23841613.85947 -18567138.36345  21919977.2584                   21919975.9774
 -20919657.36347 -16288116.50844  23729938.7734                   23729939.5274
 -26443281.72348 -20593204.57847  20575858.1724                   20575856.2974
 -13591140.68448 -10578845.25846  22383160.3674                   22383161.0634
 -30173669.23848 -23499845.64846  21117397.6254                   21117393.8984
 11  8 28  0 50 30.0000000  0  7G12G29G10G04G05G25G02
 -25877008.62548 -20152332.05146  20919952.9534                   20919950.3984
    973503.95747    768196.89844  24481046.9454                   24481046.4264
 -23794070.83248 -18530091.86345  21929024.1094                   21929023.0004
 -20864445.46547 -16245094.31644  23740445.4064                   23740445.9534
 -26501337.71948 -20638442.98047  20564810.3524                   20564808.6214
 -13674684.30948 -10643944.14546  22367262.4774                   22367263.3094
 -30173608.39148 -23499798.24246  21117409.5784                   21117405.5354
 11  8 28  0 51  0.0000000  0  7G12G29G10G04G05G25G02
 -25896846.18448 -20167789.89546  20916177.5004                   20916175.3484
    866548.37547    684854.97344  24460693.9384                   24460693.1454
 -23746062.98448 -18492683.16045  21938160.1094                   21938158.4924
 -20809253.57447 -16202087.71144  23750948.1094                   23750948.2704
 -26558815.41048 -20683230.75847  20553872.7894                   20553870.9414
 -13757728.66847 -10708653.97746  22351459.7114                   22351460.4774
 -30173390.05948 -23499628.12546  21117451.0084                   21117446.8094
 11  8 28  0 51 30.0000000  0  7G12G29G10G04G05G25G02
 -25916084.40648 -20182780.71946  20912516.8594                   20912514.4774
    759541.01246    601472.67644  24440331.4614                   24440330.6884
 -23697592.88348 -18454914.25045  21947382.9774                   21947382.1954
 -20754082.69547 -16159097.46544  23761447.1954                   23761447.2074
 -26615714.20748 -20727567.45347  20543045.5474                   20543043.8134
 -13840271.89147 -10772973.31246  22335752.4144                   22335752.6484
 -30173015.48448 -23499336.25046  21117522.2274                   21117518.1374
 11  8 28  0 52  0.0000000  0  7G12G29G10G04G05G25G02
 -25934723.52348 -20197304.70746  20908969.7504                   20908967.5554
    652483.03146    518050.96944  24419958.4534                   24419958.3094
 -23648663.37548 -18416787.37145  21956694.5164                   21956692.8134
 -20698933.12947 -16116123.84044  23771941.5234                   23771941.8914
 -26672033.34448 -20771452.46547  20532328.1484                   20532326.4924
 -13922311.78948 -10836900.46546  22320140.4534                   22320141.3594
 -30172485.10948 -23498922.96946  21117622.9384                   21117618.9884
 11  8 28  0 52 30.0000000  0  7G12G29G10G04G05G25G02
 -25952764.35548 -20211362.49646  20905536.8284                   20905534.7734
    545374.19146    434589.60543  24399575.8834                   24399575.8954
 -23599278.13348 -18378305.37145  21966092.0084                   21966090.7274
 -20643806.66847 -16073168.19143  23782431.8054                   23782431.5274
 -26727772.94948 -20814885.88747  20521721.0004                   20521719.3054
 -14003847.59047 -10900434.81246  22304624.6644                   22304625.2624
 -30171801.03548 -23498389.94146  21117753.3834                   21117749.2814
 11  8 28  0 53  0.0000000  0  7G12G29G10G04G05G25G02
 -25970205.30148 -20224952.85246  20902218.1024                   20902215.6294
    438217.70746    351091.13743  24379184.5164                   24379184.5944
 -23549437.14547 -18339468.25045  21975576.5784                   21975575.1484
 -20588701.56247 -16030229.19143  23792918.1174                   23792918.1254
 -26782929.57048 -20857865.04347  20511224.9844                   20511223.4104
 -14084874.83647 -10963572.89146  22289205.6724                   22289206.6724
 -30170961.58648 -23497735.82846  21117912.9774                   21117909.3914
 11  8 28  0 53 30.0000000  0  7G12G29G10G04G05G25G02
 -25987049.36348 -20238078.10247  20899012.5784                   20899010.5594
    331011.70346    267554.05143  24358784.0634                   24358783.3324
 -23499145.88347 -18300280.27345  21985146.5704                   21985145.3014
 -20533621.04347 -15987309.34044  23803399.8444                   23803399.9024
 -26837505.49648 -20900391.70347  20500839.8754                   20500838.1214
 -14165394.28547 -11026315.27746  22273883.4844                   22273884.2584
 -30169970.57048 -23496963.61346  21118101.4924                   21118097.7894
 11  8 28  0 54  0.0000000  0  7G12G29G10G04G05G25G02
 -26003296.06248 -20250737.87146  20895921.0164                   20895918.9734
    223757.44546    183979.38343  24338374.0554                   24338373.6484
 -23448406.14847 -18260742.82845  21994802.1484                   21994800.6484
 -20478565.25447 -15944408.74643  23813876.5784                   23813876.3054
 -26891499.40248 -20942464.84847  20490564.9304                   20490563.0904
 -14245403.49248 -11088660.09046  22258658.2664                   22258658.6254
 -30168828.03948 -23496073.33246  21118318.8834                   21118314.8914
 11  8 28  0 54 30.0000000  0  7G12G29G10G04G05G25G02
 -26018944.76648 -20262931.68446  20892943.1644                   20892940.5824
    116456.89146    100368.59843  24317955.4224                   24317954.9104
 -23397220.03147 -18220857.55945  22004542.3444                   22004540.8204
 -20423533.77047 -15901527.09843  23824348.5554                   23824348.8524
 -26944909.61748 -20984083.16847  20480401.5234                   20480399.2774
 -14324899.54348 -11150605.04746  22243530.8444                   22243531.2464
 -30167533.93448 -23495064.94146  21118564.9614                   21118561.3014
 11  8 28  0 55  0.0000000  0  7G12G29G10G04G05G25G02
 -26033995.69948 -20274659.69546  20890078.9224                   20890076.9344
      9110.63747     16722.18443  24297528.2584                   24297527.6564
 -23345590.64547 -18180626.88345  22014367.2424                   22014365.7074
 -20368527.67647 -15858665.23444  23834815.6644                   23834816.1094
 -26997736.00048 -21025246.55947  20470348.7194                   20470347.5434
 -14403880.93048 -11212148.96546  22228501.1564                   22228501.6174
 -30166089.38348 -23493939.32046  21118839.9454                   21118835.9844
 11  8 28  0 55 30.0000000  0  7G12G29G10G04G05G25G02
 -26048450.02048 -20285922.81646  20887328.4774                   20887326.1414
    -98281.08247    -66959.62544  24277092.3204                   24277091.7464
 -23293521.03147 -18140053.17645  22024275.6644                   22024274.1134
 -20313547.96946 -15815823.91443  23845277.9844                   23845277.9774
 -27049978.03948 -21065954.60547  20460407.5554                   20460405.9694
 -14482346.34048 -11273290.82846  22213569.7194                   22213570.1524
 -30164495.65248 -23492697.45346  21119143.2664                   21119139.5864
 11  8 28  0 56  0.0000000  0  7G12G29G10G04G05G25G02
 -26062308.46948 -20296721.61746  20884691.3284                   20884688.9694
   -205717.66847   -150676.41444  24256648.0314                   24256647.6024
 -23241014.39147 -18099138.93745  22034267.3284                   22034265.7624
 -20258595.64546 -15773003.96943  23855734.8444                   23855735.8754
 -27101635.76248 -21106207.35247  20450577.4774                   20450575.6484
 -14560294.31248 -11334029.49646  22198736.6414                   22198736.8244
 -30162754.37548 -23491340.62146  21119474.6254                   21119470.8134
 11  8 28  0 56 30.0000000  0  7G12G29G10G04G05G25G02
 -26075572.46948 -20307057.22346  20882167.4614                   20882165.2304
   -313199.05147   -234428.08644  24236194.8674                   24236194.7814
 -23188073.77347 -18057886.52745  22044341.6954                   22044340.2504
 -20203672.05147 -15730206.37144  23866186.4144                   23866187.3524
 -27152709.12548 -21146004.74647  20440858.6334                   20440856.4804
 -14637723.73848 -11394364.12146  22184001.9844                   22184003.0164
 -30160867.06248 -23489869.99246  21119833.9534                   21119830.2734
 11  8 28  0 57  0.0000000  0  7G12G29G10G04G05G25G02
 -26088241.57848 -20316929.26646  20879756.2814                   20879754.2854
   -420723.55146   -318213.36744  24215733.4384                   24215732.5124
 -23134701.42247 -18016297.71145  22054498.0474                   22054496.6294
 -20148777.23846 -15687431.25043  23876632.9144                   23876633.3054
 -27203197.09048 -21185345.98847  20431250.7504                   20431248.8874
 -14714632.19548 -11454292.78946  22169366.7664                   22169367.3834
 -30158833.57048 -23488285.44546  21120220.7894                   21120216.7624
 11  8 28  0 57 30.0000000  0  7G12G29G10G04G05G25G02
 -26100316.52048 -20326338.32446  20877459.0004                   20877456.1724
   -528290.14146   -402031.43444  24195264.2114                   24195263.9924
 -23080900.23447 -17974374.73845  22064736.5554                   22064734.8674
 -20093911.59446 -15644678.82443  23887073.4454                   23887073.5594
 -27253099.13748 -21224230.67647  20421754.9924                   20421753.0004
 -14791017.83648 -11513814.06246  22154831.0634                   22154831.6134
 -30156654.66448 -23486587.60546  21120635.4224                   21120631.2974
 11  8 28  0 58  0.0000000  0  7G12G29G10G04G05G25G02
 -26111800.32048 -20335286.75446  20875273.3984                   20875271.0944
   -635900.99246   -485883.98044  24174786.4454                   24174786.0864
 -23026675.81648 -17932121.97345  22075055.0864                   22075053.4884
 -20039078.49646 -15601951.78543  23897508.1414                   23897508.0984
 -27302417.55948 -21262660.58247  20412369.7114                   20412367.7504
 -14866881.70348 -11572928.77346  22140394.6644                   22140395.2344
 -30154333.94148 -23484779.25046  21121077.1254                   21121072.9804
 11  8 28  0 58 30.0000000  0  7G12G29G10G04G05G25G02
 -26122691.46148 -20343773.37146  20873201.0004                   20873198.5944
   -743553.44546   -569768.94944  24154300.7584                   24154300.7424
 -22972028.48447 -17889539.66045  22085453.6954                   22085452.4024
 -19984276.32046 -15559248.83644  23907936.3054                   23907936.7194
 -27351149.60248 -21300633.57047  20403096.4384                   20403094.4964
 -14942219.93048 -11631633.89846  22126058.5864                   22126058.8244
 -30151870.46948 -23482859.66846  21121545.8674                   21121541.5474
 11  8 28  0 59  0.0000000  0  7G12G29G10G04G05G25G02
 -26132987.47748 -20351796.25046  20871241.8284                   20871239.1524
   -851242.72346   -653682.58244  24133807.3364                   24133807.6954
 -22916958.15247 -17846627.75045  22095933.3284                   22095931.9224
 -19929502.65246 -15516568.09043  23918359.7584                   23918359.8014
 -27399292.12948 -21338147.19947  20393935.1414                   20393932.9654
 -15017027.77347 -11689925.73046  22111822.8524                   22111823.5314
 -30149261.78548 -23480826.93046  21122042.4694                   21122038.5124
 11  8 28  0 59 30.0000000  0  7G12G29G10G04G05G25G02
 -26142690.79748 -20359357.28546  20869395.1254                   20869393.0824
   -958970.28946   -737626.01644  24113308.0084                   24113307.9344
 -22861469.72747 -17803390.05545  22106492.7194                   22106490.7974
 -19874760.01246 -15473911.52744  23928776.2274                   23928777.2934
 -27446846.49248 -21375202.52047  20384885.9454                   20384883.5864
 -15091305.69147 -11747804.63746  22097688.1884                   22097688.6724
 -30146510.91848 -23478683.40246  21122565.9774                   21122561.8134
 11  8 28  1  0  0.0000000  0  7G12G29G10G04G05G25G02
 -26151804.21148 -20366458.65247  20867661.3444                   20867658.8524
  -1066736.66446   -821599.76644  24092800.7424                   24092800.6294
 -22805567.53947 -17759829.93745  22117130.6024                   22117129.1374
 -19820050.61746 -15431280.87144  23939188.1724                   23939188.5984
 -27493814.06248 -21411800.59847  20375948.1564                   20375945.8484
 -15165053.51248 -11805270.47346  22083654.3594                   22083655.0664
 -30143620.04348 -23476430.77746  21123116.0784                   21123111.9064
 11  8 28  1  0 30.0000000  0  7G12G29G10G04G05G25G02
 -26160327.33248 -20373100.05946  20866039.0784                   20866036.7274
  -1174540.37946   -905602.57044  24072285.8834                   24072285.8794
 -22749254.12548 -17715949.38345  22127847.0004                   22127845.0434
 -19765374.75847 -15388676.33644  23949592.1804                   23949593.1844
 -27540193.90648 -21447940.71147  20367122.1484                   20367120.1054
 -15238269.09047 -11862321.58246  22069722.1484                   22069722.4844
 -30140589.81648 -23474069.56646  21123692.2424                   21123688.3134
 11  8 28  1  1  0.0000000  0  7G12G29G10G04G05G25G02
 -26168261.60248 -20379282.60946  20864529.5164                   20864526.9534
  -1282381.41047   -989634.48844  24051765.0314                   24051764.2854
 -22692533.11747 -17671751.24245  22138640.7664                   22138639.2464
 -19710733.66446 -15346098.91044  23959990.3524                   23959990.9104
 -27585986.65248 -21483623.34447  20358408.3834                   20358406.2544
 -15310951.74647 -11918957.42646  22055891.1484                   22055891.7304
 -30137421.52748 -23471600.77746  21124295.2974                   21124291.4414
 11  8 28  1  1 30.0000000  0  7G12G29G10G04G05G25G02
 -26175605.79348 -20385005.36746  20863131.6094                   20863129.2544
  -1390256.19147  -1073692.70344  24031237.0784                   24031236.7274
 -22635404.66847 -17627235.60545  22149511.5784                   22149510.7424
 -19656125.25846 -15303546.94543  23970382.1174                   23970382.0784
 -27631189.37148 -21518846.21547  20349806.7034                   20349804.3674
 -15383097.31248 -11975174.75446  22042162.3524                   22042162.8244
 -30134113.37148 -23469023.01646  21124924.8594                   21124921.0354
 11  8 28  1  2  0.0000000  0  7G12G29G10G04G05G25G02
 -26182361.98048 -20390269.92646  20861846.3444                   20861843.7034
  -1498165.65647  -1157777.92644  24010702.8444                   24010702.2934
 -22577873.30947 -17582406.00845  22160459.0944                   22160457.5044
 -19601551.93746 -15261022.33244  23980767.2034                   23980767.3284
 -27675803.73448 -21553610.62947  20341316.6254                   20341314.3554
 -15454706.12548 -12030973.82446  22028535.5784                   22028535.8674
 -30130668.54348 -23466338.74246  21125580.2344                   21125576.5354
 11  8 28  1  2 30.0000000  0  7G12G29G10G04G05G25G02
 -26188529.96948 -20395076.16046  20860672.1884                   20860669.8634
  -1606108.07847  -1241888.84044  23990162.2664                   23990161.2384
 -22519941.02747 -17537264.02745  22171483.7274                   22171482.4654
 -19547013.22346 -15218524.69144  23991145.7814                   23991145.5634
 -27719828.67248 -21587915.74647  20332938.8364                   20332936.7854
 -15525775.53948 -12086352.58646  22015011.3054                   22015012.4104
 -30127086.61748 -23463547.64146  21126261.9534                   21126257.9184
 11  8 28  1  3  0.0000000  0  7G12G29G10G04G05G25G02
 -26194113.32048 -20399426.82446  20859609.8594                   20859607.4844
  -1714084.44147  -1326026.18744  23969614.6174                   23969613.8014
 -22461612.95747 -17491813.62945  22182583.2664                   22182581.6374
 -19492511.71546 -15176056.03544  24001516.3204                   24001517.2734
 -27763265.43748 -21621762.55147  20324672.9924                   20324671.2814
 -15596306.14548 -12141311.48846  22001589.6954                   22001590.6414
 -30123370.40648 -23460651.90246  21126969.1724                   21126965.6484
 11  8 28  1  3 30.0000000  0  7G12G29G10G04G05G25G02
 -26199111.58648 -20403321.58246  20858658.7894                   20858656.6414
  -1822093.19947  -1410188.77044  23949061.2814                   23949060.8634
 -22402891.17247 -17446056.43745  22193757.6024                   22193756.3204
 -19438047.25846 -15133616.27044  24011881.0394                   24011881.7384
 -27806113.70348 -21655150.78147  20316519.4844                   20316517.3134
 -15666295.82448 -12195848.89146  21988271.4844                   21988272.0704
 -30119519.96948 -23457651.57446  21127701.9844                   21127698.2114
 11  8 28  1  4  0.0000000  0  7G12G29G10G04G05G25G02
 -26203526.77048 -20406761.98446  20857818.4304                   20857816.3054
  -1930134.25847  -1494376.52744  23928501.9144                   23928501.1914
 -22343779.22747 -17399995.22745  22205006.3984                   22205004.3984
 -19383621.26646 -15091206.44943  24022237.8674                   24022238.3054
 -27848374.37948 -21688081.14547  20308477.5084                   20308475.1844
 -15735744.01648 -12249964.34446  21975055.5234                   21975056.6374
 -30115537.02048 -23454547.99246  21128459.9844                   21128456.4184
 11  8 28  1  4 30.0000000  0  7G12G29G10G04G05G25G02
 -26207357.51248 -20409746.98446  20857089.7974                   20857086.9344
  -2038204.41847  -1578586.96544  23907936.3524                   23907935.4144
 -22284278.29347 -17353630.90245  22216329.2584                   22216327.8484
 -19329232.05146 -15048825.27043  24032587.9924                   24032588.3954
 -27890045.24648 -21720551.92647  20300547.8594                   20300545.3164
 -15804647.06647 -12303655.00446  21961944.3594                   21961944.6954
 -30111420.06248 -23451339.98846  21129243.6804                   21129239.4494
 11  8 28  1  5  0.0000000  0  7G12G29G10G04G05G25G02
 -26210605.16448 -20412277.62946  20856471.3594                   20856468.9884
  -2146302.89847  -1662819.44144  23887365.6254                   23887365.0594
 -22224391.28547 -17306965.75045  22227724.9064                   22227723.9734
 -19274880.50846 -15006473.47343  24042930.6024                   24042930.8714
 -27931126.27748 -21752563.08647  20292730.1484                   20292728.0784
 -15873003.92248 -12356920.07046  21948935.9614                   21948936.6564
 -30107170.60948 -23448028.74646  21130052.0784                   21130048.4024
 11  8 28  1  5 30.0000000  0  7G12G29G10G04G05G25G02
 -26213273.23848 -20414356.65646  20855964.0944                   20855961.3674
  -2254431.63347  -1747075.52344  23866789.4224                   23866789.1954
 -22164123.74647 -17260004.07445  22239193.4774                   22239192.2544
 -19220569.80146 -14964153.46143  24053265.8054                   24053266.2774
 -27971620.04748 -21784116.64847  20285024.6334                   20285022.2664
 -15940815.83648 -12409760.49646  21936031.7734                   21936032.7304
 -30102791.89547 -23444616.77346  21130885.3054                   21130881.2934
 11  8 28  1  6  0.0000000  0  7G12G29G10G04G05G25G02
 -26215360.83648 -20415983.35546  20855566.7114                   20855564.3364
  -2362587.24247  -1831352.53144  23846208.4144                   23846206.9454
 -22103476.70747 -17212746.68745  22250734.5164                   22250732.9104
 -19166298.53146 -14921864.19143  24063593.4454                   24063593.3204
 -28011524.79348 -21815211.23047  20277430.9694                   20277428.7934
 -16008079.45747 -12462173.67646  21923231.8594                   21923232.7734
 -30098282.67248 -23441103.10546  21131743.4224                   21131739.8524
 11  8 28  1  6 30.0000000  0  7G12G29G10G04G05G25G02
 -26216870.01648 -20417159.34846  20855279.4534                   20855276.9964
  -2470770.06247  -1915650.78544  23825621.9144                   23825620.2734
 -22042454.21947 -17165196.74645  22262346.6884                   22262345.0824
 -19112068.15646 -14879606.82843  24073913.3054                   24073913.8244
 -28050841.10248 -21845847.28947  20269949.1024                   20269947.3324
 -16074794.68748 -12514159.55146  21910536.6174                   21910537.6484
 -30093644.96148 -23437489.31246  21132626.0634                   21132621.4964
 11  8 28  1  7  0.0000000  0  7G12G29G10G04G05G25G02
 -26217801.25448 -20417884.99246  20855102.4774                   20855100.0784
  -2578978.69147  -1999969.14844  23805030.4774                   23805029.5744
 -21981058.69547 -17117356.09845  22274029.6564                   22274027.6094
 -19057878.77346 -14837381.41443  24084224.7974                   24084225.3714
 -28089569.30548 -21876025.08647  20262579.7034                   20262577.3634
 -16140959.68748 -12565716.67246  21897945.6884                   21897946.3244
 -30088879.12948 -23433775.68746  21133532.8284                   21133528.9064
 11  8 28  1  7 30.0000000  0  7G12G29G10G04G05G25G02
 -26218157.00048 -20418162.22346  20855034.7734                   20855032.2704
  -2687212.71547  -2084307.28544  23784433.9304                   23784433.2664
 -21919293.96147 -17069227.75845  22285783.3674                   22285781.5864
 -19003731.71146 -14795188.94943  24094528.5474                   24094528.6214
 -28127709.88348 -21905744.98847  20255321.4304                   20255319.6524
 -16206573.91448 -12616844.61746  21885459.3204                   21885460.3244
 -30083986.59448 -23429963.33246  21134464.2974                   21134459.8554
 11  8 28  1  8  0.0000000  0  7G12G29G10G04G05G25G02
 -26217937.23848 -20417990.98046  20855076.2974                   20855073.8324
  -2795470.36347  -2168663.84844  23763832.9064                   23763831.6214
 -21857162.47747 -17020813.64545  22297606.9924                   22297605.4924
 -18949626.60246 -14753029.19543  24104824.1414                   24104824.4774
 -28165262.35548 -21935006.62547  20248175.5394                   20248173.4804
 -16271635.37547 -12667541.84446  21873079.0474                   21873079.9224
 -30078967.47348 -23426052.34446  21135419.2814                   21135415.0704
 11  8 28  1  8 30.0000000  0  7G12G29G10G04G05G25G02
 -26217143.25448 -20417372.30546  20855227.6254                   20855225.2664
  -2903750.87947  -2253038.21944  23743227.7344                   23743227.2154
 -21794667.05147 -16972115.94145  22309498.7894                   22309497.6484
 -18895564.07446 -14710902.60543  24115112.1724                   24115112.8054
 -28202226.72748 -21963810.00847  20241141.5314                   20241139.1454
 -16336142.87148 -12717807.40246  21860803.7114                   21860804.1804
 -30073822.53548 -23422043.30146  21136398.2344                   21136394.5084
 11  8 28  1  9  0.0000000  0  8G12G29G26G10G04G05G25G02
 -26215777.16848 -20416307.82846  20855487.5784                   20855485.0084
  -3012054.45747  -2337430.56644  23722618.1254                   23722617.5744
   2979914.06356   2332517.98053  24797415.1724                   24797418.2034
 -21731812.05147 -16923138.06245  22321459.8914                   22321458.5744
 -18841545.68446 -14668810.39143  24125391.9844                   24125391.8364
 -28238604.62148 -21992156.39147  20234219.0314                   20234217.0744
 -16400096.57848 -12767641.44546  21848633.9144                   21848634.3524
 -30068553.85948 -23417937.85246  21137400.4924                   21137396.8094
 11  8 28  1  9 30.0000000  0  8G12G29G26G10G04G05G25G02
 -26213847.05948 -20414803.85546  20855854.5084                   20855852.3674
  -3120386.66447  -2421845.19544  23702003.3284                   23702002.5164
   2863520.36746   2241821.95343  24775266.2344                   24775268.3594
 -21668606.81247 -16873887.25045  22333487.2274                   22333486.0514
 -18787578.84046 -14626758.29343  24135661.8054                   24135661.8794
 -28274403.03948 -22020051.24647  20227406.6564                   20227404.6954
 -16463501.93448 -12817048.19946  21836568.0474                   21836568.7384
 -30063169.01648 -23413741.87546  21138425.4534                   21138421.8874
 11  8 28  1 10  0.0000000  0  8G12G29G26G10G04G05G25G02
 -26211358.75848 -20412864.93046  20856328.1414                   20856325.6994
  -3228750.64847  -2506284.60944  23681382.4454                   23681382.0864
   2746985.13346   2151015.62543  24753090.2034                   24753094.0274
 -21605058.47747 -16824369.10545  22345580.5784                   22345579.1884
 -18733668.11746 -14584749.99243  24145920.2274                   24145921.1254
 -28309626.12148 -22047497.77347  20220704.0704                   20220701.7464
 -16526361.99648 -12866030.04746  21824605.8674                   21824606.6844
 -30057672.96948 -23409459.24646  21139471.5004                   21139467.6414
 11  8 28  1 10 30.0000000  0  8G12G29G26G10G04G05G25G02
 -26208309.25448 -20410488.70346  20856908.7664                   20856906.5394
  -3337141.62147  -2590745.03544  23660756.5634                   23660755.6994
   2630314.68446   2060103.91843  24730888.7194                   24730891.1054
 -21541166.44147 -16774583.11745  22357738.3914                   22357736.8794
 -18679809.98446 -14542782.66843  24156169.6334                   24156169.5234
 -28344270.35548 -22074493.25447  20214111.4614                   20214109.3484
 -16588671.80148 -12914583.13746  21812749.1954                   21812749.5004
 -30052062.44548 -23405087.40646  21140538.9774                   21140534.5634
 11  8 28  1 11  0.0000000  0  8G12G29G26G10G04G05G25G02
 -26204697.67247 -20407674.49246  20857596.0634                   20857593.3674
  -3445556.15247  -2675223.84444  23640126.0554                   23640124.7234
   2513513.88746   1969090.66043  24708661.3984                   24708664.4184
 -21476931.57847 -16724530.00445  22369962.2504                   22369960.5044
 -18626002.97746 -14500855.18444  24166408.3364                   24166409.1414
 -28378333.91448 -22101036.25447  20207629.2584                   20207627.2194
 -16650428.08248 -12962704.90246  21800997.3754                   21800997.0864
 -30046336.33648 -23400625.50446  21141628.4454                   21141624.8134
 11  8 28  1 11 30.0000000  0  8G12G29G26G10G04G05G25G02
 -26200522.50847 -20404421.13346  20858390.3134                   20858387.9734
  -3553990.47747  -2759718.05144  23619491.2664                   23619490.5594
   2396588.37546   1877980.22743  24686411.7034                   24686413.2344
 -21412354.24647 -16674210.05145  22382250.9774                   22382249.5004
 -18572244.60247 -14458965.59044  24176638.3444                   24176639.7304
 -28411814.32448 -22127124.85947  20201258.3284                   20201256.2234
 -16711626.95748 -13010392.33246  21789351.3914                   21789351.9064
 -30040492.30147 -23396071.71546  21142740.5944                   21142736.8524
 11  8 28  1 12  0.0000000  0  8G12G29G26G10G04G05G25G02
 -26195784.03948 -20400728.82446  20859292.1094                   20859289.4494
  -3662442.19147  -2844225.83644  23598853.0084                   23598852.4654
   2279541.93846   1786775.54343  24664137.0634                   24664139.6524
 -21347436.02347 -16623624.44545  22394604.2664                   22394603.1484
 -18518534.18447 -14417113.37944  24186859.4774                   24186859.4694
 -28444710.41048 -22152758.14847  20194998.3914                   20194995.8244
 -16772266.12948 -13057643.62546  21777812.1644                   21777812.5554
 -30034529.75848 -23391425.58246  21143875.3054                   21143871.5124
 11  8 28  1 12 30.0000000  0  8G12G29G26G10G04G05G25G02
 -26190484.48847 -20396599.31246  20860300.8284                   20860298.0124
  -3770911.42647  -2928747.24244  23578212.4924                   23578211.9024
   2162376.80546   1695478.33243  24641841.2504                   24641844.2034
 -21282180.73047 -16572776.19945  22407022.3444                   22407021.1804
 -18464872.95347 -14375299.46944  24197070.6094                   24197071.1764
 -28477023.33248 -22177937.03147  20188849.1414                   20188847.3794
 -16832345.42248 -13104458.64846  21766379.3984                   21766379.8164
 -30028450.63747 -23386688.59846  21145032.3594                   21145028.0004
 11  8 28  1 13  0.0000000  0  8G12G29G26G10G04G05G25G02
 -26184623.59447 -20392032.39146  20861415.5634                   20861413.4574
  -3879394.92247  -3013279.79344  23557568.8134                   23557568.4344
   2045097.04746   1604091.81343  24619523.3914                   24619525.9024
 -21216589.85547 -16521666.45345  22419503.9924                   22419502.0204
 -18411259.57447 -14333522.84844  24207272.7114                   24207273.5354
 -28508752.64548 -22202661.14147  20182811.3054                   20182809.0314
 -16891862.08248 -13150835.26246  21755053.4844                   21755054.0274
 -30022253.95347 -23381860.01646  21146211.2814                   21146207.5084
 11  8 28  1 13 30.0000000  0  8G12G29G26G10G04G05G25G02
 -26178202.03947 -20387028.59046  20862638.0164                   20862635.4184
  -3987891.17647  -3097822.26644  23536921.7584                   23536921.5824
   1927705.98846   1512618.54342  24597184.5394                   24597186.5164
 -21150665.52747 -16470296.87145  22432048.7194                   22432047.2934
 -18357693.96547 -14291783.43743  24217465.7814                   24217467.0744
 -28539897.66448 -22226929.96547  20176885.0164                   20176882.7544
 -16950814.59848 -13196772.28146  21743835.1254                   21743835.9694
 -30015939.69547 -23376939.80546  21147412.6954                   21147409.0904
 11  8 28  1 14  0.0000000  0  8G12G29G26G10G04G05G25G02
 -26171220.96947 -20381588.80146  20863966.5164                   20863964.0744
  -4096399.14147  -3182373.86344  23516273.8134                   23516273.0274
   1810206.35946   1421060.71143  24574825.0784                   24574826.7584
 -21084410.77746 -16418669.80145  22444656.3754                   22444654.7154
 -18304176.67647 -14250081.68743  24227650.4534                   24227650.2544
 -28570458.71948 -22250743.75447  20171069.0234                   20171066.6764
 -17009202.07848 -13242269.00446  21732724.4924                   21732724.8954
 -30009508.74647 -23371928.67646  21148636.4384                   21148632.6054
 11  8 28  1 14 30.0000000  0  8G12G29G26G10G04G05G25G02
 -26163682.87148 -20375714.96546  20865400.4534                   20865398.4774
  -4204917.81247  -3266933.80944  23495623.3204                   23495622.9694
   1692600.78945   1329420.27743  24552444.8364                   24552446.9304
 -21017828.95746 -16366787.89145  22457326.2974                   22457325.5594
 -18250708.08246 -14208417.89843  24237824.0314                   24237824.8014
 -28600436.85248 -22274103.30947  20165364.3134                   20165362.0664
 -17067023.78948 -13287324.88746  21721721.3754                   21721722.3364
 -30002962.19547 -23366827.46946  21149882.3364                   21149878.3164
 11  8 28  1 15  0.0000000  0  8G12G29G26G10G04G05G25G02
 -26155588.59847 -20369407.75446  20866940.7734                   20866939.0084
  -4313445.85547  -3351501.06244  23474971.4144                   23474970.0164
   1574892.23046   1237699.64543  24530045.9924                   24530047.0004
 -20950923.07447 -16314653.45745  22470058.4304                   22470056.7194
 -18197288.44946 -14166792.25443  24247990.1724                   24247991.1024
 -28629831.96148 -22297008.56647  20159770.8364                   20159768.4924
 -17124278.59048 -13331939.00446  21710826.1724                   21710826.8444
 -29996300.39147 -23361636.44546  21151150.2424                   21151146.4064
 11  8 28  1 15 30.0000000  0  8G12G29G26G10G04G05G25G02
 -26146938.42648 -20362667.36346  20868586.8674                   20868584.9694
  -4421981.05547  -3436073.87944  23454317.2274                   23454317.1414
   1457084.71146   1145901.85943  24507627.3754                   24507629.3134
 -20883694.97346 -16262267.93044  22482851.4304                   22482850.0124
 -18143917.03947 -14125204.16843  24258146.8674                   24258147.6684
 -28658643.55948 -22319459.14147  20154288.3834                   20154285.6954
 -17180964.35548 -13376109.71946  21700039.1024                   21700039.9264
 -29989522.50847 -23356354.98046  21152439.9694                   21152435.5234
 11  8 28  1 16  0.0000000  0  8G12G29G26G10G04G05G25G02
 -26137734.19948 -20355495.25046  20870338.7424                   20870336.3524
  -4530522.64847  -3520651.71145  23433663.0164                   23433662.5864
   1339180.65246   1054028.86743  24485191.1414                   24485192.9694
 -20816147.93447 -16209633.89845  22495704.9924                   22495704.1484
 -18090594.73046 -14083654.34443  24268293.3444                   24268293.7734
 -28686872.38348 -22341455.59847  20148916.1724                   20148914.1684
 -17237080.73447 -13419836.75046  21689360.6954                   21689361.4224
 -29982629.71547 -23350983.97346  21153751.4454                   21153747.8014
 11  8 28  1 16 30.0000000  0  8G12G29G26G10G04G05G25G02
 -26127979.50448 -20347894.19946  20872195.0084                   20872192.6724
  -4639071.30947  -3605235.02345  23413007.1884                   23413005.8324
   1221181.25446    962081.62143  24462736.0474                   24462737.5434
 -20748286.82446 -16156755.13344  22508618.6484                   22508617.9774
 -18037323.69547 -14042144.50043  24278430.8674                   24278431.5394
 -28714521.07448 -22363000.01247  20143654.9774                   20143652.8014
 -17292628.60248 -13463120.78946  21678790.3364                   21678790.8444
 -29975624.62148 -23345525.44946  21155084.4614                   21155080.3204
 11  8 28  1 17  0.0000000  0  8G12G29G26G10G04G05G25G02
 -26117673.81248 -20339863.80146  20874155.9774                   20874153.7774
  -4747623.61746  -3689821.18445  23392349.9304                   23392349.6604
   1103090.99946    870063.58243  24440263.3914                   24440265.3444
 -20680112.32047 -16103632.17244  22521592.0784                   22521591.1684
 -17984101.96146 -14000673.06643  24288558.2424                   24288559.2234
 -28741588.08248 -22384091.16447  20138504.2814                   20138501.6134
 -17347605.00847 -13505959.53946  21668328.4844                   21668329.1684
 -29968506.13347 -23339978.57846  21156438.9774                   21156435.3484
 11  8 28  1 17 30.0000000  0  8G12G29G26G10G04G05G25G02
 -26106818.86748 -20331405.40246  20876221.4534                   20876219.4384
  -4856178.48846  -3774409.34444  23371692.6414                   23371691.4534
    984913.03946    777977.13343  24417774.9774                   24417776.2814
 -20611627.96146 -16050267.75844  22534624.3524                   22534622.5864
 -17930930.28546 -13959240.62943  24298676.4614                   24298676.9224
 -28768073.95748 -22404729.48047  20133463.9304                   20133461.7034
 -17402009.39847 -13548352.56246  21657975.8834                   21657976.3954
 -29961274.83247 -23334343.80146  21157815.4924                   21157811.2074
 11  8 28  1 18  0.0000000  0  8G12G29G26G10G04G05G25G02
 -26095415.89848 -20322519.99246  20878391.3054                   20878389.2154
  -4964734.69946  -3858998.54744  23351034.6724                   23351033.7114
    866649.96146    685824.35243  24395270.1804                   24395272.2934
 -20542836.69947 -15996664.20344  22547714.6724                   22547713.5124
 -17877808.84046 -13917847.34043  24308785.4064                   24308785.8594
 -28793979.62948 -22424915.69947  20128534.2504                   20128531.8834
 -17455840.84047 -13590299.12546  21647732.1564                   21647732.2114
 -29953931.27747 -23328621.54346  21159212.3054                   21159208.7114
 11  8 28  1 18 30.0000000  0  8G12G29G26G10G04G05G25G02
 -26083466.80548 -20313209.02346  20880665.3984                   20880663.0004
  -5073291.59446  -3943588.31244  23330377.2584                   23330375.7424
    748304.32446    593607.26244  24372749.7734                   24372751.4884
 -20473741.84847 -15942824.09444  22560863.2424                   22560862.3634
 -17824738.10246 -13876493.56642  24318884.8054                   24318885.0354
 -28819305.67248 -22444650.25847  20123715.0944                   20123712.7074
 -17509099.03948 -13631799.00446  21637597.1804                   21637597.6844
 -29946476.66847 -23322812.75446  21160631.1644                   21160627.4414
 11  8 28  1 19  0.0000000  0  8G12G29G26G10G04G05G25G02
 -26070973.91848 -20303474.30946  20883042.6804                   20883040.5864
  -5181847.51646  -4028177.28944  23309719.0554                   23309718.7274
    629878.93447    501328.01243  24350214.4924                   24350215.9144
 -20404345.96546 -15888749.39844  22574068.3754                   22574067.3554
 -17771718.57446 -13835179.69942  24328973.5634                   24328973.9804
 -28844053.04748 -22463933.89547  20119005.4844                   20119003.1334
 -17561783.10947 -13672851.52046  21627571.8984                   21627572.0354
 -29938911.49648 -23316917.81246  21162070.9774                   21162066.8094
 11  8 28  1 19 30.0000000  0  8G12G29G26G10G04G05G25G02
 -26057938.19148 -20293316.61346  20885523.3594                   20885520.9344
  -5290401.21946  -4112764.58644  23289062.2974                   23289061.3404
    511377.09846    408989.19144  24327663.7194                   24327664.4694
 -20334652.18046 -15834442.59444  22587330.4694                   22587330.0274
 -17718750.40646 -13793905.85542  24339053.7734                   24339052.9804
 -28868221.91448 -22482766.75847  20114406.3444                   20114404.0744
 -17613892.12947 -13713455.93446  21617655.8674                   21617656.1884
 -29931235.84847 -23310936.79346  21163531.7664                   21163527.4304
 11  8 28  1 20  0.0000000  0  8G12G29G26G10G04G05G25G02
 -26044362.24248 -20282737.96146  20888106.9924                   20888104.7154
  -5398952.02747  -4197349.64844  23268406.6564                   23268404.7424
    392801.06646    316592.54343  24305099.7894                   24305100.1054
 -20264664.26246 -15779906.57844  22600649.4844                   22600648.8594
 -17665834.60246 -13752672.77043  24349123.3444                   24349122.4264
 -28891813.79348 -22501150.00847  20109916.9694                   20109914.6524
 -17665426.22347 -13753612.36746  21607849.3054                   21607849.2584
 -29923451.45347 -23304871.02346  21165012.8984                   21165009.1844
 11  8 28  1 20 30.0000000  0  8G12G29G26G10G04G05G25G02
 -26030247.61748 -20271739.55546  20890792.7274                   20890790.4264
  -5507498.53547  -4281931.32844  23247750.7114                   23247749.6374
    274154.13746    224140.62543  24282521.2584                   24282522.6604
 -20194384.85946 -15725143.43445  22614022.9454                   22614022.5354
 -17612970.91847 -13711480.32843  24359182.6024                   24359183.7114
 -28914829.49248 -22519084.30547  20105537.4304                   20105534.6764
 -17716384.32847 -13793319.97746  21598152.1484                   21598152.6334
 -29915558.47747 -23298720.65646  21166514.7974                   21166510.6804
 11  8 28  1 21  0.0000000  0  8G12G29G26G10G04G05G25G02
 -24440176.00848 -19032722.73446  21193373.4454                   21193371.2114
  -4040615.51247  -3138905.59445  23526888.9384                   23526888.1134
   1730863.17646   1359238.82443  24559723.3754                   24559725.1024
 -18548398.74246 -14442556.89545  22927244.0164                   22927243.5234
 -15984741.34047 -12442730.00443  24669024.2734                   24669024.5704
 -27361848.51248 -21308969.22747  20401059.7664                   20401057.2934
 -16191343.91847 -12604976.79346  21888357.9384                   21888358.1254
 -28332137.44947 -22064886.08246  21467829.3284                   21467825.7774
 11  8 28  1 21 30.0000000  0  8G12G29G26G10G04G05G25G02
 -24424988.71148 -19020888.48046  21196263.4534                   21196261.0514
  -4149149.77347  -3223477.73445  23506235.7274                   23506234.7544
   1612082.57446   1266682.75843  24537120.7194                   24537121.6564
 -18477545.19547 -14387346.37544  22940727.0394                   22940725.8094
 -15931983.36346 -12401619.94543  24679064.0474                   24679065.1134
 -27383714.10247 -21326007.32847  20396899.0314                   20396896.3874
 -16241148.51247 -12643785.55546  21878879.9614                   21878880.5554
 -28324029.17248 -22058567.94546  21469372.5704                   21469368.8094
 11  8 28  1 22  0.0000000  0  8G12G29G26G10G04G05G25G02
 -24409268.36748 -19008638.87146  21199254.6804                   21199252.4964
  -4257676.09447  -3308043.66445  23485584.0554                   23485582.9804
   1493239.35246   1174077.90243  24514504.2034                   24514506.2274
 -18406409.26247 -14331915.82044  22954263.5864                   22954262.5634
 -15879278.91047 -12360551.58643  24689093.3134                   24689094.4224
 -27405005.71148 -21342598.16847  20392847.2894                   20392844.8284
 -16290375.54348 -12682144.27746  21869512.5704                   21869512.8204
 -28315814.48447 -22052166.89146  21470935.7194                   21470931.8874
 11  8 28  1 22 30.0000000  0  8G12G29G26G10G04G05G25G02
 -24393018.22748 -18995976.43046  21202347.4694                   21202344.7384
  -4366194.66447  -3392603.52345  23464932.8364                   23464933.0944
   1374334.74246   1081425.17243  24491877.4844                   24491879.0164
 -18334995.87947 -14276269.04744  22967853.1254                   22967851.7504
 -15826629.73446 -12319526.30943  24699111.9144                   24699112.8914
 -27425726.18447 -21358743.97347  20388904.1414                   20388901.6884
 -16339026.15247 -12720053.84046  21860254.7114                   21860254.7464
 -28307495.32047 -22045684.43046  21472519.1254                   21472515.3324
 11  8 28  1 23  0.0000000  0  8G12G29G26G10G04G05G25G02
 -24376237.69948 -18982900.69946  21205540.7344                   21205538.1094
  -4474702.27346  -3477154.85945  23444284.1954                   23444284.4144
   1255374.15246    988728.85543  24469239.8984                   24469240.8834
 -18263306.05947 -14220406.89144  22981495.1414                   22981493.9184
 -15774034.06246 -12278542.70743  24709120.6334                   24709121.7384
 -27445874.07048 -21374443.59847  20385070.1484                   20385067.7384
 -16387097.89848 -12757512.33246  21851106.9534                   21851107.3594
 -28299070.84047 -22039119.88746  21474122.4694                   21474117.6994
 11  8 28  1 23 30.0000000  0  8G12G29G26G10G04G05G25G02
 -24358930.21948 -18969414.36346  21208833.6884                   21208831.5314
  -4583198.84846  -3561697.57445  23423637.7894                   23423637.9384
   1136359.24646    895990.17643  24446591.3754                   24446593.1484
 -18191343.50846 -14164332.21544  22995189.1254                   22995188.1214
 -15721493.19947 -12237601.84443  24719119.5314                   24719119.9224
 -27465451.48448 -21389698.69947  20381344.7274                   20381342.0354
 -16434591.09048 -12794520.01246  21842069.3984                   21842069.8554
 -28290542.02047 -22032474.06646  21475745.3524                   21475741.6994
 11  8 28  1 24  0.0000000  0  8G12G29G26G10G04G05G25G02
 -24341097.08248 -18955518.41846  21212227.4224                   21212225.1914
  -4691681.88746  -3646229.74645  23402994.7424                   23402994.4694
   1017294.09846    803212.35243  24423934.4614                   24423934.6254
 -18119110.27746 -14108046.60544  23008935.0234                   23008934.0704
 -15669006.51246 -12196703.25443  24729107.3054                   24729107.9924
 -27484458.27048 -21404509.16447  20377727.4844                   20377724.9344
 -16481504.32048 -12831075.77046  21833142.2194                   21833142.4654
 -28281908.60548 -22025746.72346  21477387.7344                   21477383.6764
 11  8 28  1 24 30.0000000  0  8G12G29G26G10G04G05G25G02
 -24322737.74648 -18941212.44946  21215721.1334                   21215718.8364
  -4800148.16446  -3730748.89845  23382354.8984                   23382353.8754
    898183.24246    710398.88343  24401268.0314                   24401269.3444
 -18046607.75046 -14051551.16844  23022731.6884                   23022730.4344
 -15616572.37546 -12155845.52043  24739085.1954                   24739086.3094
 -27502893.80547 -21418874.49247  20374219.4924                   20374217.2774
 -16527835.43048 -12867177.92246  21824325.1884                   21824325.7814
 -28273169.51648 -22018937.04746  21479051.0864                   21479047.0354
 11  8 28  1 25  0.0000000  0  8G12G29G26G10G04G05G25G02
 -24303856.77048 -18926500.00846  21219313.8204                   21219311.6684
  -4908598.99247  -3815255.99245  23361716.3754                   23361715.8954
    779027.07446    617550.16843  24378593.1094                   24378594.5554
 -17973841.55546 -13994850.28544  23036578.1484                   23036577.6414
 -15564193.88746 -12115031.19943  24749052.8914                   24749052.1764
 -27520761.76648 -21432797.56247  20370819.2664                   20370816.9304
 -16573586.72348 -12902828.27046  21815619.3054                   21815619.4264
 -28264327.97748 -22012047.53146  21480733.4454                   21480729.2854
 11  8 28  1 25 30.0000000  0  8G12G29G26G10G04G05G25G02
 -24284454.43448 -18911381.31246  21223006.1484                   21223004.0664
  -5017031.04347  -3899748.50044  23341083.5634                   23341081.2034
    659830.69946    524670.08243  24355911.8134                   24355911.4304
 -17900812.97746 -13937944.95744  23050474.7274                   23050474.3244
 -15511869.27346 -12074258.83243  24759009.3674                   24759010.1524
 -27538061.02748 -21446277.48847  20367527.1484                   20367524.9574
 -16618755.71148 -12938024.87946  21807023.9924                   21807024.2034
 -28255382.37148 -22005076.93446  21482436.1334                   21482431.8984
 11  8 28  1 26  0.0000000  0  8G12G29G26G10G04G05G25G02
 -24264535.99248 -18895860.45746  21226796.4304                   21226794.2384
  -5125446.71147  -3984228.21944  23320452.2974                   23320449.9304
    540593.82047    431758.47743  24333221.7424                   24333221.6134
 -17827528.02046 -13880839.83644  23064421.1724                   23064419.9224
 -15459602.14846 -12033531.26243  24768955.8284                   24768956.3524
 -27554795.80548 -21459317.55547  20364342.8134                   20364340.2344
 -16663345.52047 -12972770.17246  21798538.7194                   21798539.2304
 -28246336.90248 -21998028.52046  21484156.9224                   21484152.6604
 11  8 28  1 26 30.0000000  0  7G12G29G26G10G05G25G02
 -24244100.34448 -18879936.58646  21230685.1954                   21230683.1914
  -5233841.18447  -4068691.41444  23299825.5164                   23299823.8714
    421322.43046    338819.91043  24310524.5314                   24310525.5634
 -17753986.80146 -13823535.03944  23078415.5394                   23078414.6484
 -27570964.55148 -21471916.55947  20361265.7424                   20361263.3754
 -16707352.62148 -13007061.40646  21790164.5784                   21790165.2154
 -28237188.73848 -21990900.07846  21485897.9774                   21485893.9384
 11  8 28  1 27  0.0000000  0  7G12G29G26G10G05G25G02
 -24223148.79748 -18863610.71946  21234672.3754                   21234670.1644
  -5342212.75847  -4153136.73044  23279202.1804                   23279201.4734
    302020.10546    245857.25843  24287821.8594                   24287821.8444
 -17680191.79746 -13766032.48844  23092458.5554                   23092457.1024
 -27586567.48448 -21484074.66847  20358296.9694                   20358294.2304
 -16750776.34048 -13040898.05146  21781901.1334                   21781901.5554
 -28227938.14548 -21983691.83646  21487658.4384                   21487653.9224
 11  8 28  1 27 30.0000000  0  7G12G29G26G10G05G25G02
 -24201677.10948 -18846879.54346  21238758.2734                   21238755.9304
  -5450553.15247  -4237557.74644  23258585.7664                   23258585.4614
    182696.45347    152877.98843  24265115.0004                   24265115.9534
 -17606139.25446 -13708329.24244  23106549.9064                   23106549.3404
 -27601598.95348 -21495787.48047  20355436.5474                   20355434.0314
 -16793609.51648 -13074274.54746  21773750.2194                   21773750.9144
 -28218578.76648 -21976398.80546  21489438.9924                   21489435.2974
 11  8 28  1 28  0.0000000  0  7G12G29G26G10G05G25G02
 -24179683.62548 -18829741.78146  21242943.4844                   21242941.0004
  -5558857.57047  -4321950.74245  23237976.4304                   23237975.5664
     63358.07447     59887.24243  24242405.6564                   24242406.5394
 -17531828.44947 -13650424.78144  23120690.9844                   23120689.9264
 -27616056.46548 -21507053.05547  20352685.2734                   20352682.9064
 -16835848.35548 -13107187.91446  21765712.4454                   21765712.6524
 -28209107.73448 -21969018.78946  21491241.8364                   21491237.3054
 11  8 28  1 28 30.0000000  0  7G12G29G26G10G05G25G02
 -24157172.42248 -18812200.59846  21247227.3594                   21247225.1214
  -5667126.61347  -4406316.12945  23217373.4694                   23217372.6844
    -55993.59046    -33113.88343  24219693.2584                   24219693.6844
 -17457264.65247 -13592323.17244  23134880.1954                   23134878.6024
 -27629943.48448 -21517874.09047  20350042.9064                   20350040.2894
 -16877494.69148 -13139639.59446  21757787.6334                   21757788.0044
 -28199527.40248 -21961553.60546  21493064.8364                   21493060.6604
 11  8 28  1 29  0.0000000  0  7G12G29G26G10G05G25G02
 -24134148.53548 -18794259.92246  21251608.4774                   21251606.3094
  -5775361.90247  -4490655.25445  23196777.2584                   23196775.7424
   -175359.05547   -126125.75043  24196978.5704                   24196980.0394
 -17382453.60547 -13534028.89844  23149116.7274                   23149115.4614
 -27643263.83648 -21528253.56647  20347507.9534                   20347505.3594
 -16918551.30148 -13171631.74646  21749974.6644                   21749975.2734
 -28189841.38348 -21954006.05546  21494907.6484                   21494903.6804
 11  8 28  1 29 30.0000000  0  7G12G29G26G10G05G25G02
 -24110616.12148 -18775922.98046  21256086.6094                   21256084.4494
  -5883563.85947  -4574968.39845  23176186.6484                   23176185.4884
   -294736.60547   -219147.03143  24174262.2194                   24174262.6804
 -17307400.64847 -13475546.12144  23163398.5634                   23163397.4614
 -27656020.86348 -21538194.08647  20345080.0314                   20345077.5984
 -16959019.94948 -13203165.75046  21742273.7974                   21742273.9454
 -28180052.11348 -21946378.05946  21496770.3524                   21496766.3594
 11  8 28  1 30  0.0000000  0  7G12G29G26G10G05G25G02
 -24086579.83648 -18757193.43046  21260660.6484                   21260658.4414
  -5991733.37947  -4659256.28145  23155602.7664                   23155601.5514
   -414126.12547   -312177.66443  24151542.9384                   24151543.6254
 -17232111.23847 -13416879.10544  23177725.7584                   23177724.7894
 -27668218.28148 -21547698.55147  20342759.2034                   20342756.9414
 -16998902.99248 -13234243.43446  21734684.3364                   21734684.6134
 -28170162.69148 -21938672.02346  21498652.6024                   21498648.6844
 11  8 28  1 30 30.0000000  0  7G12G29G26G10G05G25G02
 -24062041.27748 -18738072.49246  21265330.1564                   21265327.9774
  -6099868.71147  -4743517.53545  23135025.3134                   23135024.2154
   -533523.85947   -405214.68044  24128822.2974                   24128822.1524
 -17156587.27347 -13358029.30944  23192097.4694                   23192096.4694
 -27679856.73848 -21556767.45347  20340544.2424                   20340541.9574
 -17038199.87148 -13264864.36746  21727206.0004                   21727206.7814
 -28160173.17248 -21930887.98846  21500553.6884                   21500549.2774
 11  8 28  1 31  0.0000000  0  7G12G29G26G10G05G25G02
 -24037002.25048 -18718561.57846  21270095.3134                   21270093.1644
  -6207968.17647  -4827750.82844  23114454.4304                   23114452.6334
   -652926.05947   -498255.19544  24106100.7194                   24106100.9734
 -17080831.37147 -13298998.80144  23206513.0944                   23206512.5704
 -27690937.19948 -21565401.55947  20338435.9384                   20338433.4574
 -17076909.86748 -13295027.99246  21719840.0704                   21719840.4104
 -28150083.21148 -21923025.67646  21502473.8134                   21502470.0044
 11  8 28  1 31 30.0000000  0  7G12G29G26G10G05G25G02
 -24011465.41848 -18698662.76646  21274954.3134                   21274952.3134
  -6316030.73847  -4911955.35945  23093891.0634                   23093889.4184
   -772330.69947   -591297.57843  24083377.9454                   24083378.7504
 -17004847.66447 -13239790.76244  23220972.4774                   23220971.7074
 -27701461.56248 -21573602.34447  20336433.1564                   20336430.6644
 -17115033.82848 -13324734.96946  21712585.3914                   21712585.6214
 -28139894.26248 -21915086.24646  21504412.9384                   21504408.4574
 11  8 28  1 32  0.0000000  0  7G12G29G26G10G05G25G02
 -23985434.40648 -18678378.87546  21279907.8594                   21279905.8594
  -6424055.45347  -4996130.41445  23073334.5004                   23073333.5554
   -891735.12546   -684339.85544  24060656.0474                   24060656.7814
 -16928639.59447 -13180407.91844  23235474.6024                   23235473.1134
 -27711431.77748 -21581371.31647  20334535.8204                   20334533.5434
 -17152572.28948 -13353985.70346  21705441.5864                   21705442.1334
 -28129607.40648 -21907070.51646  21506370.1644                   21506365.8054
 11  8 28  1 32 30.0000000  0  7G12G29G26G10G05G25G02
 -23958911.57048 -18657711.75046  21284955.2424                   21284952.9264
  -6532041.96947  -5080275.68745  23052784.8914                   23052784.2704
  -1011136.85246   -777380.00044  24037934.6724                   24037935.4024
 -16852210.77047 -13120853.03544  23250018.0704                   23250017.9414
 -27720849.37948 -21588709.68747  20332743.3834                   20332741.2584
 -17189525.79348 -13382780.62546  21698409.6484                   21698410.0904
 -28119223.84048 -21898979.42646  21508346.0634                   21508342.1914
 11  8 28  1 33  0.0000000  0  7G12G29G26G10G05G25G02
 -23931900.70348 -18636664.32446  21290095.3134                   21290092.9964
  -6639989.87547  -5164390.86345  23032243.1484                   23032242.1954
  -1130534.16846   -870416.71543  24015213.3914                   24015214.9494
 -16775565.90647 -13061129.82844  23264603.8444                   23264602.5354
 -27729718.25448 -21595620.48047  20331056.1094                   20331053.7194
 -17225895.93748 -13411120.99246  21691488.6564                   21691489.4144
 -28108745.25048 -21890814.29746  21510340.1254                   21510335.9384
 11  8 28  1 33 30.0000000  0  7G12G29G26G10G05G25G02
 -23904401.06248 -18615236.05146  21295328.3204                   21295325.8164
  -6747895.29747  -5248472.95745  23011709.7034                   23011708.4144
  -1249921.58246   -963445.68043  23992495.1884                   23992495.5274
 -16698705.20347 -13001238.42244  23279230.0474                   23279228.1844
 -27738036.57048 -21602102.26647  20329472.8674                   20329470.4304
 -17261680.19548 -13439004.81646  21684679.3984                   21684679.7934
 -28098169.84048 -21882573.71546  21512352.4924                   21512348.5554
 11  8 28  1 34  0.0000000  0  7G12G29G26G10G05G25G02
 -23876416.64148 -18593430.02046  21300653.2194                   21300651.3914
  -6855757.54347  -5332521.39145  22991184.1644                   22991182.7584
  -1369296.45746  -1056464.95743  23969778.1884                   23969778.5824
 -16621632.09447 -12941181.48444  23293896.5864                   23293894.8324
 -27745806.40248 -21608156.65247  20327994.3984                   20327992.2504
 -17296879.50048 -13466432.83246  21677980.9694                   21677981.3874
 -28087498.53948 -21874258.41046  21514383.1094                   21514379.0594
 11  8 28  1 34 30.0000000  0  7G12G29G26G10G05G25G02
 -23847951.18748 -18571249.16046  21306070.0474                   21306068.1604
  -6963576.56647  -5416536.17645  22970666.7344                   22970665.7274
  -1488657.42646  -1149473.35243  23947065.4924                   23947065.5864
 -16544351.49647 -12880962.86744  23308602.1414                   23308601.4414
 -27753031.03148 -21613786.21147  20326619.7114                   20326617.1414
 -17331495.38348 -13493406.22746  21671393.9454                   21671394.1054
 -28076733.34848 -21865869.95346  21516431.5634                   21516427.5824
 11  8 28  1 35  0.0000000  0  7G12G29G26G10G05G25G02
 -23819003.54348 -18548692.57046  21311578.6564                   21311576.6844
  -7071347.93047  -5500513.82445  22950158.4534                   22950157.6954
  -1607997.97346  -1242465.81243  23924355.2504                   23924355.4414
 -16466863.12147 -12820582.36744  23323347.4304                   23323347.0904
 -27759708.43048 -21618989.35947  20325349.0784                   20325346.4024
 -17365524.86348 -13519922.69146  21664918.2974                   21664918.7194
 -28065871.87948 -21857406.46546  21518498.5554                   21518494.4304
 11  8 28  1 35 30.0000000  0  7G12G29G26G10G05G25G02
 -23789575.53548 -18525761.66046  21317178.6564                   21317176.5594
  -7179069.74247  -5584452.85545  22929659.6804                   22929658.6724
  -1727314.95346  -1335439.96543  23901649.6334                   23901648.6954
 -16389169.84447 -12760042.21944  23338132.4144                   23338131.7664
 -27765840.10248 -21623767.26647  20324182.3364                   20324179.6954
 -17398967.91848 -13545982.20746  21658554.4534                   21658554.5474
 -28054914.46948 -21848868.23046  21520583.5944                   21520579.5554
 11  8 28  1 36  0.0000000  0  7G12G29G26G10G05G25G02
 -23759672.35948 -18502460.49646  21322868.7194                   21322866.8014
  -7286742.41447  -5668353.61345  22909170.4774                   22909169.3484
  -1846606.89146  -1428394.59043  23878949.2114                   23878948.8834
 -16311276.71947 -12699346.30544  23352955.1174                   23352954.6454
 -27771429.58248 -21628122.68747  20323118.6884                   20323116.0394
 -17431826.83248 -13571586.53946  21652301.5084                   21652302.1134
 -28043863.16448 -21840256.82046  21522686.2894                   21522682.5124
 11  8 28  1 36 30.0000000  0  7G12G29G26G10G05G25G02
 -23729297.14548 -18478791.50846  21328649.2584                   21328647.2074
  -7394365.33247  -5752215.58645  22888690.1094                   22888689.3524
  -1965871.94546  -1521328.26644  23856254.1254                   23856253.1954
 -16233187.53547 -12638497.62944  23367815.1724                   23367814.4384
 -27776479.33648 -21632057.53547  20322157.5234                   20322154.9774
 -17464102.64148 -13596736.50846  21646159.5784                   21646159.8204
 -28032719.45348 -21831573.39846  21524807.2034                   21524803.3134
 11  8 28  1 37  0.0000000  0  7G12G29G26G10G05G25G02
 -23698450.03948 -18454754.81646  21334519.4304                   21334517.3674
  -7501934.84447  -5836035.94945  22868220.4774                   22868219.7664
  -2085104.30546  -1614236.47744  23833564.7584                   23833564.4104
 -16154902.62147 -12577496.43744  23382711.5634                   23382711.7854
 -27780988.21548 -21635570.92247  20321299.5084                   20321297.1684
 -17495793.30948 -13621430.52346  21640128.9774                   21640129.5634
 -28021481.49248 -21822816.53546  21526945.5084                   21526941.5864
 11  8 28  1 37 30.0000000  0  7G12G29G26G10G05G25G02
 -23667133.47348 -18430352.30546  21340478.4534                   21340476.3594
  -7609449.19147  -5919813.31645  22847761.3364                   22847760.0944
  -2204301.10246  -1707116.97743  23810882.0004                   23810881.5864
 -16076425.07047 -12516345.11344  23397646.1174                   23397644.8954
 -27784958.13748 -21638664.35247  20320544.0004                   20320541.4264
 -17526899.16448 -13645668.84446  21634209.7974                   21634210.3484
 -28010149.56648 -21813986.46546  21529102.1564                   21529098.2274
 11  8 28  1 38  0.0000000  0  7G12G29G26G10G05G25G02
 -23635350.50847 -18405586.37946  21346526.8524                   21346524.8404
  -7716907.34847  -6003546.91045  22827312.6174                   22827311.1024
  -2323459.51646  -1799967.57044  23788206.7504                   23788206.3364
 -15997758.75847 -12455046.73444  23412615.6884                   23412614.7274
 -27788391.39148 -21641339.59047  20319890.8364                   20319888.3134
 -17557421.10548 -13669452.16446  21628401.5314                   21628402.0944
 -27998725.00448 -21805084.20746  21531276.0164                   21531272.0634
 11  8 28  1 38 30.0000000  0  7G12G29G26G10G05G25G02
 -23603105.31247 -18380460.26246  21352662.6254                   21352660.8284
  -7824309.89147  -6087237.17245  22806874.4924                   22806872.6134
  -2442577.95746  -1892787.00844  23765539.2894                   23765538.6564
 -15918908.16047 -12393604.74644  23427620.3914                   23427619.9024
 -27791291.00848 -21643599.01647  20319338.8054                   20319336.2384
 -17587361.14148 -13692782.04346  21622704.0784                   21622704.6414
 -27987209.59848 -21796111.16446  21533467.2344                   21533463.3554
 11  8 28  1 39  0.0000000  0  7G12G29G26G10G05G25G02
 -23570398.15647 -18354974.18446  21358886.8594                   21358884.7894
  -7931653.13347  -6170881.23045  22786447.5944                   22786446.5044
  -2561651.40646  -1985571.39543  23742880.4694                   23742880.2774
 -15839874.15247 -12332019.85944  23442660.0634                   23442659.9144
 -27793656.78548 -21645442.45747  20318888.8284                   20318886.3054
 -17616717.66048 -13715657.23446  21617117.7894                   21617118.3634
 -27975601.96148 -21787066.25046  21535676.0004                   21535672.2774
 11  8 28  1 39 30.0000000  0  7G12G29G26G10G05G25G02
 -23537231.87147 -18329130.34446  21365198.4924                   21365196.3054
  -8038935.12547  -6254477.57445  22766032.7814                   22766031.3404
  -2680676.45346  -2078318.07844  23720231.0084                   23720229.9694
 -15760659.56647 -12270294.25844  23457733.9924                   23457733.9224
 -27795490.23448 -21646871.09847  20318539.8444                   20318537.6644
 -17645490.90248 -13738077.94146  21611642.4064                   21611643.0944
 -27963902.23447 -21777949.57446  21537902.3834                   21537898.9454
 11  8 28  1 40  0.0000000  0  7G12G29G26G10G05G25G02
 -23503609.34447 -18302930.98446  21371596.3754                   21371593.8834
  -8146154.96947  -6338025.48045  22745629.0784                   22745628.1804
  -2799650.54346  -2171025.04744  23697590.8284                   23697589.9344
 -15681268.21947 -12208430.90244  23472841.5084                   23472840.9064
 -27796793.59048 -21647886.67647  20318291.7194                   20318289.2814
 -17673682.00848 -13760045.02746  21606277.7504                   21606278.4534
 -27952111.47348 -21768761.96946  21540146.3594                   21540142.2974
 11  8 28  1 40 30.0000000  0  7G12G29G26G10G05G25G02
 -23469531.94547 -18276377.18046  21378080.9304                   21378079.1214
  -8253310.11347  -6421522.96145  22725238.6484                   22725236.9104
  -2918568.98446  -2263688.65244  23674960.1954                   23674960.3244
 -15601701.61747 -12146431.00044  23487982.9694                   23487982.7274
 -27797567.36348 -21648489.59847  20318144.3204                   20318142.1564
 -17701290.08248 -13781557.80546  21601024.2894                   21601024.4224
 -27940228.90248 -21759502.82446  21542407.9454                   21542403.8794
 11  8 28  1 41  0.0000000  0  8G12G29G26G10G15G05G25G02
 -23435002.52747 -18249471.16446  21384651.8524                   21384649.3484
  -8360398.76647  -6504968.60545  22704859.8754                   22704858.8244
  -3037428.89146  -2356306.60944  23652342.3524                   23652342.3164
 -15521962.69547 -12084296.83644  23503157.1174                   23503155.8634
   4553951.10956   3559144.59453  24573187.8524                   24573188.4774
 -27797813.66048 -21648681.49247  20318097.5164                   20318095.1724
 -17728315.76247 -13802616.78546  21595881.6024                   21595882.0004
 -27928254.88748 -21750172.43046  21544686.1724                   21544682.1254
 11  8 28  1 41 30.0000000  0  8G12G29G26G10G15G05G25G02
 -23400031.01247 -18222220.64846  21391306.7114                   21391304.7114
  -8467426.60247  -6588366.87945  22684493.4454                   22684492.1954
  -3156234.49246  -2448882.32844  23629734.4614                   23629734.2974
 -15442061.84847 -12022036.48444  23518361.6414                   23518360.8524
   4436596.68046   3467699.93843  24550855.5704                   24550856.4734
 -27797541.00048 -21648469.01647  20318149.7274                   20318147.1174
 -17754766.96148 -13823228.09446  21590848.0004                   21590848.3794
 -27916196.95348 -21740776.63746  21546980.8984                   21546977.0004
 11  8 28  1 42  0.0000000  0  8G12G29G26G10G15G05G25G02
 -23364624.75847 -18194631.37546  21398044.3284                   21398041.9844
  -8574396.82047  -6671720.24645  22664137.1414                   22664136.4844
  -3274986.95346  -2541416.59444  23607136.5004                   23607136.4264
 -15362006.56247 -11959655.77344  23533595.5864                   23533595.1414
   4319105.46546   3376148.60543  24528497.1254                   24528497.2664
 -27796755.81248 -21647857.15647  20318298.7894                   20318296.4844
 -17780648.70748 -13843395.68446  21585922.7344                   21585922.9924
 -27904060.44948 -21731319.62146  21549290.2814                   21549286.2424
 11  8 28  1 42 30.0000000  0  8G12G29G26G10G15G05G25G02
 -23328781.72747 -18166701.76246  21404864.9694                   21404862.8014
  -8681304.19947  -6755024.65645  22643793.3914                   22643792.5704
  -3393679.12546  -2633903.90644  23584550.2584                   23584549.7894
 -15281795.68447 -11897153.85944  23548859.0704                   23548858.5354
   4201483.73446   3284495.57043  24506114.1094                   24506115.8714
 -27795456.00048 -21646844.30147  20318546.0944                   20318543.3524
 -17805957.60548 -13863116.91446  21581106.2504                   21581106.9454
 -27891841.89547 -21721798.66446  21551615.2664                   21551611.4694
 11  8 28  1 43  0.0000000  0  8G12G29G26G10G15G05G25G02
 -23292501.00447 -18138431.09046  21411768.8754                   21411767.1214
  -8788141.87547  -6838274.75845  22623463.3204                   22623461.8444
  -3512303.25046  -2726338.18744  23561976.5634                   23561976.2464
 -15201427.73047 -11834529.49644  23564153.0234                   23564152.5124
   4083738.26646   3192746.12543  24483707.8914                   24483708.8714
 -27793639.13348 -21645428.54747  20318891.8754                   20318889.5554
 -17830689.91848 -13882388.84846  21576400.6484                   21576400.5164
 -27879536.89148 -21712210.35546  21553956.8444                   21553952.9654
 11  8 28  1 43 30.0000000  0  8G12G29G26G10G15G05G25G02
 -23255784.41847 -18109820.77746  21418755.6174                   21418753.8874
  -8894908.11747  -6921469.18745  22603146.2814                   22603144.6524
  -3630855.60546  -2818716.52744  23539416.1564                   23539416.2504
 -15120905.21947 -11771784.74244  23579475.6804                   23579475.0354
   3965871.73046   3100902.37943  24461279.0944                   24461280.0434
 -27791306.51648 -21643610.90247  20319335.8284                   20319333.2034
 -17854845.82448 -13901211.62946  21571803.3834                   21571803.9344
 -27867145.59447 -21702554.78946  21556314.7664                   21556311.0824
 11  8 28  1 44  0.0000000  0  8G12G29G26G10G15G05G25G02
 -23218632.08247 -18080870.92646  21425825.9304                   21425823.7814
  -9001599.09047  -7004604.96945  22582842.9224                   22582841.8204
  -3749330.59846  -2911034.59444  23516871.7114                   23516871.8634
 -15040228.86347 -11708920.10543  23594827.7664                   23594827.1374
   3847888.83646   3008967.91443  24438826.7424                   24438828.4104
 -27788457.28948 -21641390.71947  20319877.7504                   20319875.7274
 -17878423.43048 -13919583.80546  21567316.9224                   21567317.3674
 -27854665.56248 -21692830.08246  21558689.7664                   21558685.7074
 11  8 28  1 44 30.0000000  0  8G12G29G26G10G15G05G25G02
 -23181047.86747 -18051584.54746  21432977.8364                   21432976.0634
  -9108213.55947  -7087681.12945  22562555.2814                   22562554.5984
  -3867725.62947  -3003290.35544  23494341.5704                   23494341.4844
 -14959402.12147 -11645938.23043  23610208.7424                   23610207.5204
   3729790.95746   2916943.84043  24416352.7194                   24416354.6884
 -27785094.51248 -21638770.34847  20320517.9384                   20320515.6684
 -17901424.28148 -13937506.55146  21562939.6804                   21562940.2154
 -27842097.86747 -21683037.07446  21561081.4384                   21561077.4964
 11  8 28  1 45  0.0000000  0  8G12G29G26G10G15G05G25G02
 -23143032.31648 -18021962.05946  21440211.8444                   21440210.0594
  -9214747.92247  -7170694.87145  22542282.5704                   22542281.4144
  -3986035.21947  -3095479.54744  23471828.1024                   23471827.7274
 -14878425.31647 -11582839.46943  23625618.6174                   23625617.5124
   3611582.56846   2824833.75443  24393858.4224                   24393859.8834
 -27781217.66448 -21635749.41847  20321255.7344                   20321253.2234
 -17923846.85948 -13954978.70346  21558672.9534                   21558673.1484
 -27829441.23047 -21673174.75446  21563489.8594                   21563485.4144
 11  8 28  1 45 30.0000000  0  8G12G29G26G10G15G05G25G02
 -23104589.89548 -17992006.94146  21447527.3594                   21447525.5434
  -9321202.57447  -7253646.49245  22522024.9844                   22522023.5314
  -4104258.44147  -3187601.44544  23449331.1254                   23449330.3014
 -14797303.77347 -11519627.91843  23641055.4144                   23641054.0084
   3493264.21946   2732637.87543  24371342.5394                   24371344.5474
 -27776830.63748 -21632330.94147  20322090.3134                   20322088.0204
 -17945694.11348 -13972002.55946  21554515.7664                   21554516.1564
 -27816697.86347 -21663244.85246  21565914.5314                   21565910.3714
 11  8 28  1 46  0.0000000  0  8G12G29G26G10G15G05G25G02
 -23065721.59048 -17961719.96546  21454923.7504                   21454922.2774
  -9427573.44147  -7336532.82045  22501783.0314                   22501781.7894
  -4222389.55547  -3279651.57044  23426851.7894                   23426850.9734
 -14716038.05947 -11456304.02743  23656519.6414                   23656518.6294
   3374840.16046   2640359.65643  24348807.8444                   24348808.6914
 -27771933.20348 -21628514.74647  20323022.1954                   20323020.0864
 -17966964.44548 -13988576.84846  21550468.0164                   21550468.5474
 -27803865.44947 -21653245.56246  21568356.4534                   21568352.3714
 11  8 28  1 46 30.0000000  0  8G12G29G26G10G15G05G25G02
 -23026431.38348 -17931104.23846  21462400.0704                   21462398.5004
  -9533860.77347  -7419354.04745  22481557.3674                   22481556.0354
  -4340426.94947  -3371628.65644  23404389.2734                   23404388.8324
 -14634632.87947 -11392871.44943  23672010.2974                   23672009.1214
   3256311.27346   2547999.75843  24326252.1174                   24326252.7624
 -27766529.18448 -21624303.81247  20324050.8284                   20324048.2194
 -17987660.33648 -14004703.53946  21546530.0234                   21546530.4264
 -27790946.48048 -21643178.82846  21570814.9384                   21570810.9884
 11  8 28  1 47  0.0000000  0  8G12G29G26G10G15G05G25G02
 -22986718.93448 -17900159.49646  21469957.4064                   21469955.2384
  -9640059.56247  -7502106.28945  22461348.7894                   22461346.8284
  -4458364.09847  -3463527.65244  23381946.8054                   23381945.6604
 -14553087.55947 -11329329.72343  23687528.0944                   23687527.2704
   3137683.31346   2455562.61743  24303677.7504                   24303679.0044
 -27760616.74248 -21619696.69947  20325175.7274                   20325173.1334
 -18007779.39148 -14020380.73046  21542701.1724                   21542701.5634
 -27777938.01647 -21633042.35546  21573290.5004                   21573286.4924
 11  8 28  1 47 30.0000000  0  8G12G29G26G10G15G05G25G02
 -22946589.07048 -17868889.48446  21477593.8984                   21477592.3714
  -9746170.18047  -7584789.82445  22441156.1484                   22441154.4534
  -4576199.82847  -3555347.61344  23359523.4064                   23359522.1374
 -14471407.34446 -11265682.82443  23703070.5944                   23703070.5354
   3018956.23047   2363048.23444  24281084.8444                   24281085.6214
 -27754200.27348 -21614696.85247  20326396.6414                   20326394.1484
 -18027324.42248 -14035610.62946  21538982.1024                   21538982.6094
 -27764842.23847 -21622837.85546  21575782.4454                   21575778.1994
 11  8 28  1 48  0.0000000  0  8G12G29G26G10G15G05G25G02
 -22906043.56248 -17837295.59846  21485309.6334                   21485307.3364
  -9852189.71947  -7667402.39545  22420981.0314                   22420979.7504
  -4693929.35947  -3647084.80144  23337119.4924                   23337118.9104
 -14389593.91046 -11201932.17244  23718639.7034                   23718639.1374
   2900133.73047   2270459.52744  24258473.7034                   24258474.1604
 -27747280.40248 -21609304.73047  20327713.6954                   20327711.1054
 -18046295.06248 -14050392.96546  21535372.0474                   21535372.5004
 -27751658.00447 -21612564.41446  21578291.4924                   21578287.4224
 11  8 28  1 48 30.0000000  0  8G12G29G26G10G15G05G25G02
 -22865085.66847 -17805380.36346  21493103.7504                   21493101.5984
  -9958117.14147  -7749943.18745  22400823.6644                   22400821.8554
  -4811550.47347  -3738737.55544  23314737.1254                   23314736.8204
 -14307650.99246 -11138080.62143  23734233.2194                   23734232.5044
   2781217.18847   2177797.50444  24235844.2194                   24235845.4494
 -27739859.93448 -21603522.53947  20329125.6954                   20329123.1844
 -18064693.25448 -14064729.21546  21531871.0004                   21531871.4344
 -27738386.71547 -21602223.14846  21580816.7114                   21580812.4924
 11  8 28  1 49  0.0000000  0  8G12G29G26G10G15G05G25G02
 -22823719.13747 -17773146.72346  21500975.3204                   21500973.6054
 -10063951.14147  -7832411.18045  22380684.4064                   22380682.4654
  -4929059.96547  -3830303.30544  23292375.7734                   23292375.1764
 -14225581.35547 -11074130.32043  23749850.5704                   23749849.5434
   2662208.96147   2085064.04344  24213197.6484                   24213198.5004
 -27731941.39548 -21597352.24247  20330632.4534                   20330629.8164
 -18082520.09047 -14078620.27046  21528478.7194                   21528478.9884
 -27725028.80147 -21591814.37146  21583358.2814                   21583354.3634
 11  8 28  1 49 30.0000000  0  8G12G29G26G10G15G05G25G02
 -22781945.02047 -17740595.48046  21508924.9774                   21508922.7894
 -10169688.34047  -7914803.74245  22360563.2584                   22360561.3054
  -5046453.10247  -3921778.39144  23270036.6174                   23270036.0474
 -14143386.17247 -11010082.19544  23765492.2344                   23765491.1564
   2543112.94947   1992262.16444  24190533.8834                   24190534.1174
 -27723525.04348 -21590794.03147  20332233.9304                   20332231.4964
 -18099774.84848 -14092065.53946  21525195.1564                   21525195.6524
 -27711583.12947 -21581337.22346  21585917.5394                   21585913.2624
 11  8 28  1 50  0.0000000  0  8G12G29G26G10G15G05G25G02
 -22739767.66447 -17707730.02746  21516950.8754                   21516948.6804
 -10275328.54747  -7997120.72745  22340460.3754                   22340458.6954
  -5163727.87147  -4013161.23444  23247719.8284                   23247719.4804
 -14061069.94547 -10945939.73444  23781155.5704                   23781155.2424
   2423929.78146   1899392.36344  24167854.1564                   24167854.8674
 -27714614.60248 -21583850.82047  20333929.8054                   20333927.3094
 -18116460.08248 -14105067.02746  21522020.1884                   21522020.5704
 -27698051.46147 -21570793.07045  21588492.6174                   21588488.2734
 11  8 28  1 50 30.0000000  0  8G12G29G26G10G15G05G25G02
 -22697188.27047 -17674551.28546  21525053.5784                   21525051.2734
 -10380868.49247  -8079359.57845  22320376.2974                   22320374.9654
  -5280879.51647  -4104448.16044  23225426.9064                   23225425.8754
 -13978634.11747 -10881704.07844  23796843.9844                   23796842.6134
   2304663.59046   1806457.91044  24145158.3284                   24145159.3094
 -27705210.47348 -21576522.92247  20335719.3364                   20335716.6994
 -18132575.34848 -14117624.37546  21518953.5474                   21518953.9224
 -27684432.67647 -21560181.02346  21591083.6094                   21591079.6484
 11  8 28  1 51  0.0000000  0  8G12G29G26G10G15G05G25G02
 -22654209.64147 -17641061.45746  21533232.1644                   21533229.9844
 -10486306.05147  -8161518.65645  22300311.8834                   22300310.7154
  -5397904.52747  -4195636.37544  23203157.1024                   23203157.0164
 -13896081.23847 -10817377.19544  23812552.0084                   23812551.8404
   2185316.90646   1713460.67643  24122447.0944                   24122448.5394
 -27695314.43448 -21568811.71947  20337602.7814                   20337599.8714
 -18148121.41047 -14129738.19546  21515994.8984                   21515995.4884
 -27670726.63347 -21549500.99645  21593691.9614                   21593688.0784
 11  8 28  1 51 30.0000000  0  8G12G29G26G10G15G05G25G02
 -22610834.05947 -17607262.31246  21541486.1024                   21541484.1134
 -10591639.25047  -8243596.40645  22280267.8594                   22280266.6024
  -5514798.78147  -4286722.69944  23180912.7814                   23180912.1804
 -13813413.41046 -10752960.78144  23828283.7274                   23828283.2854
   2065892.84446   1620403.16443  24099720.7894                   24099721.8364
 -27684928.02348 -21560718.39847  20339578.8524                   20339576.5234
 -18163098.77048 -14141408.87146  21513145.1484                   21513145.1524
 -27656932.90647 -21538752.62946  21596316.8524                   21596312.5314
 11  8 28  1 52  0.0000000  0  8G12G29G26G10G15G05G25G02
 -22567062.14148 -17573154.33646  21549815.4534                   21549813.5704
 -10696863.91047  -8325589.60945  22260244.6094                   22260243.0274
  -5631556.79747  -4377702.88744  23158694.7194                   23158693.3484
 -13730631.24647 -10688455.28543  23844036.4454                   23844036.4104
   1946395.94146   1527288.87943  24076981.6954                   24076981.6294
 -27674051.37148 -21552243.08247  20341648.4774                   20341645.7584
 -18177506.25848 -14152635.47746  21510403.3594                   21510403.8404
 -27643049.57047 -21527934.44546  21598959.0554                   21598955.1174
 11  8 28  1 52 30.0000000  0  8G12G29G26G10G15G05G25G02
 -22522898.57048 -17538741.18046  21558219.7034                   21558217.7664
 -10801979.85947  -8407498.07845  22240241.6094                   22240240.1174
  -5748177.19547  -4468575.81644  23136501.6564                   23136501.6844
 -13647739.35946 -10623864.23843  23859810.3524                   23859810.1054
   1826827.21946   1434118.65243  24054228.1334                   24054229.1804
 -27662688.12548 -21543388.59847  20343810.8524                   20343808.4654
 -18191346.71148 -14163420.25446  21507769.8754                   21507770.3634
 -27629078.62947 -21517047.98846  21601617.6564                   21601613.2544
 11  8 28  1 53  0.0000000  0  8G12G29G26G10G15G05G25G02
 -22478348.96147 -17504027.20746  21566697.2194                   21566695.2034
 -10906987.91447  -8489322.47745  22220259.2034                   22220257.7894
  -5864659.02347  -4559340.75844  23114337.1094                   23114336.5554
 -13564743.32846 -10559192.02343  23875604.3134                   23875603.3634
   1707185.94946   1340891.83243  24031460.9614                   24031461.4534
 -27650843.14548 -21534158.73447  20346065.1094                   20346062.1994
 -18204623.98848 -14173766.18446  21505243.0944                   21505243.4964
 -27615022.93747 -21506095.50446  21604292.0864                   21604287.9184
 11  8 28  1 53 30.0000000  0  8G12G29G26G10G15G05G25G02
 -20857993.35547 -16241412.46546  21875040.7894                   21875038.4304
  -9436458.77047  -7343455.56245  22500091.7114                   22500089.9454
  -4405570.75047  -3422388.77744  23391991.4144                   23391991.3404
 -11906224.27346  -9266839.57043  24191209.9144                   24191209.1454
   3162903.15246   2475217.11343  24308475.0704                   24308475.0664
 -26063094.60248 -20296952.06647  20648203.5084                   20648200.7734
 -16641914.48048 -12956070.46546  21802616.8754                   21802617.4344
 -26025459.10547 -20267474.32046  21906776.0164                   21906771.7544
 11  8 28  1 54  0.0000000  0  8G12G29G26G10G15G05G25G02
 -20812673.68747 -16206098.44946  21883664.8914                   21883662.8014
  -9541239.28947  -7425102.66445  22480152.1804                   22480151.0004
  -4521758.17247  -3512924.34844  23369882.3754                   23369881.5824
 -11823020.85246  -9202005.77743  24207043.3444                   24207042.9574
   3043131.63747   2381888.83643  24285683.6884                   24285683.1094
 -26050285.62948 -20286971.04747  20650640.8284                   20650638.1054
 -16654061.85948 -12965535.96146  21800305.5234                   21800306.0594
 -26011228.01247 -20256385.16046  21909484.1954                   21909480.0864
 11  8 28  1 54 30.0000000  0  8G12G29G26G10G15G05G25G02
 -20766975.33247 -16170489.36346  21892361.0234                   21892358.7274
  -9645905.18047  -7506660.43745  22460235.2584                   22460233.7814
  -4637795.68747  -3603343.09844  23347800.6954                   23347800.8134
 -11739719.80546  -9137095.94142  24222894.1724                   24222894.5704
   2923296.80947   2288511.19143  24262878.8914                   24262879.0394
 -26036999.87548 -20276618.50047  20653169.2584                   20653166.6174
 -16665648.09448 -12974564.19146  21798100.4534                   21798101.2464
 -25996911.44147 -20245229.39146  21912208.4774                   21912204.3094
 11  8 28  1 55  0.0000000  0  8G12G29G26G10G15G05G25G02
 -20720900.99647 -16134587.29746  21901128.3054                   21901126.5514
  -9750454.02347  -7588127.02345  22440340.3054                   22440338.4304
  -4753678.94947  -3693641.65244  23325748.8204                   23325748.0554
 -11656323.48446  -9072111.85243  24238763.9614                   24238764.1134
   2803401.75047   2195086.67644  24240064.0084                   24240064.1564
 -26023239.18048 -20265895.86747  20655787.8134                   20655785.0274
 -16676673.82848 -12983155.68046  21796002.1484                   21796002.7624
 -25982508.98447 -20234006.69545  21914949.3204                   21914945.0354
 11  8 28  1 55 30.0000000  0  8G12G29G26G10G15G05G25G02
 -20674448.52347 -16098390.58246  21909968.3204                   21909966.4104
  -9854878.96947  -7669497.05545  22420468.6804                   22420467.2894
  -4869399.68447  -3783813.55944  23303728.2814                   23303726.8634
 -11572829.46546  -9007051.61743  24254652.8444                   24254652.4534
   2683453.65247   2101620.76644  24217238.6334                   24217238.5984
 -26009000.57048 -20254800.83647  20658497.1484                   20658494.4414
 -16687135.38748 -12991307.53946  21794011.5554                   21794012.0474
 -25968015.91447 -20222713.38346  21917707.2814                   21917703.1914
 11  8 28  1 56  0.0000000  0  8G12G29G26G10G15G05G25G02
 -20627626.16447 -16061905.64846  21918878.1174                   21918876.1684
  -9959183.95747  -7750773.62945  22400620.0164                   22400618.5984
  -4984960.16447  -3873860.60544  23281737.6884                   23281736.5864
 -11489246.02346  -8941921.71543  24270558.2974                   24270557.5944
   2563449.48047   2008111.18444  24194402.6644                   24194401.9224
 -25994291.70748 -20243339.37547  20661296.3134                   20661293.4734
 -16697039.59848 -12999025.10546  21792126.6024                   21792127.2464
 -25953438.07047 -20211354.01645  21920480.9454                   21920476.6254
 11  8 28  1 56 30.0000000  0  8G12G29G26G10G15G05G25G02
 -20580435.74247 -16025133.91446  21927858.4694                   21927855.9454
 -10063365.37147  -7831953.88745  22380794.7034                   22380793.2504
  -5100355.40647  -3963778.90244  23259778.6724                   23259777.6764
 -11405574.54746  -8876723.21543  24286480.3674                   24286479.8634
   2443393.51247   1914561.23844  24171555.7344                   24171556.1684
 -25979113.54748 -20231512.23447  20664184.5474                   20664181.9064
 -16706386.20348 -13006308.18046  21790348.1884                   21790348.4494
 -25938773.83247 -20199927.34445  21923271.5944                   21923267.9104
 11  8 28  1 57  0.0000000  0  8G12G29G26G10G15G05G25G02
 -20532880.85547 -15988078.17246  21936907.8204                   21936905.2624
 -10167422.11747  -7913037.02345  22360993.8054                   22360992.2734
  -5215582.44547  -4053566.12144  23237851.4924                   23237850.3794
 -11321818.22346  -8811458.58243  24302419.0704                   24302418.8324
   2323287.55947   1820972.34844  24148700.9384                   24148701.0434
 -25963468.75448 -20219321.47347  20667161.8134                   20667158.8134
 -16715177.12948 -13013158.25046  21788675.4844                   21788675.9304
 -25924024.14147 -20188434.05146  21926078.3054                   21926074.0434
 11  8 28  1 57 30.0000000  0  8G12G29G26G10G15G05G25G02
 -20484962.94547 -15950739.55946  21946026.3674                   21946024.0474
 -10271350.90247  -7994020.43746  22341216.1254                   22341215.0314
  -5330636.52747  -4143218.55944  23215957.1094                   23215956.1214
 -11237978.26246  -8746128.76644  24318373.3754                   24318372.7114
   2203135.83647   1727347.80544  24125836.4924                   24125837.0394
 -25947358.16847 -20206767.75047  20670227.3054                   20670224.5664
 -16723412.10948 -13019575.12146  21787108.3674                   21787108.8874
 -25909187.43747 -20176872.98846  21928902.0314                   21928897.7034
 11  8 28  1 58  0.0000000  0  8G12G29G26G10G15G05G25G02
 -20436684.35247 -15913119.89846  21955213.3284                   21955211.0634
 -10375148.88747  -8074901.91045  22321464.5784                   22321463.2344
  -5445513.38747  -4232732.91444  23194097.1954                   23194095.7344
 -11154056.73846  -8680735.43744  24334343.0554                   24334342.6954
   2082941.28947   1633689.89544  24102964.0944                   24102964.0784
 -25930783.23447 -20193852.21547  20673381.3054                   20673378.8874
 -16731092.11348 -13025559.53146  21785646.9844                   21785647.5164
 -25894263.49647 -20165243.93045  21931741.7344                   21931737.5554
 11  8 28  1 58 30.0000000  0  8G12G29G26G10G15G05G25G02
 -20388049.23448 -15875222.41846  21964468.2424                   21964466.0944
 -10478816.01647  -8155681.44546  22301736.9924                   22301735.7384
  -5560211.24247  -4322107.78544  23172270.3134                   23172269.4024
 -11070057.73046  -8615281.71143  24350327.7664                   24350327.0084
   1962704.69546   1539999.21144  24080083.3134                   24080083.2584
 -25913747.93748 -20180577.93747  20676623.0164                   20676620.2734
 -16738219.85948 -13031113.62946  21784290.5554                   21784290.8444
 -25879253.95748 -20153548.17246  21934598.3284                   21934593.9534
 11  8 28  1 59  0.0000000  0  8G12G29G26G10G15G05G25G02
 -20339058.60947 -15837047.93046  21973791.0234                   21973789.0664
 -10582347.39547  -8236355.18746  22282035.2814                   22282033.8754
  -5674723.91847  -4411338.36344  23150479.7894                   23150477.6914
 -10985981.20346  -8549767.58644  24366327.4774                   24366326.7854
   1842431.70346   1446280.19544  24057196.4694                   24057195.4414
 -25896251.76647 -20166944.54747  20679952.5234                   20679949.9734
 -16744794.19948 -13036236.49246  21783039.2974                   21783039.6334
 -25864156.32047 -20141783.78145  21937471.1254                   21937467.0824
 11  8 28  1 59 30.0000000  0  8G12G29G26G10G15G05G25G02
 -20289718.63347 -15798601.21546  21983180.4304                   21983177.8594
 -10685744.53547  -8316924.34046  22262359.9844                   22262358.1914
  -5789051.59047  -4500424.77044  23128723.3284                   23128722.0004
 -10901833.03146  -8484197.62943  24382339.7664                   24382339.4024
   1722121.84446   1352532.41444  24034302.1334                   24034301.9804
 -25878300.46548 -20152956.50447  20683368.4614                   20683365.8984
 -16750819.92248 -13040931.86346  21781892.7424                   21781892.8524
 -25848974.15247 -20129953.50846  21940360.1094                   21940355.8324
 11  8 28  2  0  0.0000000  0  8G12G29G26G10G15G05G25G02
 -20240029.50047 -15759882.42646  21992635.8134                   21992633.6484
 -10789002.33647  -8397384.90646  22242710.5394                   22242709.2154
  -5903187.54747  -4589361.79344  23107003.9454                   23107002.8284
 -10817612.94146  -8418571.62143  24398366.0944                   24398366.0394
   1601779.98846   1258759.71944  24011401.1414                   24011401.8444
 -25859892.85248 -20138612.89847  20686871.5474                   20686868.7934
 -16756295.35548 -13045198.44546  21780850.7194                   21780851.5824
 -25833704.14147 -20118054.78145  21943265.6564                   21943261.4494
 11  8 28  2  0 30.0000000  0  8G12G29G26G10G15G05G25G02
 -20189996.56647 -15720895.73846  22002156.0704                   22002154.1454
 -10892121.87947  -8477737.73046  22223087.5164                   22223085.5044
  -6017130.80547  -4678148.64544  23085321.2274                   23085320.3244
 -10733326.11345  -8352893.64143  24414405.3594                   24414405.4614
   1481406.58246   1164962.41044  23988495.3984                   23988494.8674
 -25841034.54748 -20123918.10547  20690459.9144                   20690457.3554
 -16761224.55548 -13049039.39146  21779913.1884                   21779913.4614
 -25818349.03947 -20106089.76245  21946187.7034                   21946184.0554
 11  8 28  2  1  0.0000000  0  8G12G29G26G10G15G05G25G02
 -20139619.96948 -15681641.26246  22011742.8054                   22011740.7114
 -10995097.93047  -8557978.76646  22203491.6484                   22203489.8364
  -6130875.12547  -4766780.49644  23063676.5554                   23063675.0474
 -10648972.31646  -8287163.46543  24430457.5314                   24430457.4414
   1361007.17646   1071144.83644  23965583.6334                   23965583.1374
 -25821724.52748 -20108871.32447  20694134.4064                   20694131.8524
 -16765606.19548 -13052453.66446  21779079.1804                   21779079.5314
 -25802906.15647 -20094056.32845  21949126.2664                   21949122.1214
 11  8 28  2  1 30.0000000  0  8G12G29G26G10G15G05G25G02
 -20088902.79747 -15642121.40246  22021393.9774                   22021392.0314
 -11097928.77347  -8638106.64146  22183923.4774                   22183921.8054
  -6244416.94947  -4855254.55944  23042070.2034                   23042068.9224
 -10564553.89846  -8221382.94943  24446521.8674                   24446521.3954
   1240584.37146    977309.05544  23942667.8054                   23942667.1484
 -25801965.01248 -20093474.28147  20697894.6414                   20697891.8594
 -16769441.66048 -13055442.33646  21778349.5704                   21778350.3054
 -25787375.60948 -20081954.59445  21952081.5314                   21952077.6524
 11  8 28  2  2  0.0000000  0  8G12G29G26G10G15G05G25G02
 -20037849.49247 -15602339.61746  22031109.2274                   22031107.0274
 -11200614.01247  -8718121.05946  22164383.3984                   22164381.1884
  -6357754.49247  -4943569.44944  23020502.5864                   23020501.0474
 -10480075.39146  -8155555.60243  24462597.8524                   24462597.3054
   1120139.14546    883455.75444  23919747.5474                   23919747.8164
 -25781760.18448 -20077730.25046  20701739.3054                   20701736.8484
 -16772734.18448 -13058007.94946  21777722.9454                   21777723.1454
 -25771759.06647 -20069785.84845  21955053.7274                   21955049.6024
 11  8 28  2  2 30.0000000  0  8G12G29G26G10G15G05G25G02
 -19986465.26248 -15562299.97746  22040887.1484                   22040885.2854
 -11303153.09847  -8798021.60546  22144870.9454                   22144869.1174
  -6470885.97747  -5031723.75844  22998974.0704                   22998972.7544
 -10395540.64846  -8089684.39542  24478684.0084                   24478683.8984
    999672.19546    789585.53944  23896823.3204                   23896823.8324
 -25761114.12148 -20061642.39847  20705668.3834                   20705665.6174
 -16775487.09848 -13060153.08246  21777199.2424                   21777199.6024
 -25756058.44548 -20057551.59845  21958041.5634                   21958036.7424
 11  8 28  2  3  0.0000000  0  8G12G29G26G10G15G05G25G02
 -19934749.89147 -15522002.29746  22050727.9304                   22050726.3914
 -11405541.09847  -8877804.39546  22125386.8524                   22125385.3404
  -6583804.35947  -5119712.01244  22977486.3364                   22977485.3524
 -10310948.98046  -8023768.84042  24494781.3524                   24494780.2304
    879190.09846    695703.51644  23873896.0314                   23873896.0164
 -25740025.27048 -20045209.52047  20709681.1954                   20709678.5904
 -16777698.42248 -13061876.20346  21776778.3054                   21776778.7624
 -25740270.25448 -20045249.09845  21961045.4774                   21961041.6484
 11  8 28  2  3 30.0000000  0  8G12G29G26G10G15G05G25G02
 -19882706.96547 -15481449.39146  22060631.8914                   22060629.8094
 -11507776.51648  -8957468.30146  22105932.1954                   22105930.2424
  -6696507.09447  -5207532.26244  22956039.5394                   22956038.7194
 -10226303.93446  -7957811.64543  24510888.9304                   24510888.1374
    758694.34446    601810.84844  23850966.7664                   23850966.2974
 -25718497.05148 -20028434.27747  20713778.0084                   20713775.5594
 -16779370.63348 -13063179.23046  21776459.8984                   21776460.2934
 -25724395.09447 -20032878.84846  21964066.4844                   21964062.6094
 11  8 28  2  4  0.0000000  0  8G12G29G26G10G15G05G25G02
 -19830338.21548 -15440642.57846  22070597.1334                   22070594.8914
 -11609856.03147  -9037010.72746  22086507.1024                   22086505.5514
  -6808989.12947  -5295180.51244  22934635.2344                   22934633.6174
 -10141606.54746  -7891813.73043  24527006.0234                   24527006.0164
    638189.07447    507910.76644  23828035.3914                   23828034.6884
 -25696530.56648 -20011317.52347  20717958.0314                   20717955.4184
 -16780503.94548 -13064062.34046  21776243.9774                   21776244.7894
 -25708431.82848 -20020439.94145  21967104.2344                   21967100.1414
 11  8 28  2  4 30.0000000  0  8G12G29G26G10G15G05G25G02
 -19777646.40247 -15399584.03946  22080624.1484                   22080622.4734
 -11711777.20748  -9116429.77746  22067112.0634                   22067110.3834
  -6921246.88747  -5382654.02345  22913273.7114                   22913271.6884
 -10056858.85546  -7825776.60243  24543132.7504                   24543132.9064
    517677.35247    414005.63744  23805102.7344                   23805102.0234
 -25674127.85948 -19993860.85946  20722221.3444                   20722218.4024
 -16781099.66448 -13064526.53546  21776130.9844                   21776131.4144
 -25692380.09448 -20007932.09845  21970158.5634                   21970154.5704
 11  8 28  2  5  0.0000000  0  8G12G29G26G10G15G05G25G02
 -19724636.14148 -15358277.35246  22090711.6174                   22090709.7664
 -11813539.84047  -9195725.27046  22047746.9694                   22047745.1884
  -7033278.18747  -5469951.05145  22891954.4384                   22891953.4694
  -9972064.87146  -7759703.35243  24559268.7504                   24559268.8594
    397160.39547    320096.43444  23782169.5784                   23782168.6174
 -25651292.49648 -19976067.05546  20726566.4694                   20726564.2814
 -16781161.02748 -13064574.34846  21776119.4224                   21776119.5984
 -25676241.62548 -19995356.66846  21973229.7974                   21973225.9264
 11  8 28  2  5 30.0000000  0  8G12G29G26G10G15G05G25G02
 -19671311.49647 -15316725.69146  22100859.1884                   22100857.2424
 -11915142.38348  -9274896.02746  22028412.7034                   22028410.8714
  -7145080.63347  -5557069.77345  22870678.7424                   22870678.1994
  -9887227.97346  -7693596.69143  24575413.2344                   24575413.1914
    276639.80946    226184.41444  23759234.7974                   23759233.8324
 -25628028.09448 -19957938.93747  20730993.6724                   20730991.0824
 -16780690.66048 -13064207.82846  21776208.6334                   21776209.2274
 -25660017.29748 -19982714.32845  21976316.9774                   21976312.9144
 11  8 28  2  6  0.0000000  0  8G12G29G26G10G15G05G25G02
 -19617672.75447 -15274929.27346  22111066.0234                   22111064.2234
 -12016580.32848  -9353938.52346  22009109.5394                   22009108.0084
  -7256647.75447  -5644005.11745  22849448.5314                   22849447.1804
  -9802348.24646  -7627456.67243  24591565.1564                   24591565.0314
    156120.86746    132273.68044  23736301.0554                   23736300.0864
 -25604333.99248 -19939476.00047  20735502.6174                   20735499.9184
 -16779687.59848 -13063426.22346  21776399.3914                   21776399.9414
 -25643704.22747 -19970002.85945  21979421.2344                   21979417.5864
 11  8 28  2  6 30.0000000  0  8G12G29G26G10G15G05G25G02
 -19563722.90647 -15232890.43046  22121332.6024                   22121330.8634
 -12117851.40648  -9432851.00446  21989838.4844                   21989836.7384
  -7367975.98447  -5730754.30145  22828263.6174                   22828262.2464
  -9717427.75046  -7561284.85243  24607725.0704                   24607724.6764
     35606.66447     38366.62944  23713367.5084                   23713366.3094
 -25580212.85948 -19920680.30146  20740092.5474                   20740089.9304
 -16778153.23848 -13062230.62146  21776691.5944                   21776692.1994
 -25627302.41448 -19957222.21945  21982542.5704                   21982538.0594
 11  8 28  2  7  0.0000000  0  7G12G29G26G15G05G25G02
 -19509467.14847 -15190613.24246  22131656.8834                   22131655.2774
 -12218955.55148  -9511633.39546  21970598.7664                   21970596.9304
  -7479063.71147  -5817316.09045  22807123.9384                   22807123.1684
    -84902.10947    -55536.19544  23690435.1094                   23690434.4024
 -25555668.91448 -19901555.14847  20744763.0474                   20744760.5164
 -16776091.42248 -13060624.01246  21777083.9924                   21777084.6374
 -25610813.68747 -19944373.87145  21985680.2504                   21985675.8954
 11  8 28  2  7 30.0000000  0  7G12G29G26G15G05G25G02
 -19454905.67647 -15148097.81646  22142039.6804                   22142038.0744
 -12319887.43048  -9590281.56246  21951391.8524                   21951390.3444
  -7589904.53547  -5903685.48845  22786031.7194                   22786030.6094
   -205399.69947   -149430.25444  23667505.1564                   23667504.5314
 -25530701.89848 -19882100.32047  20749514.2814                   20749511.6024
 -16773500.95348 -13058605.46946  21777576.7734                   21777577.5084
 -25594235.23048 -19931455.60545  21988835.1254                   21988830.5594
 11  8 28  2  8  0.0000000  0  7G12G29G26G15G05G25G02
 -19400035.93447 -15105342.19146  22152480.8674                   22152479.5084
 -12420640.02748  -9668790.01646  21932219.3754                   21932217.5824
  -7700489.59447  -5989855.57045  22764988.1174                   22764986.2974
   -325877.82047   -243309.20744  23644578.7814                   23644578.0084
 -25505308.37948 -19862313.15247  20754346.2974                   20754343.9654
 -16770378.17648 -13056172.14546  21778170.9304                   21778171.6334
 -25577561.36748 -19918462.98045  21992007.7814                   21992004.0314
 11  8 28  2  8 30.0000000  0  7G12G29G26G15G05G25G02
 -19344856.55147 -15062345.28946  22162981.0864                   22162979.3984
 -12521206.84448  -9747153.71146  21913082.3284                   21913080.5314
  -7810810.75447  -6075820.03545  22743994.0554                   22743992.8524
   -446329.28147   -337167.34844  23621657.3834                   23621656.7234
 -25479486.28948 -19842192.03546  20759260.3984                   20759257.6684
 -16766720.36348 -13053321.91046  21778867.2344                   21778867.4304
 -25560787.72348 -19905392.61745  21995200.0784                   21995195.7854
 11  8 28  2  9  0.0000000  0  8G12G29G26G21G15G05G25G02
 -19289377.98848 -15019115.24246  22173539.1954                   22173536.9734
 -12621592.47748  -9825376.23046  21893979.6564                   21893977.6294
  -7920871.33647  -6161581.45745  22723050.6954                   22723049.3324
   6184906.85256   4826875.90253  25184301.7504                   25184300.9344
   -566758.30147   -431008.02344  23598740.5704                   23598740.2974
 -25453245.15248 -19821744.39846  20764253.5164                   20764250.9654
 -16762536.36748 -13050061.66046  21779663.2274                   21779663.7584
 -25543921.16448 -19892249.84045  21998409.7274                   21998405.3404
 11  8 28  2  9 30.0000000  0  8G12G29G26G21G15G05G25G02
 -19233607.98448 -14975658.10246  22184151.5944                   22184149.3794
 -12721799.52348  -9903459.58646  21874910.4454                   21874908.9574
  -8030672.71947  -6247140.89145  22702156.1094                   22702154.8094
   6105267.13346   4764819.09443  25169147.1564                   25169145.7424
   -687166.78947   -524832.69544  23575827.5704                   23575826.8754
 -25426591.84048 -19800975.57046  20769325.5944                   20769322.9454
 -16757832.77748 -13046396.53546  21780558.3754                   21780559.1454
 -25526966.60248 -19879038.48845  22001635.9304                   22001631.5314
 11  8 28  2 10  0.0000000  0  8G12G29G26G21G15G05G25G02
 -19177556.19947 -14931981.41046  22194817.7034                   22194816.0394
 -12821832.50448  -9981407.32446  21855874.8134                   21855873.2584
  -8140217.91047  -6332500.70745  22681309.7734                   22681308.5354
   6025623.09846   4702758.89843  25153991.3364                   25153990.0314
   -807558.77347   -618644.52744  23552917.8674                   23552916.6684
 -25399535.91848 -19779893.03146  20774474.2584                   20774471.6174
 -16752618.19548 -13042333.23446  21781550.7194                   21781551.1844
 -25509930.55548 -19865763.64145  22004878.0164                   22004873.7664
 11  8 28  2 10 30.0000000  0  8G12G29G26G21G15G05G25G02
 -19121225.85247 -14888087.64846  22205536.8834                   22205535.0744
 -12921689.48848 -10059217.91846  21836872.5314                   21836871.0944
  -8249503.37947  -6417658.13745  22660513.5234                   22660512.4804
   5945974.15646   4640694.92643  25138834.3594                   25138833.1564
   -927931.67647   -712441.48844  23530012.0004                   23530010.9454
 -25372079.59048 -19758498.48446  20779699.0784                   20779696.4734
 -16746894.42248 -13037873.16046  21782639.5474                   21782640.5314
 -25492812.62948 -19852425.01245  22008134.9224                   22008131.0274
 11  8 28  2 11  0.0000000  0  8G12G29G26G21G15G05G25G02
 -19064616.61347 -14843976.57445  22216309.3284                   22216307.6054
 -13021364.66048 -10136886.83646  21817905.3444                   21817903.1914
  -8358522.18047  -6502607.78545  22639768.1644                   22639766.7774
   5866323.02046   4578629.19543  25123677.0784                   25123676.1644
  -1048278.62147   -806218.21544  23507110.7734                   23507109.6134
 -25344221.82848 -19736791.12946  20784999.9774                   20784997.5314
 -16740659.76248 -13033015.00046  21783826.3524                   21783827.0824
 -25475609.50048 -19839019.97345  22011409.0084                   22011404.6524
 11  8 28  2 11 30.0000000  0  8G12G29G26G21G15G05G25G02
 -19007731.12147 -14799650.23845  22227134.3204                   22227132.3524
 -13120855.57448 -10214412.17246  21798972.9614                   21798970.8714
  -8467270.35247  -6587346.56645  22619073.5314                   22619072.5434
   5786669.14146   4516561.32843  25108519.4304                   25108518.5664
  -1168596.71147   -899972.47744  23484214.2034                   23484213.7544
 -25315964.56248 -19714772.48446  20790377.5084                   20790374.7894
 -16733915.82448 -13027760.00446  21785109.6724                   21785109.9534
 -25458320.50048 -19825548.02045  22014698.7194                   22014695.2774
 11  8 28  2 12  0.0000000  0  8G12G29G26G21G15G05G25G02
 -18950570.39147 -14755109.43745  22238011.7814                   22238009.5234
 -13220157.86348 -10291790.53946  21780076.0234                   21780074.1844
  -8575741.94947  -6671869.82045  22598432.2734                   22598430.5554
   5707014.31346   4454492.73043  25093361.2034                   25093359.9734
  -1288880.91047   -993700.29744  23461325.1724                   23461324.1214
 -25287308.13748 -19692442.79346  20795830.5944                   20795827.8284
 -16726662.32448 -13022107.93046  21786489.7664                   21786490.5664
 -25440943.30548 -19812007.35545  22018006.0554                   22018001.0594
 11  8 28  2 12 30.0000000  0  8G12G29G26G21G15G05G25G02
 -18893137.14847 -14710356.29345  22248940.5864                   22248939.0704
 -13319268.98048 -10369019.94146  21761215.8914                   21761213.7704
  -8683933.25847  -6756174.66445  22577844.2194                   22577842.6724
   5627358.10946   4392423.04743  25078202.5944                   25078202.0044
  -1409128.03947  -1087399.29744  23438442.1174                   23438441.5474
 -25258254.73848 -19669803.78546  20801358.9774                   20801356.3204
 -16718900.91048 -13016060.09846  21787966.8364                   21787967.4654
 -25423477.69548 -19798397.77745  22021329.0864                   22021324.5984
 11  8 28  2 13  0.0000000  0  8G12G29G26G21G15G05G25G02
 -18835434.99247 -14665393.60945  22259921.2424                   22259919.1454
 -13418187.39148 -10446099.18446  21742392.2584                   21742390.6174
  -8791841.41847  -6840258.88745  22557309.7424                   22557308.7664
   5547698.83246   4330351.00443  25063044.3524                   25063043.5004
  -1529335.93446  -1181067.69944  23415567.2114                   23415566.2544
 -25228807.36748 -19646857.77346  20806962.8284                   20806960.1724
 -16710634.12148 -13009618.46146  21789540.0004                   21789540.9694
 -25405924.19548 -19784719.71545  22024669.6564                   22024665.3244
 11  8 28  2 13 30.0000000  0  8G12G29G26G21G15G05G25G02
 -18777465.02747 -14620222.23045  22270952.5234                   22270950.4884
 -13516908.96548 -10523025.04746  21723606.0784                   21723604.0044
  -8899460.37547  -6924117.74245  22536830.9384                   22536830.0434
   5468038.13746   4268277.82043  25047885.6884                   25047884.2704
  -1649499.53146  -1274701.56644  23392701.0784                   23392699.6214
 -25198966.40648 -19623605.07446  20812641.5234                   20812638.8014
 -16701861.85948 -13002782.95346  21791209.3674                   21791209.7704
 -25388280.32848 -19770971.25845  22028027.3054                   22028023.1684
 11  8 28  2 14  0.0000000  0  8G12G29G26G21G15G05G25G02
 -18719230.19147 -14574844.46145  22282034.2504                   22282032.2734
 -13615431.40648 -10599795.73446  21704857.8054                   21704855.9734
  -9006787.12547  -7007748.91845  22516406.9924                   22516405.4384
   5388375.39546   4206203.02743  25032726.4144                   25032724.8164
  -1769616.14546  -1368298.83244  23369843.8984                   23369842.7424
 -25168734.37948 -19600047.63746  20818394.1334                   20818391.5234
 -16692586.29748 -12995555.25446  21792974.3364                   21792975.1024
 -25370546.42648 -19757152.62545  22031401.9534                   22031397.3674
 11  8 28  2 14 30.0000000  0  8G12G29G26G21G15G05G25G02
 -18660733.27047 -14529262.46145  22293166.1644                   22293163.9264
 -13713751.12548 -10676408.45346  21686148.2974                   21686146.6484
  -9113816.40247  -7091148.27045  22496039.8914                   22496038.8164
   5308711.11746   4144127.02343  25017565.7734                   25017564.4534
  -1889681.38346  -1461856.05944  23346995.9064                   23346994.5744
 -25138112.30548 -19576186.28146  20824221.3754                   20824218.5704
 -16682807.90248 -12987935.74646  21794835.5164                   21794836.1214
 -25352720.42647 -19743262.23445  22034793.8364                   22034789.9734
 11  8 28  2 15  0.0000000  0  8G12G29G26G21G15G05G25G02
 -18601980.32447 -14483480.97345  22304346.1644                   22304344.4144
 -13811869.46948 -10752864.26646  21667477.5394                   21667475.2734
  -9220548.30147  -7174315.93445  22475729.7114                   22475727.4534
   5229041.04346   4082046.54343  25002406.2974                   25002404.0314
  -2009695.92646  -1555373.79744  23324157.5784                   23324156.5354
 -25107106.23048 -19552025.69946  20830121.9224                   20830118.9924
 -16672532.27748 -12979928.77746  21796790.6804                   21796791.3984
 -25334805.71548 -19729302.73445  22038202.8834                   22038199.0634
 11  8 28  2 15 30.0000000  0  8G12G29G26G21G15G05G25G02
 -18542973.55147 -14437501.68445  22315574.8594                   22315572.7814
 -13909783.12148 -10829160.56646  21648844.5784                   21648842.4804
  -9326978.37547  -7257248.39145  22455476.4224                   22455475.0314
   5149365.41446   4019961.69542  24987243.7274                   24987241.2894
  -2129656.02046  -1648849.08644  23301329.4774                   23301329.1644
 -25075717.77748 -19527567.15246  20836094.7424                   20836091.9924
 -16661760.66448 -12971535.32846  21798840.6644                   21798840.7934
 -25316801.89848 -19715273.78545  22041629.3134                   22041624.7114
 11  8 28  2 16  0.0000000  0  8G12G29G26G21G15G05G25G02
 -18483713.23447 -14391324.84046  22326852.2034                   22326850.2114
 -14007487.56248 -10905293.85246  21630251.8054                   21630249.8164
  -9433100.17647  -7339940.63745  22435281.9774                   22435280.4924
   5069686.43846   3957874.26242  24972081.2034                   24972079.1884
  -2249555.82047  -1742277.39845  23278513.8444                   23278512.8834
 -25043946.40248 -19502810.23446  20842140.6724                   20842138.1764
 -16650492.22348 -12962754.74246  21800984.4844                   21800985.4224
 -25298705.46947 -19701172.67645  22045072.6884                   22045068.9534
 11  8 28  2 16 30.0000000  0  8G12G29G26G21G15G05G25G02
 -18424206.13347 -14344955.68445  22338175.5314                   22338173.7854
 -14104984.06648 -10981265.10546  21611698.9064                   21611696.8954
  -9538913.74247  -7422392.70345  22415146.5704                   22415144.7154
   4989999.80546   3895780.84443  24956917.5234                   24956915.8794
  -2369396.15647  -1835659.35944  23255708.7974                   23255707.6214
 -25011798.44148 -19477759.86746  20848258.2734                   20848255.4774
 -16638732.85548 -12953591.60946  21803222.3984                   21803223.0944
 -25280520.03148 -19687002.21145  22048533.2504                   22048529.2814
 11  8 28  2 17  0.0000000  0  8G12G29G26G21G15G05G25G02
 -18364451.86347 -14298393.93045  22349546.2814                   22349544.8594
 -14202266.56648 -11057069.60546  21593186.4224                   21593184.6564
  -9644412.20747  -7504599.23845  22395070.5084                   22395068.8054
   4910308.21146   3833683.58243  24941752.4454                   24941751.0004
  -2489170.48847  -1928989.87545  23232916.5554                   23232915.5824
 -24979272.63748 -19452415.07846  20854447.5944                   20854445.0434
 -16626480.90648 -12944044.64846  21805553.5944                   21805554.2074
 -25262241.75448 -19672759.38745  22052011.4144                   22052007.1764
 11  8 28  2 17 30.0000000  0  8G12G29G26G21G15G05G25G02
 -18304454.72347 -14251642.93045  22360963.7504                   22360961.8404
 -14299334.40648 -11132706.82846  21574715.4614                   21574713.1764
  -9749593.16047  -7586558.35545  22375055.2504                   22375053.9804
   4830609.80146   3771581.07042  24926586.5394                   24926584.6374
  -2608877.56647  -2022268.02345  23210137.3204                   23210135.6054
 -24946373.03548 -19426779.01246  20860708.0554                   20860705.5394
 -16613739.96948 -12934116.66446  21807978.3444                   21807978.8834
 -25243871.71548 -19658445.08245  22055507.6644                   22055502.8834
 11  8 28  2 18  0.0000000  0  8G12G29G26G21G15G05G25G02
 -18244219.03947 -14204706.04345  22372426.0164                   22372424.4144
 -14396186.04748 -11208175.58646  21556285.3444                   21556282.9344
  -9854453.81647  -7668267.89145  22355101.1174                   22355099.5204
   4750903.16846   3709472.06642  24911418.0004                   24911417.1564
  -2728515.20747  -2115492.03945  23187370.4774                   23187369.8134
 -24913102.74248 -19400854.10546  20867039.3204                   20867036.6374
 -16600513.07448 -12923810.00846  21810495.4534                   21810495.7384
 -25225410.75847 -19644059.91445  22059019.8834                   22059015.7304
 11  8 28  2 18 30.0000000  0  8G12G29G26G21G15G05G25G02
 -18183746.97347 -14157584.98045  22383933.4454                   22383931.8404
 -14492818.35248 -11283473.42646  21537896.2504                   21537894.3284
  -9958989.49247  -7749724.19945  22335208.4384                   22335206.9454
   4671188.55946   3647356.88343  24896249.0314                   24896248.2624
  -2848079.25847  -2208658.72345  23164618.3444                   23164617.0044
 -24879463.38348 -19374641.60546  20873440.8364                   20873438.2304
 -16586801.25448 -12913125.46946  21813104.8674                   21813105.3954
 -25206857.45747 -19629602.80545  22062550.4774                   22062546.9064
 11  8 28  2 19  0.0000000  0  8G12G29G26G21G15G05G25G02
 -18123040.60547 -14110281.34045  22395485.7814                   22395483.9064
 -14589228.17248 -11358597.91446  21519550.5164                   21519548.2894
 -10063196.03947  -7830924.03545  22315378.3524                   22315377.3204
   4591466.25046   3585235.64143  24881078.4224                   24881076.9454
  -2967565.71547  -2301764.94144  23141880.4774                   23141879.3984
 -24845456.65248 -19348142.85546  20879912.2814                   20879909.5164
 -16572605.79748 -12902064.08646  21815805.9774                   21815806.5274
 -25188210.82847 -19615072.96145  22066098.8984                   22066094.9654
 11  8 28  2 19 30.0000000  0  8G12G29G26G21G15G05G25G02
 -18062104.06647 -14062798.33645  22407080.9774                   22407079.8484
 -14685414.15248 -11433547.97746  21501246.5554                   21501244.5554
 -10167070.76647  -7911865.33645  22295611.4224                   22295610.2034
   4511734.28146   3523106.99643  24865905.3594                   24865905.1454
  -3086973.16047  -2394809.59844  23119157.9844                   23119156.3834
 -24811085.92648 -19321360.46546  20886452.6414                   20886450.0004
 -16557930.03148 -12890628.43046  21818598.6884                   21818599.1374
 -25169471.71147 -19600471.04745  22069665.1024                   22069661.1374
 11  8 28  2 20  0.0000000  0  8G12G29G26G21G15G05G25G02
 -18000942.09847 -14015139.68745  22418720.0634                   22418718.8164
 -14781375.71548 -11508323.16846  21482985.4924                   21482983.6214
 -10270612.02747  -7992546.79345  22275908.8914                   22275907.3204
   4431990.86346   3460969.34043  24850731.0084                   24850730.2074
  -3206300.05147  -2487791.50444  23096451.0634                   23096449.4534
 -24776355.22748 -19294297.57846  20893061.7424                   20893058.8954
 -16542777.78548 -12878821.48446  21821482.0554                   21821482.2774
 -25150641.31247 -19585798.01245  22073248.2114                   22073244.1724
 11  8 28  2 20 30.0000000  0  8G12G29G26G21G15G05G25G02
 -17939555.95347 -13967306.34445  22430401.6414                   22430399.7504
 -14877108.29348 -11582919.91846  21464768.2734                   21464765.8054
 -10373813.66847  -8072963.59445  22256269.8594                   22256268.3594
   4352237.20346   3398823.69543  24835554.0004                   24835553.8674
  -3325541.34447  -2580706.72744  23073759.9064                   23073758.7114
 -24741265.05948 -19266954.58247  20899739.3754                   20899736.5594
 -16527149.09048 -12866643.28546  21824456.4454                   21824456.6024
 -25131717.59447 -19571052.25445  22076849.3524                   22076844.8754
 11  8 28  2 21  0.0000000  0  8G12G29G26G21G15G05G25G02
 -17877947.38347 -13919299.68745  22442125.1094                   22442123.8594
 -14972608.65648 -11657335.71946  21446595.2114                   21446593.0354
 -10476671.29747  -8153112.34045  22236696.6484                   22236694.8914
   4272473.68846   3336670.38343  24820375.9224                   24820374.7814
  -3444692.65647  -2673551.81244  23051086.2504                   23051084.8984
 -24705816.53948 -19239332.35247  20906484.5784                   20906481.8954
 -16511045.02048 -12854094.65646  21827520.6804                   21827521.2304
 -25112698.90247 -19556232.48845  22080468.6954                   22080464.2344
 11  8 28  2 21 30.0000000  0  8G12G29G26G21G15G05G25G02
 -17816121.31247 -13871123.56245  22453890.5314                   22453888.8794
 -15067876.02348 -11731569.97746  21428466.3134                   21428463.6294
 -10579182.75047  -8232991.34845  22217189.5634                   22217187.4574
   4192698.45746   3274507.94943  24805195.0474                   24805193.4614
  -3563752.87947  -2766325.91444  23028429.5784                   23028427.5784
 -24670013.85248 -19211434.14846  20913297.7194                   20913295.0784
 -16494469.42248 -12841178.61346  21830674.8054                   21830675.2854
 -25093586.68047 -19541339.82845  22084105.4224                   22084101.2734
 11  8 28  2 22  0.0000000  0  8G12G29G26G21G15G05G25G02
 -17754080.69147 -13822780.24645  22465696.6254                   22465694.7934
 -15162908.05148 -11805620.84846  21410382.0234                   21410379.9104
 -10681344.65647  -8312597.98045  22197748.5864                   22197746.7934
   4112910.78946   3212335.80543  24790012.2114                   24790011.2774
  -3682718.80147  -2859026.53944  23005790.8594                   23005789.2854
 -24633859.77748 -19183262.13346  20920177.6954                   20920174.7664
 -16477424.55148 -12827896.89846  21833918.4144                   21833918.9384
 -25074380.41847 -19526373.91045  22087760.1724                   22087756.1054
 11  8 28  2 22 30.0000000  0  8G12G29G26G21G15G05G25G02
 -17691828.55547 -13774272.09045  22477542.5784                   22477540.8204
 -15257702.52348 -11879486.62146  21392343.4304                   21392341.0944
 -10783153.37147  -8391929.39545  22178375.2504                   22178373.0864
   4033110.02746   3150153.48043  24774826.3444                   24774825.8714
  -3801587.42647  -2951651.35245  22983171.1884                   22983168.9924
 -24597356.35548 -19154817.90246  20927123.8754                   20927121.3014
 -16459912.59047 -12814251.19946  21837250.8914                   21837251.4614
 -25055079.96547 -19511334.59045  22091433.2974                   22091428.9264
 11  8 28  2 23  0.0000000  0  8G12G29G26G21G15G05G25G02
 -17629367.62547 -13725601.26645  22489428.6094                   22489426.8834
 -15352256.45348 -11953164.95746  21374350.4534                   21374348.2894
 -10884604.56647  -8470982.23445  22159069.8284                   22159067.7734
   3953296.23446   3087960.98044  24759638.5704                   24759637.1024
  -3920355.20747  -3044197.58244  22960570.1564                   22960568.5554
 -24560505.61348 -19126103.03546  20934136.5234                   20934133.7504
 -16441935.27048 -12800242.89546  21840672.0784                   21840672.2384
 -25035684.39147 -19496221.13745  22095123.9224                   22095119.7464
 11  8 28  2 23 30.0000000  0  8G12G29G26G21G15G05G25G02
 -17566699.44547 -13676768.93445  22501354.1174                   22501351.7154
 -15446565.95348 -12026652.83246  21356403.7584                   21356401.7114
 -10985693.36747  -8549752.68045  22139832.9224                   22139831.4064
   3873470.18046   3025758.94543  24744447.9534                   24744447.1054
  -4039017.46947  -3136661.60545  22937989.4454                   22937987.6914
 -24523308.72348 -19097118.44546  20941214.5784                   20941212.1804
 -16423493.53548 -12785872.70746  21844181.5704                   21844181.7704
 -25016192.03547 -19481032.28545  22098833.0004                   22098828.6454
 11  8 28  2 24  0.0000000  0  8G12G29G26G21G15G05G25G02
 -17503827.55947 -13627777.87545  22513317.8984                   22513316.6684
 -15540628.94148 -12099948.61346  21338504.5554                   21338502.2154
 -11086416.54347  -8628238.23445  22120665.6644                   22120663.9694
   3793631.09847   2963546.75843  24729255.9304                   24729253.7894
  -4157571.52047  -3229041.29344  22915430.0474                   22915427.4224
 -24485768.35548 -19067866.19946  20948358.3914                   20948355.7854
 -16404589.89548 -12771142.59046  21847778.6174                   21847778.9694
 -24996602.80148 -19465767.93445  22102560.7894                   22102556.3444
 11  8 28  2 24 30.0000000  0  8G12G29G26G21G15G05G25G02
 -17440756.03147 -13578631.24645  22525320.0554                   22525318.5824
 -15634444.00048 -12173051.21546  21320651.9224                   21320649.4454
 -11186771.55947  -8706436.90645  22101569.3984                   22101566.8054
   3713777.46946   2901323.23043  24714060.1644                   24714058.3554
  -4276015.78147  -3321335.43045  22892890.1884                   22892889.0084
 -24447888.18048 -19038349.18446  20955566.8674                   20955564.0594
 -16385227.79748 -12756055.25046  21851462.8134                   21851463.5664
 -24976917.63747 -19450428.83245  22106306.6254                   22106302.5594
 11  8 28  2 25  0.0000000  0  8G12G29G26G21G15G05G25G02
 -17377488.20747 -13529331.67245  22537359.0234                   22537358.2544
 -15728009.68448 -12245959.49246  21302846.6334                   21302844.6334
 -11286755.42247  -8784346.35945  22082542.6804                   22082540.6884
   3633907.89546   2839087.25443  24698861.2424                   24698858.9774
  -4394347.73847  -3413542.05945  22870371.8134                   22870370.8324
 -24409671.03948 -19008569.58646  20962839.2814                   20962836.4694
 -16365410.01648 -12740612.82846  21855234.0704                   21855234.5514
 -24957136.28147 -19435014.78145  22110071.1414                   22110067.0474
 11  8 28  2 25 30.0000000  0  8G12G29G26G21G15G05G25G02
 -17314026.36347 -13479880.90245  22549436.3444                   22549434.5824
 -15821322.41048 -12318670.67646  21285089.9454                   21285087.3914
 -11386363.28547  -8861962.83245  22063587.3594                   22063585.6804
   3554023.22746   2776839.51243  24683658.8914                   24683657.6454
  -4512562.54347  -3505657.41045  22847876.7584                   22847875.7424
 -24371118.08248 -18978528.31646  20970175.3914                   20970172.8524
 -16345137.80548 -12724816.29346  21859091.6884                   21859092.0434
 -24937257.61347 -19419524.91045  22113853.9534                   22113849.2974
 11  8 28  2 26  0.0000000  0  8G12G29G26G21G15G05G25G02
 -17250373.03147 -13430280.93445  22561548.8284                   22561547.3484
 -15914379.46948 -12391182.64146  21267381.6884                   21267379.6094
 -11485591.40247  -8939283.39845  22044705.1414                   22044703.1994
   3474122.97746   2714579.60943  24668454.8674                   24668453.0124
  -4630657.08247  -3597679.04745  22825403.7034                   22825402.4534
 -24332231.70348 -18948227.23846  20977575.5554                   20977572.7424
 -16324413.12948 -12708667.20746  21863035.5864                   21863036.0664
 -24917280.98447 -19403958.70345  22117655.3984                   22117650.9264
 11  8 28  2 26 30.0000000  0  8G12G29G26G21G15G05G25G02
 -15611115.78547 -12152937.64145  22873489.0394                   22873487.5904
 -14431757.41448 -11235892.68746  21549515.2584                   21549513.1524
 -10009015.09847  -7788704.41845  22325688.4384                   22325686.7234
   4969627.27046   3879907.72343  24953039.4694                   24953037.5554
  -3173206.60247  -2462003.28145  23102747.5314                   23102745.9694
 -22717597.71148 -17690070.88346  21284830.2274                   21284827.5274
 -14727821.23448 -11464569.62146  22166856.8444                   22166857.2154
 -23321788.35947 -18160717.68745  22421266.7424                   22421263.4454
 11  8 28  2 27  0.0000000  0  8G12G29G26G21G15G05G25G02
 -15547094.15247 -12103050.66845  22885671.7504                   22885670.4804
 -14524300.52048 -11308004.17246  21531904.8204                   21531902.5664
 -10107477.86347  -7865428.60245  22306951.5004                   22306949.7584
   4889689.71146   3817618.76243  24937828.0164                   24937825.8094
  -3291056.33247  -2553834.15645  23080321.2424                   23080320.1684
 -22678056.47348 -17659259.52346  21292354.5944                   21292351.6214
 -14706203.54747 -11447724.68746  22170970.8134                   22170971.4344
 -23301619.12947 -18145001.42645  22425105.7734                   22425101.5004
 11  8 28  2 27 30.0000000  0  8G12G29G26G21G15G05G25G02
 -15482891.85247 -12053022.91845  22897889.5864                   22897887.8674
 -14616582.32848 -11379912.04746  21514344.1414                   21514341.8054
 -10205551.77047  -7941849.77745  22288288.8674                   22288287.1724
   4809733.77046   3755315.48043  24922612.7504                   24922610.7664
  -3408778.22347  -2645565.40245  23057919.5164                   23057918.5084
 -22638190.33248 -17628194.99246  21299940.6094                   21299938.2704
 -14684142.16448 -11430534.00046  22175168.8594                   22175169.6094
 -23281352.18047 -18129208.98845  22428962.3204                   22428957.8754
 11  8 28  2 28  0.0000000  0  9G12G29G26G21G15G05G25G02G18
 -15418511.10947 -12002856.13345  22910140.7424                   22910139.1374
 -14708599.33248 -11451613.58646  21496833.8054                   21496831.8834
 -10303232.14547  -8017964.30545  22269700.6094                   22269699.2194
   4729759.77046   3692998.13743  24907393.1414                   24907392.1294
  -3526367.94947  -2737193.66845  23035542.7114                   23035541.1414
 -22598001.12948 -17596878.73846  21307588.5314                   21307585.8284
 -14661638.40648 -11412998.61746  22179451.1644                   22179451.9224
 -23260986.03947 -18113339.27345  22432837.9454                   22432833.4964
   7711268.66856   6019050.64153  24802397.6094                   24802397.7664
 11  8 28  2 28 30.0000000  0  9G12G29G26G21G15G05G25G02G18
 -15353962.14147 -11952558.25845  22922424.3284                   22922422.0044
 -14800356.52748 -11523112.67646  21479372.9614                   21479370.9384
 -10400523.09847  -8093775.37545  22251186.5164                   22251185.0124
   4649759.87146   3630660.62943  24892170.5554                   24892168.4804
  -3643830.02347  -2828722.48045  23013190.2974                   23013189.1294
 -22557498.76648 -17565318.46146  21315295.6334                   21315293.1454
 -14638702.23448 -11395126.28146  22183815.6804                   22183816.2664
 -23240527.91047 -18097397.87945  22436730.9224                   22436726.3794
   7598665.08246   5931307.84843  24780969.3524                   24780969.2274
 11  8 28  2 29  0.0000000  0  9G12G29G26G21G15G05G25G02G18
 -15289252.15247 -11902134.89845  22934738.0634                   22934735.8594
 -14891855.27748 -11594410.38346  21461961.4064                   21461959.2664
 -10497424.76647  -8169283.12945  22232746.7974                   22232745.0124
   4569729.50446   3568299.33243  24876940.6254                   24876939.1884
  -3761164.77347  -2920152.07845  22990861.9614                   22990860.8714
 -22516689.33648 -17533518.89146  21323061.5704                   21323058.8014
 -14615339.73848 -11376921.75046  22188261.3284                   22188262.1884
 -23219981.09447 -18081387.37945  22440640.9454                   22440636.1884
   7486220.78946   5843689.21143  24759571.4924                   24759571.6334
 11  8 28  2 29 30.0000000  0  9G12G29G26G21G15G05G25G02G18
 -15224381.10547 -11851586.05945  22947082.7034                   22947080.5124
 -14983089.98848 -11665502.34446  21444600.0474                   21444597.8014
 -10593930.35547  -8244482.23845  22214382.3674                   22214380.8914
   4489671.16046   3505916.28943  24861706.0234                   24861704.7894
  -3878366.46547  -3011477.99245  22968559.2734                   22968558.2544
 -22475571.98048 -17501479.39846  21330886.1644                   21330883.2974
 -14591550.20348 -11358384.47746  22192788.7664                   22192789.0664
 -23199342.26247 -18065305.18045  22444568.1954                   22444563.7424
   7373940.28146   5756198.13743  24738205.5704                   24738205.7664
 11  8 28  2 30  0.0000000  0  9G12G29G26G21G15G05G25G02G18
 -15159349.92247 -11800912.41845  22959458.0784                   22959456.1804
 -15074056.26648 -11736385.12946  21427289.6334                   21427287.3714
 -10690034.74647  -8319368.73845  22196094.2814                   22196093.1644
   4409586.76246   3443512.91443  24846467.5474                   24846464.5944
  -3995429.89147  -3102696.16045  22946283.1334                   22946281.1914
 -22434147.36748 -17469200.48446  21338768.9064                   21338766.3984
 -14567334.19548 -11339514.86746  22197396.7814                   22197397.1294
 -23178608.75048 -18049149.20345  22448513.7114                   22448509.6054
   7261826.89546   5668837.32843  24716870.3674                   24716870.8984
 11  8 28  2 30 30.0000000  0  9G12G29G26G21G15G05G25G02G18
 -15094161.71147 -11750116.42645  22971862.8284                   22971860.7734
 -15164752.11748 -11807057.20346  21410030.8134                   21410028.4804
 -10785734.09847  -8393939.60945  22177883.3984                   22177881.5984
   4329475.80146   3381088.82443  24831222.1724                   24831220.7384
  -4112351.94147  -3193804.17645  22924033.8674                   22924032.1334
 -22392418.20748 -17436684.25446  21346709.5314                   21346706.9414
 -14542694.23048 -11320314.89846  22202085.6174                   22202086.1844
 -23157780.35247 -18032919.29745  22452477.0004                   22452473.0904
   7149881.91046   5581607.69142  24695568.4304                   24695566.6174
 11  8 28  2 31  0.0000000  0  9G12G29G26G21G15G05G25G02G18
 -15028817.70747 -11699199.03545  22984297.1804                   22984294.8954
 -15255173.22348 -11877515.18746  21392824.2664                   21392821.9024
 -10881023.38347  -8468190.94945  22159750.5084                   22159748.2624
   4249339.27347   3318644.80143  24815972.9144                   24815970.6604
  -4229127.52747  -3284798.05945  22901811.5314                   22901809.3244
 -22350384.78548 -17403930.93046  21354708.4614                   21354705.8364
 -14517630.98048 -11300785.10546  22206854.8984                   22206855.4574
 -23136854.67247 -18016613.57045  22456458.8834                   22456455.1484
   7038108.26246   5494511.57842  24674298.3054                   24674297.2814
 11  8 28  2 31 30.0000000  0  9G12G29G26G21G15G05G25G02G18
 -14963317.89147 -11648160.24245  22996761.2424                   22996759.7544
 -15345313.66048 -11947754.47346  21375670.9534                   21375668.7734
 -10975896.01647  -8542117.64145  22141696.8524                   22141694.8444
   4169180.30547   3256183.31643  24800719.2114                   24800717.2504
  -4345750.35247  -3375672.92245  22879618.8674                   22879617.6684
 -22308046.47348 -17370940.04746  21362765.0394                   21362762.1604
 -14492143.75048 -11280924.93746  22211705.0084                   22211705.1094
 -23115828.14147 -18000229.25045  22460460.5084                   22460456.0234
   6926509.97746   5407552.14542  24653061.4534                   24653061.1994
 11  8 28  2 32  0.0000000  0  9G12G29G26G21G15G05G25G02G18
 -14897666.69947 -11597003.48445  23009254.1484                   23009252.7934
 -15435172.83648 -12017774.57446  21358571.3834                   21358569.1524
 -11070349.48447  -8615717.69545  22123722.8914                   22123721.2154
   4088996.59047   3193702.53944  24785460.4304                   24785458.8754
  -4462218.71947  -3466427.43745  22857455.8594                   22857454.6054
 -22265407.29348 -17337714.71146  21370878.9144                   21370876.0704
 -14466236.46948 -11260737.45346  22216634.6254                   22216635.2934
 -23094701.77347 -17983767.14845  22464480.8984                   22464476.8954
   6815087.60246   5320729.72342  24631858.2504                   24631857.4654
 11  8 28  2 32 30.0000000  0  9G12G29G26G21G15G05G25G02G18
 -14831866.55147 -11545730.66045  23021775.1724                   23021773.9304
 -15524747.59048 -12087573.05546  21341526.1644                   21341523.4734
 -11164380.23047  -8688988.35945  22105829.2034                   22105826.7584
   4008788.10546   3131202.48043  24770197.5634                   24770196.5704
  -4578529.12547  -3557058.83645  22835322.4144                   22835321.0784
 -22222469.55548 -17304256.72746  21379049.8674                   21379047.2774
 -14439911.30548 -11240224.34046  22221644.0634                   22221645.0864
 -23073474.96947 -17967226.77045  22468519.8134                   22468515.7934
   6703842.65646   5234045.57843  24610688.5864                   24610688.2624
 11  8 28  2 33  0.0000000  0  9G12G29G26G21G15G05G25G02G18
 -14765920.34847 -11494344.02745  23034324.7504                   23034323.3674
 -15614034.96148 -12157147.59046  21324534.9384                   21324532.7034
 -11257984.38347  -8761926.62145  22088017.0634                   22088015.1684
   3928555.05147   3068683.29744  24754929.8674                   24754928.7114
  -4694677.93447  -3647564.33645  22813220.1174                   22813218.6374
 -22179234.44948 -17270567.03946  21387277.1094                   21387274.4774
 -14413170.15648 -11219387.09446  22226733.0004                   22226733.7704
 -23052146.50047 -17950607.18745  22472578.7584                   22472574.7544
   6592776.72347   5147500.90243  24589554.0004                   24589552.6134
 11  8 28  2 33 30.0000000  0  9G12G29G26G21G15G05G25G02G18
 -14699831.80547 -11442846.49645  23046901.0394                   23046898.8364
 -15703033.46948 -12226497.04346  21307598.9304                   21307596.9574
 -11351159.02747  -8834530.19145  22070286.5944                   22070284.5864
   3848295.94946   3006143.79344  24739657.0394                   24739656.0004
  -4810663.10947  -3737942.31645  22791149.2974                   22791147.3094
 -22135705.55548 -17236648.42246  21395560.2974                   21395557.7624
 -14386016.52748 -11198228.43446  22231900.3914                   22231900.9224
 -23030716.93747 -17933908.81245  22476656.1804                   22476651.8674
   6481890.15247   5061096.02044  24568452.6954                   24568452.4964
 11  8 28  2 34  0.0000000  0  9G12G29G26G21G15G05G25G02G18
 -14633602.62547 -11391239.37545  23059503.5864                   23059502.1334
 -15791739.04748 -12295618.23446  21290718.6804                   21290716.6884
 -11443899.41847  -8906795.40245  22052638.7344                   22052636.2194
   3768012.04746   2943584.97344  24724378.7194                   24724377.4414
  -4926479.55547  -3828188.81645  22769109.6884                   22769107.3834
 -22091883.74248 -17202501.55946  21403899.3984                   21403896.5594
 -14358451.39548 -11176749.11346  22237145.6804                   22237146.5004
 -23009184.10247 -17917129.97745  22480753.7894                   22480749.3244
   6371186.07046   4974833.30544  24547385.6254                   24547385.9454
 11  8 28  2 34 30.0000000  0  9G12G29G26G21G15G05G25G02G18
 -14567237.73847 -11339526.51245  23072133.1174                   23072130.9734
 -15880151.52348 -12364511.02746  21273894.6644                   21273892.2154
 -11536204.19147  -8978721.16445  22035073.4144                   22035071.2584
   3687700.74646   2881004.78143  24709096.4224                   24709095.2344
  -5042126.50847  -3918303.25445  22747102.7814                   22747100.7734
 -22047773.84848 -17168130.21546  21412292.9924                   21412290.7074
 -14330479.56648 -11154952.89146  22242468.6414                   22242469.1024
 -22987549.82048 -17900272.07445  22484871.4454                   22484866.8244
   6260663.15246   4888711.76244  24526354.7274                   24526354.1454
 11  8 28  2 35  0.0000000  0  9G12G29G26G21G15G05G25G02G18
 -14500739.33247 -11287709.58645  23084786.8054                   23084785.5594
 -15968267.71548 -12433172.94146  21257126.8914                   21257124.2304
 -11628068.98048  -9050304.07845  22017592.4614                   22017590.4574
   3607362.36346   2818403.52343  24693808.3594                   24693807.3714
  -5157599.77047  -4008282.33645  22725129.0394                   22725127.4884
 -22003377.25048 -17133535.47346  21420742.0084                   21420739.0274
 -14302102.62548 -11132840.98446  22247868.6174                   22247869.3284
 -22965812.70747 -17883334.06245  22489007.8834                   22489003.2814
   6150323.67646   4802733.19543  24505357.4144                   24505356.6644
 11  8 28  2 35 30.0000000  0  9G12G29G26G21G15G05G25G02G18
 -14434109.49247 -11235790.24645  23097466.6174                   23097464.4264
 -16056083.94948 -12501601.13346  21240415.7034                   21240413.5004
 -11719489.49647  -9121540.80545  22000195.0554                   22000193.2704
   3526997.37546   2755781.49243  24678515.7584                   24678513.8284
  -5272895.25047  -4098122.90245  22703189.0314                   22703187.3874
 -21958695.24248 -17098718.33246  21429244.2734                   21429241.4734
 -14273322.19548 -11110414.68446  22253345.1174                   22253346.1334
 -22943971.34447 -17866314.80545  22493163.5634                   22493159.5704
   6040169.79746   4716899.22343  24484395.5314                   24484394.6174
 11  8 28  2 36  0.0000000  0  9G12G29G26G21G15G05G25G02G18
 -14367348.97747 -11183769.09445  23110170.8524                   23110168.9924
 -16143595.87548 -12569792.19546  21223762.7504                   21223760.4964
 -11810460.11347  -9192426.96945  21982883.9144                   21982882.0274
   3446607.84446   2693140.36343  24663218.0084                   24663216.0274
  -5388007.63747  -4187820.78545  22681283.7814                   22681281.9344
 -21913728.49248 -17063679.31246  21437801.3134                   21437798.4734
 -14244138.84048 -11087674.40646  22258899.1564                   22258899.4804
 -22922023.10247 -17849212.27045  22497340.4144                   22497336.1994
   5930204.72745   4631212.41843  24463468.1884                   24463468.8874
 11  8 28  2 36 30.0000000  0  9G12G29G26G21G15G05G25G02G18
 -14300465.91047 -11131652.43045  23122897.9304                   23122896.3244
 -16230805.68048 -12637747.82846  21207167.1724                   21207165.1564
 -11900982.20747  -9262963.62545  21965658.1024                   21965655.9774
   3366188.36746   2630475.89543  24647914.1644                   24647912.5904
  -5502938.68747  -4277377.37945  22659413.5314                   22659410.8094
 -21868483.98848 -17028423.85546  21446410.8054                   21446408.2034
 -14214559.86748 -11064625.86746  22264527.3054                   22264528.1294
 -22899972.29747 -17832029.81645  22501536.4774                   22501531.8054
   5820425.53546   4545670.45743  24442578.9384                   24442578.6564
 11  8 28  2 37  0.0000000  0  9G12G29G26G21G15G05G25G02G18
 -14233461.23047 -11079441.01645  23135648.6334                   23135647.2384
 -16317708.85248 -12705464.54346  21190630.0234                   21190628.0044
 -11991050.58647  -9333146.75045  21948518.8754                   21948516.8954
   3285740.35946   2567789.21543  24632604.9304                   24632603.5354
  -5617683.21947  -4366788.63345  22637578.0554                   22637576.1094
 -21822961.98048 -16992952.16446  21455073.4774                   21455070.8984
 -14184586.01648 -11041269.62546  22270230.9614                   22270231.7894
 -22877816.56247 -17814765.59845  22505752.1644                   22505747.3484
   5710834.69146   4460275.21143  24421724.2974                   24421723.5944
 11  8 28  2 37 30.0000000  0  9G12G29G26G21G15G05G25G02G18
 -14166339.91447 -11027138.71545  23148421.6484                   23148419.5394
 -16404304.94948 -12772941.97746  21174151.5004                   21174149.1414
 -12080663.76647  -9402975.15245  21931466.0164                   21931464.1994
   3205261.46946   2505078.49643  24617290.3914                   24617289.2154
  -5732239.96547  -4456053.54345  22615777.9844                   22615776.1604
 -21777167.06248 -16957267.81646  21463788.2424                   21463785.5274
 -14154221.90648 -11017609.28946  22276009.2274                   22276010.1844
 -22855557.32447 -17797420.72745  22509988.0634                   22509983.3484
   5601431.72746   4375026.34443  24400905.5164                   24400904.5394
 11  8 28  2 38  0.0000000  0  9G12G29G26G21G15G05G25G02G18
 -14099102.41847 -10974745.87945  23161216.2424                   23161214.1454
 -16490589.85948 -12840176.93046  21157731.8204                   21157729.2464
 -12169815.98447  -9472444.37545  21914500.9304                   21914498.9144
   3124753.11746   2442344.80143  24601970.3284                   24601969.2774
  -5846603.50847  -4545167.92245  22594015.6804                   22594013.7544
 -21731099.50848 -16921371.02346  21472554.2194                   21472551.6524
 -14123467.78148 -10993645.05546  22281861.6334                   22281862.4614
 -22833191.62947 -17779992.91045  22514244.1644                   22514239.6174
   5492220.04747   4289926.45342  24380123.6484                   24380120.7774
 11  8 28  2 38 30.0000000  0  9G12G29G26G21G15G05G25G02G18
 -14031751.44547 -10922264.63745  23174032.9924                   23174030.8554
 -16576560.29347 -12907166.83646  21141372.1024                   21141369.7074
 -12258503.64847  -9541551.61345  21897624.3204                   21897622.0354
   3044215.96546   2379588.64843  24586644.4694                   24586643.0124
  -5960770.37547  -4634129.06245  22572290.0634                   22572288.3244
 -21684761.47348 -16885263.47346  21481372.0944                   21481369.5044
 -14092326.16048 -10969378.86346  22287788.0784                   22287788.5634
 -22810718.89847 -17762481.69545  22518520.8204                   22518516.0634
   5383201.21547   4204976.83642  24359377.7424                   24359374.7734
 11  8 28  2 39  0.0000000  0  9G12G29G26G21G15G05G25G02G18
 -13964292.14847 -10869698.96145  23186869.6174                   23186868.0474
 -16662215.59048 -12973911.17646  21125072.7034                   21125070.4964
 -12346725.30547  -9610295.71545  21880835.7034                   21880833.6884
   2963647.47746   2316808.09043  24571313.0004                   24571311.3324
  -6074739.22347  -4722935.87545  22550602.6884                   22550600.9534
 -21638156.73848 -16848948.09446  21490240.9454                   21490238.1294
 -14060801.37148 -10944814.10546  22293786.9384                   22293787.3324
 -22788140.29747 -17744887.98045  22522817.3674                   22522813.0234
   5274374.59847   4120177.00843  24338668.5554                   24338665.9104
 11  8 28  2 39 30.0000000  0  9G12G29G26G21G15G05G25G02G18
 -13896724.81647 -10817049.09045  23199727.5314                   23199725.9414
 -16747550.75848 -13040406.07046  21108833.4614                   21108831.5864
 -12434475.12947  -9678672.18045  21864137.5784                   21864135.7894
   2883050.09446   2254005.01643  24555975.6804                   24555973.6844
  -6188504.12947  -4811583.80945  22528954.2894                   22528951.4734
 -21591285.21548 -16812424.83246  21499160.1644                   21499157.2814
 -14028893.48848 -10919950.83645  22299858.8674                   22299859.2304
 -22765452.82447 -17727209.43045  22527134.1954                   22527130.2114
   5165744.10247   4035530.04343  24317996.6174                   24317994.9024
 11  8 28  2 40  0.0000000  0  9G12G29G26G21G15G05G25G02G18
 -13829053.42646 -10764318.18444  23212604.3984                   23212603.3874
 -16832564.46147 -13106650.48046  21092656.1334                   21092653.7154
 -12521750.64547  -9746679.03545  21847529.7584                   21847528.2154
   2802422.19146   2191178.16043  24540633.0704                   24540630.9384
  -6302063.35247  -4900071.43745  22507344.3594                   22507342.3714
 -21544150.56248 -16775696.53546  21508129.4694                   21508126.9344
 -13996606.34848 -10894792.04345  22306002.1484                   22306002.8634
 -22742656.80547 -17709446.31645  22531472.3674                   22531468.0864
   5057309.61347   3951035.82443  24297362.0004                   24297361.0354
 11  8 28  2 40 30.0000000  0  9G12G29G26G21G15G05G25G02G18
 -13761281.45746 -10711508.86745  23225501.6724                   23225500.1024
 -16917254.59447 -13172642.75846  21076540.1174                   21076537.8284
 -12608548.89147  -9814313.99245  21831012.6564                   21831010.4454
   2721762.81646   2128326.78543  24525283.4924                   24525281.7074
  -6415414.01647  -4988396.57445  22485774.5944                   22485772.3554
 -21496755.63748 -16738765.41846  21517148.6724                   21517145.6724
 -13963943.17247 -10869340.22746  22312218.1954                   22312218.6054
 -22719752.54747 -17691598.83245  22535830.9064                   22535826.9144
   4949071.86746   3866694.90243  24276764.4774                   24276763.4264
 11  8 28  2 41  0.0000000  0  9G12G29G26G21G15G05G25G02G18
 -13693411.48847 -10658623.21145  23238416.5784                   23238415.1764
 -17001618.64848 -13238380.95746  21060486.2424                   21060483.5354
 -12694866.42647  -9881574.37945  21814587.0004                   21814584.8554
   2641072.28146   2065451.12943  24509929.2584                   24509926.5514
  -6528552.39147  -5076556.27745  22464244.3674                   22464242.5634
 -21449102.39148 -16701633.01246  21526216.6174                   21526213.2704
 -13930906.16847 -10843597.12145  22318505.2814                   22318505.2544
 -22696739.08247 -17673666.27745  22540210.2114                   22540206.4184
   4841032.32446   3782508.46943  24256205.7664                   24256204.5864
 11  8 28  2 41 30.0000000  0  9G12G29G26G21G15G05G25G02G18
 -13625446.59046 -10605663.56245  23251349.5234                   23251347.9924
 -17085653.91448 -13303862.94946  21044494.6564                   21044492.2544
 -12780699.91847  -9948457.57445  21798253.4924                   21798250.9694
   2560350.00447   2002550.74244  24494567.8054                   24494566.2624
  -6641475.26247  -5164548.07445  22442756.2814                   22442754.0084
 -21401193.20748 -16664301.18046  21535333.7424                   21535330.9534
 -13897498.08247 -10817564.85945  22324862.3674                   22324862.6454
 -22673615.81247 -17655648.15245  22544610.6564                   22544606.4024
   4733192.08246   3698477.33243  24235683.5234                   24235683.0164
 11  8 28  2 42  0.0000000  0  9G12G29G26G21G15G05G25G02G18
 -13557390.62147 -10552632.96545  23264300.3594                   23264299.1374
 -17169359.07047 -13369087.71946  21028566.4224                   21028563.8284
 -12866047.32047 -10014962.00845  21782012.2584                   21782009.7704
   2479594.34046   1939624.34043  24479200.7664                   24479198.5864
  -6754180.82446  -5252370.52745  22421308.3754                   22421306.6524
 -21353031.85248 -16626772.85546  21544498.5004                   21544495.3754
 -13863722.79747 -10791246.47345  22331289.3674                   22331290.0084
 -22650383.28147 -17637544.89545  22549031.4774                   22549027.2854
   4625551.19946   3614601.60943  24215199.3524                   24215198.5554
 11  8 28  2 42 30.0000000  0  9G12G29G26G21G15G05G25G02G18
 -13489246.31646 -10499533.50045  23277268.3054                   23277265.8094
 -17252731.31247 -13434053.06646  21012700.8754                   21012698.6684
 -12950904.89547 -10081084.75045  21765864.1644                   21765861.9884
   2398805.48446   1876672.07843  24463826.4924                   24463825.1804
  -6866665.35247  -5340020.73845  22399903.6414                   22399901.7114
 -21304620.17248 -16589049.46146  21553710.7114                   21553708.0864
 -13829582.64547 -10764643.76646  22337786.0474                   22337786.6484
 -22627040.40647 -17619355.64845  22553473.8594                   22553469.1524
   4518111.47346   3530882.56643  24194754.3524                   24194753.7504
 11  8 28  2 43  0.0000000  0  9G12G29G26G21G15G05G25G02G18
 -13421015.36347 -10446366.54745  23290252.4534                   23290250.8284
 -17335766.69547 -13498755.93746  20996899.6414                   20996897.4264
 -13035268.02747 -10146822.22345  21749810.5084                   21749808.5004
   2317984.65646   1813694.90643  24448447.7344                   24448445.4024
  -6978924.14147  -5427495.06245  22378541.6024                   22378539.3204
 -21255958.70348 -16551131.43046  21562970.8284                   21562967.6374
 -13795078.83247 -10737757.69945  22344352.2424                   22344352.7814
 -22603585.43447 -17601079.04745  22557936.9614                   22557932.0204
   4410875.08247   3447321.90644  24174348.6644                   24174348.0394
 11  8 28  2 43 30.0000000  0  9G12G29G26G21G15G05G25G02G18
 -13352701.98047 -10393135.35245  23303251.7584                   23303249.9804
 -17418464.45747 -13563195.71146  20981162.8204                   20981160.2584
 -13119134.84047 -10212172.94945  21733851.2584                   21733849.5124
   2237129.50046   1750690.99243  24433060.9144                   24433058.8674
  -7090955.65247  -5514792.27345  22357222.4924                   22357220.9964
 -21207051.44948 -16513021.87146  21572277.2734                   21572274.7704
 -13760215.68447 -10710591.62545  22350986.4774                   22350987.1454
 -22580019.27047 -17582715.81645  22562421.3054                   22562416.6414
   4303841.78947   3363919.50844  24153981.1414                   24153979.7234
 11  8 28  2 44  0.0000000  0  9G12G29G26G21G15G05G25G02G18
 -13284309.44947 -10339842.49245  23316266.4694                   23316264.8054
 -17500822.43748 -13627370.73046  20965490.5084                   20965488.3244
 -13202502.73447 -10277134.91445  21717986.8054                   21717984.3714
   2156239.79746   1687660.15243  24417667.2034                   24417666.0274
  -7202757.02347  -5601910.16045  22335947.2974                   22335945.5394
 -21157901.30948 -16474723.06646  21581630.6334                   21581627.9654
 -13724996.39847 -10683148.03945  22357688.5234                   22357689.2704
 -22556342.14547 -17564266.11745  22566926.8834                   22566922.8404
   4197012.19547   3280675.81343  24133651.8284                   24133650.0904
 11  8 28  2 44 30.0000000  0  9G12G29G26G21G15G05G25G02G18
 -13215839.02346 -10286488.91445  23329295.7034                   23329294.6174
 -17582836.36748 -13691277.66046  20949883.8984                   20949881.5164
 -13285366.36347 -10341703.93445  21702218.2034                   21702216.2114
   2075317.28946   1624603.73443  24402267.9224                   24402266.6174
  -7314323.25847  -5688844.83245  22314716.9144                   22314714.5634
 -21108508.71548 -16436235.33246  21591029.6884                   21591026.8404
 -13689421.72747 -10655427.52045  22364458.2034                   22364458.7624
 -22532551.12147 -17545727.67245  22571454.1414                   22571449.9064
   4090389.68847   3197593.48443  24113361.8524                   24113360.0204
 11  8 28  2 45  0.0000000  0  9G12G29G26G21G15G05G25G02G18
 -13147295.99246 -10233078.80944  23342339.3524                   23342337.9844
 -17664506.30148 -13754916.55146  20934342.8444                   20934340.1254
 -13367725.29347 -10405879.69145  21686545.9534                   21686543.7114
   1994358.91046   1561519.40243  24386862.4454                   24386860.3404
  -7425653.73447  -5775595.78945  22293531.5234                   22293529.8324
 -21058878.62948 -16397562.53146  21600473.7584                   21600471.0164
 -13653497.02047 -10627434.24645  22371294.3524                   22371295.0904
 -22508648.06647 -17527101.91045  22576002.6564                   22575998.7154
   3983972.90647   3114671.42243  24093111.7974                   24093109.0044
 11  8 28  2 45 30.0000000  0  9G12G29G26G21G15G05G25G02G18
 -13078682.05946 -10179613.43744  23355395.7034                   23355394.1094
 -17745828.58648 -13818284.52746  20918867.4454                   20918865.4104
 -13449574.85947 -10469658.53145  21670970.4144                   21670968.2194
   1913365.87546   1498408.04343  24371449.6564                   24371448.0004
  -7536743.63747  -5862159.29745  22272391.7424                   22272390.0944
 -21009012.03548 -16358705.45346  21609963.0474                   21609960.4184
 -13617223.72747 -10599169.34446  22378196.8054                   22378197.9224
 -22484631.25047 -17508387.52345  22580573.1724                   22580569.0204
   3877763.81646   3031911.20743  24072899.9454                   24072898.1334
 11  8 28  2 46  0.0000000  0  9G12G29G26G21G15G05G25G02G18
 -13009998.98046 -10126094.19945  23368466.1484                   23368464.4574
 -17826799.55548 -13881378.75446  20903459.0164                   20903456.8914
 -13530910.93747 -10533037.26245  21655493.1644                   21655490.6374
   1832338.49246   1435269.89843  24356030.1414                   24356028.8634
  -7647588.93047  -5948532.19145  22251298.6334                   22251296.9064
 -20958910.13348 -16319665.00446  21619497.4924                   21619494.2974
 -13580603.61347 -10570634.20346  22385165.8674                   22385166.1914
 -22460499.30947 -17489583.42645  22585164.9304                   22585161.3134
   3771764.98446   2949314.81643  24052729.1564                   24052726.8404
 11  8 28  2 46 30.0000000  0  9G12G29G26G21G15G05G25G02G18
 -12941248.87946 -10072522.70344  23381548.7034                   23381546.4884
 -17907416.02348 -13944196.75446  20888118.4614                   20888115.8554
 -13611729.56647 -10596012.78545  21640113.1414                   21640110.8834
   1751277.40646   1372105.52043  24340605.8754                   24340603.4694
  -7758185.46547  -6034711.25445  22230252.3914                   22230250.3914
 -20908574.42648 -16280442.38346  21629075.6334                   21629073.1994
 -13543638.64547 -10541830.33246  22392199.3674                   22392200.5944
 -22436250.58647 -17470688.33245  22589779.4694                   22589775.8134
   3665977.94546   2866883.47343  24032598.6564                   24032596.2074
 11  8 28  2 47  0.0000000  0  9G12G29G26G21G15G05G25G02G18
 -12872436.90246 -10018903.00844  23394642.6484                   23394641.6214
 -17987677.69548 -14006738.28146  20872845.1884                   20872842.6644
 -13692029.82847 -10658584.38345  21624832.2814                   21624830.2774
   1670180.19146   1308912.98444  24325172.9454                   24325171.3204
  -7868532.55947  -6120695.96145  22209254.2344                   22209252.4884
 -20858009.72748 -16241041.32846  21638698.0394                   21638695.3714
 -13506333.84047 -10512761.65245  22399298.7034                   22399299.4574
 -22411886.87947 -17451703.64145  22594416.0234                   22594412.2344
   3560401.55946   2784616.32843  24012507.0394                   24012505.9614
 11  8 28  2 47 30.0000000  0  9G12G29G26G21G15G05G25G02G18
 -12803566.43046  -9965237.72744  23407748.8054                   23407746.5634
 -18067582.73448 -14069001.92646  20857639.4924                   20857636.9884
 -13771809.31247 -10720750.18445  21609651.3524                   21609648.7894
   1589046.04746   1245691.64144  24309734.2974                   24309731.6174
  -7978627.44947  -6206484.14145  22188303.7974                   22188301.5634
 -20807218.64148 -16201463.85546  21648363.0864                   21648360.2234
 -13468692.53147 -10483430.76245  22406461.2894                   22406461.9184
 -22387408.03147 -17432629.20345  22599073.8054                   22599069.2234
   3455036.12146   2702513.50843  23992457.3284                   23992455.4844
 11  8 28  2 48  0.0000000  0  9G12G29G26G21G15G05G25G02G18
 -12734639.83246  -9911528.71144  23420864.7114                   23420863.3444
 -18147128.30948 -14130985.46146  20842502.4384                   20842500.1134
 -13851064.07047 -10782507.10545  21594569.3364                   21594567.4774
   1507875.13346   1182441.66444  24294287.5704                   24294284.9184
  -8088466.20347  -6292072.72745  22167402.2974                   22167400.1764
 -20756202.86348 -16161711.30546  21658071.0394                   21658068.3444
 -13430716.94147 -10453839.38345  22413687.9694                   22413688.0124
 -22362812.87547 -17413464.16045  22603754.3674                   22603750.2854
   3349883.72746   2620576.70343  23972447.2034                   23972445.5124
 11  8 28  2 48 30.0000000  0  9G12G29G26G21G15G05G25G02G18
 -12665659.82047  -9857778.10544  23433991.7584                   23433989.9654
 -18226311.17248 -14192686.37146  20827434.7274                   20827432.0234
 -13929790.71548 -10843852.50045  21579588.1564                   21579586.0354
   1426667.86746   1119163.32844  24278834.3284                   24278832.4574
  -8198045.15647  -6377458.86745  22146549.9064                   22146547.7584
 -20704964.23048 -16121785.11346  21667821.4224                   21667818.3984
 -13392409.42247 -10423989.37945  22420977.7274                   22420978.0354
 -22338100.62147 -17394207.85545  22608456.8834                   22608452.4104
   3244946.03946   2538807.18043  23952478.5704                   23952476.2814
 11  8 28  2 49  0.0000000  0  9G12G29G26G21G15G05G25G02G18
 -12596630.00847  -9803988.64844  23447127.8204                   23447125.6644
 -18305130.41848 -14254103.94547  20812435.9384                   20812433.4224
 -14007987.48847 -10904785.02345  21564708.0234                   21564705.8674
   1345422.59447   1055855.41443  24263373.5234                   24263371.7464
  -8307362.61747  -6462641.24245  22125747.4454                   22125745.7344
 -20653506.38348 -16081688.09046  21677613.6644                   21677610.6804
 -13353774.15647 -10393883.96945  22428329.4614                   22428329.9884
 -22313271.49247 -17374860.48445  22613181.7814                   22613178.0434
   3140222.32847   2457204.42643  23932549.6024                   23932548.4104
 11  8 28  2 49 30.0000000  0  9G12G29G26G21G15G05G25G02G18
 -12527551.91447  -9750161.60244  23460272.6414                   23460270.8484
 -18383581.89848 -14315234.94146  20797507.1024                   20797504.2464
 -14085649.74247 -10965301.02345  21549929.3674                   21549926.9574
   1264140.96547    992519.13344  24247906.4694                   24247903.9104
  -8416413.79347  -6547616.13745  22104996.0084                   22104993.6954
 -20601829.89148 -16041420.68446  21687447.2034                   21687444.3404
 -13314812.23847 -10363524.04345  22435744.1804                   22435744.7704
 -22288323.46147 -17355420.48045  22617929.5704                   22617924.8244
   3035715.54346   2375770.68043  23912662.8444                   23912661.4734
 11  8 28  2 50  0.0000000  0  9G12G29G26G21G15G05G25G02G18
 -12458429.44147  -9696299.94545  23473426.6804                   23473424.3594
 -18461664.14148 -14376078.22747  20782648.6644                   20782645.9414
 -14162775.48447 -11025398.98046  21535253.0234                   21535250.3834
   1182821.28547    929153.19544  24232431.9924                   24232429.1764
  -8525196.52347  -6632381.85245  22084294.8204                   22084293.1804
 -20549938.21548 -16000985.62946  21697321.9774                   21697319.3714
 -13275527.65647 -10332912.68045  22443219.6174                   22443220.1604
 -22263257.27347 -17335888.38345  22622699.2274                   22622695.1644
   2931425.50846   2294505.83243  23892816.8364                   23892815.4414
 11  8 28  2 50 30.0000000  0  9G12G29G26G21G15G05G25G02G18
 -12389265.45347  -9642405.96145  23486587.9144                   23486586.1804
 -18539374.73048 -14436631.91046  20767860.0704                   20767857.9064
 -14239361.56648 -11085076.41446  21520678.5084                   21520676.8324
   1101463.52347    865757.61743  24216950.2734                   24216947.8524
  -8633707.63747  -6716935.90245  22063646.2424                   22063644.1334
 -20497833.44948 -15960384.51246  21707237.1804                   21707234.4924
 -13235923.10547 -10302052.00445  22450756.3914                   22450756.7384
 -22238071.93747 -17316263.46945  22627492.5634                   22627487.5634
   2827353.53546   2213410.87143  23873013.4694                   23873011.0984
 11  8 28  2 51  0.0000000  0  9G12G29G26G21G15G05G25G02G18
 -12320063.97347  -9588482.77044  23499756.6414                   23499755.0944
 -18616712.75848 -14496895.29347  20753143.2274                   20753141.1844
 -14315406.18748 -11144331.92646  21506208.2114                   21506205.7074
   1020065.92646    802330.99643  24201459.8754                   24201457.5744
  -8741944.69947  -6801276.43445  22043049.6334                   22043047.2774
 -20445519.29748 -15919620.24246  21717192.4844                   21717189.5274
 -13196002.69147 -10270945.19545  22458352.2814                   22458353.0394
 -22212768.30947 -17296546.34045  22632307.0784                   22632302.8444
   2723499.50446   2132485.77743  23853249.8984                   23853247.7894
 11  8 28  2 51 30.0000000  0  9G12G29G26G21G15G05G25G02G18
 -12250828.39146  -9534533.00044  23512931.0084                   23512929.4924
 -18693676.47748 -14556867.00047  20738497.9924                   20738495.3444
 -14390907.52348 -11203164.10545  21491840.4224                   21491838.3984
    938628.00846    738872.94543  24185963.3594                   24185961.0394
  -8849905.93447  -6885402.01245  22022505.0704                   22022502.5354
 -20392998.80948 -15878695.18446  21727186.5164                   21727183.5634
 -13155770.05547 -10239595.10545  22466008.9694                   22466009.5554
 -22187346.61747 -17276737.24245  22637144.6334                   22637139.7504
   2619863.20746   2051730.32843  23833528.6884                   23833526.6054
 11  8 28  2 52  0.0000000  0  9G12G29G26G21G15G05G25G02G18
 -12181560.47346  -9480558.05144  23526113.2504                   23526111.0634
 -18770262.19148 -14616544.15247  20723923.9614                   20723921.2304
 -14465861.10548 -11261569.46146  21477577.5314                   21477574.4654
    857150.79746    675384.24644  24170458.3834                   24170456.3014
  -8957586.65647  -6969309.01646  22002013.6954                   22002011.8794
 -20340272.90248 -15837610.07446  21737220.0474                   21737216.9024
 -13115226.81647 -10208002.98045  22473724.2034                   22473724.5744
 -22161804.78947 -17256834.52745  22642004.6174                   22642000.7034
   2516447.01246   1971146.39543  23813848.7504                   23813846.4804
 11  8 28  2 52 30.0000000  0  9G12G29G26G21G15G05G25G02G18
 -12112261.72747  -9426559.06244  23539299.9304                   23539298.5784
 -18846466.03948 -14675923.75447  20709422.8364                   20709420.3324
 -14540262.47348 -11319544.52046  21463419.5164                   21463416.3094
    775635.22746    611865.70743  24154946.3284                   24154944.1094
  -9064982.20747  -7052993.80545  21981577.1804                   21981574.9384
 -20287342.51648 -15796365.62146  21747292.3914                   21747289.4844
 -13074374.44547 -10176169.96145  22481497.9224                   22481498.3484
 -22136140.71147 -17236836.55545  22646888.6564                   22646884.4414
   2413253.75046   1890736.13743  23794212.2114                   23794210.5944
 11  8 28  2 53  0.0000000  0  9G12G29G26G21G15G05G25G02G18
 -12042938.18746  -9372540.75044  23552491.7034                   23552490.2154
 -18922288.97748 -14735006.54747  20694994.1094                   20694991.8054
 -14614112.32848 -11377089.82445  21449365.8204                   21449363.5274
    694077.71146    548314.49243  24139426.3524                   24139424.7664
  -9172092.80947  -7136456.56646  21961194.6024                   21961192.6954
 -20234213.12148 -15754966.09446  21757402.5944                   21757399.6484
 -13033219.20747 -10144100.96545  22489329.5474                   22489330.0124
 -22110357.43047 -17216745.71945  22651795.1644                   22651790.8554
   2310280.41046   1810497.28943  23774616.8754                   23774615.1524
 11  8 28  2 53 30.0000000  0  9G12G29G26G21G15G05G25G02G18
 -11973591.23446  -9318504.21144  23565687.9144                   23565686.9224
 -18997727.20748 -14793789.56246  20680638.8834                   20680636.0394
 -14687406.11348 -11434201.84046  21435418.6414                   21435416.6684
    612479.67246    484731.68043  24123898.9224                   24123897.0354
  -9278913.63747  -7219693.52046  21940867.5634                   21940864.7234
 -20180885.24248 -15713411.91446  21767550.3674                   21767547.3404
 -12991762.28947 -10111796.87945  22497218.2664                   22497219.1954
 -22084452.64147 -17196560.18444  22656724.3524                   22656720.2384
   2207529.78547   1730431.98444  23755064.1414                   23755062.3364
 11  8 28  2 54  0.0000000  0  9G12G29G26G21G15G05G25G02G18
 -11904223.10947  -9264451.18744  23578888.5234                   23578886.7624
 -19072777.35548 -14852270.17647  20666357.2584                   20666354.7704
 -14760140.23448 -11490877.75045  21421577.6484                   21421575.5554
    530841.66446    421117.71943  24108363.3054                   24108361.3284
  -9385440.80147  -7302701.65246  21920596.1414                   21920593.1454
 -20127360.64548 -15671704.42646  21777736.1954                   21777733.6604
 -12950005.87547 -10079259.41845  22505164.0394                   22505164.8914
 -22058424.83247 -17176278.77745  22661677.6254                   22661673.4264
   2105003.82446   1650541.71544  23735553.8204                   23735551.8674
 11  8 28  2 54 30.0000000  0  9G12G29G26G21G15G05G25G02G18
 -11834835.34847  -9210382.84844  23592092.6484                   23592091.1024
 -19147436.42648 -14910446.05147  20652150.2664                   20652147.0594
 -14832310.91848 -11547114.61746  21407844.1954                   21407841.9414
    449164.38346    357473.16844  24092821.0394                   24092818.5704
  -9491670.34047  -7385477.87946  21900380.9064                   21900378.3324
 -20073640.51248 -15629844.60246  21787958.5314                   21787955.4924
 -12907951.96147 -10046490.14845  22513167.1024                   22513167.4224
 -22032272.69547 -17155900.50444  22666653.8674                   22666650.1334
   2002704.12147   1570827.77044  23716087.0554                   23716085.3284
 11  8 28  2 55  0.0000000  0  9G12G29G26G21G15G05G25G02G18
 -11765433.05947  -9156303.19944  23605299.3524                   23605297.8554
 -19221704.18048 -14968317.00447  20638017.4304                   20638014.7384
 -14903917.69148 -11602912.06645  21394217.7894                   21394215.6884
    367445.36746    293796.07844  24077270.5864                   24077267.8444
  -9597601.46947  -7468021.56646  21880223.2274                   21880220.6884
 -20019729.48448 -15587836.00846  21798217.6484                   21798214.7624
 -12865605.80947 -10013493.14545  22521225.1414                   22521225.6254
 -22005997.85947 -17135426.62145  22671653.8984                   22671649.8284
   1900629.34846   1491289.08244  23696662.2034                   23696660.0904
 11  8 28  2 55 30.0000000  0  9G12G29G26G21G15G05G25G02G18
 -11696018.25847  -9102213.80144  23618508.5554                   23618507.1094
 -19295577.32048 -15025880.47347  20623959.8444                   20623957.0864
 -14974956.72348 -11658267.12946  21380699.5784                   21380697.3164
    285685.60247    230087.21144  24061711.9454                   24061709.2974
  -9703230.00447  -7550329.47746  21860122.6414                   21860120.1804
 -19965628.89848 -15545679.71946  21808512.7034                   21808509.4964
 -12822969.34047  -9980269.92245  22529338.6334                   22529339.0004
 -21979598.65647 -17114855.82444  22676677.6174                   22676672.8554
   1798781.51646   1411927.24244  23677281.4924                   23677279.9574
 11  8 28  2 56  0.0000000  0  9G12G29G26G21G15G05G25G02G18
 -11626595.14847  -9048117.89144  23631719.5554                   23631717.9344
 -19369054.94948 -15083135.74647  20609977.3524                   20609974.7624
 -15045426.72748 -11713178.79746  21367289.5554                   21367286.9574
    203883.22346    166345.17644  24046145.2894                   24046142.9774
  -9808554.31247  -7632400.32846  21840079.9064                   21840077.3484
 -19911341.99248 -15503378.23846  21818842.7664                   21818839.9454
 -12780046.91447  -9946823.88345  22537506.7194                   22537507.1024
 -21953076.09047 -17094188.88744  22681724.6954                   22681720.1844
   1697160.01646   1332741.74244  23657943.3834                   23657941.7034
 11  8 28  2 56 30.0000000  0  9G12G29G26G21G15G05G25G02G18
 -11557165.04747  -8994016.56644  23644931.5944                   23644930.0744
 -19442133.11748 -15140079.74647  20596071.2664                   20596068.5394
 -15115323.35248 -11767643.67246  21353988.5634                   21353986.4734
    122039.70746    102571.08644  24030570.8444                   24030568.6134
  -9913569.69547  -7714230.45346  21820096.2584                   21820093.7154
 -19856869.69548 -15460932.30546  21829208.9304                   21829206.1604
 -12736839.87947  -9913156.06645  22545728.2664                   22545729.0394
 -21926428.01247 -17073424.17645  22686795.6954                   22686791.5204
   1595767.26246   1253734.52343  23638648.7814                   23638646.4924
 11  8 28  2 57  0.0000000  0  9G12G29G26G21G15G05G25G02G18
 -11487728.98447  -8939910.56644  23658144.7664                   23658142.6134
 -19514807.62148 -15196709.21547  20582241.3674                   20582238.5164
 -15184642.27048 -11821658.37945  21340797.4924                   21340795.2074
     40156.84846     38766.31643  24014988.6414                   24014986.7504
 -10018271.26647  -7795816.05146  21800172.2424                   21800169.9574
 -19802212.62948 -15418342.38746  21839609.8364                   21839606.9804
 -12693349.40247  -9879267.39545  22554004.5784                   22554005.2384
 -21899651.99647 -17052559.76644  22691890.8674                   22691886.0594
   1494605.91046   1174907.60243  23619397.7584                   23619396.2814
 11  8 28  2 57 30.0000000  0  9G12G29G26G21G15G05G25G02G18
 -11418291.87547  -8885803.77744  23671358.3754                   23671356.8984
 -19587079.27048 -15253024.76247  20568488.5004                   20568486.0314
 -15253383.39848 -11875222.87945  21327716.7194                   21327714.5904
    -41768.75446    -25071.77043  23999398.9694                   23999396.4144
 -10122658.80547  -7877156.94545  21780307.8834                   21780305.1524
 -19747375.86348 -15375612.44946  21850044.5864                   21850041.6724
 -12649581.31647  -9845162.40245  22562333.1644                   22562333.7074
 -21872750.22347 -17031597.36745  22697010.3984                   22697006.2034
   1393673.99246   1096259.46143  23600191.1884                   23600188.9884
 11  8 28  2 58  0.0000000  0  9G12G29G26G21G15G05G25G02G18
 -11348858.01647  -8831699.50844  23684571.4384                   23684569.9614
 -19658946.09848 -15309024.86747  20554812.9534                   20554810.3404
 -15321544.52348 -11928335.41846  21314745.6804                   21314743.8204
   -123737.72346    -88943.61743  23983801.3054                   23983797.8714
 -10226729.37947  -7958250.87545  21760503.5084                   21760501.1134
 -19692361.73848 -15332744.31646  21860513.5554                   21860510.7704
 -12605538.87947  -9810843.63745  22570713.6884                   22570714.5594
 -21845722.52347 -17010536.84445  22702153.6174                   22702150.0824
   1292972.18446   1017790.62943  23581028.1484                   23581025.8324
 11  8 28  2 58 30.0000000  0  9G12G29G26G21G15G05G25G02G18
 -11279429.28147  -8777599.24644  23697783.1724                   23697781.7464
 -19730405.15648 -15364707.23447  20541214.7894                   20541211.9964
 -15389122.82448 -11980993.81246  21301886.1414                   21301883.8594
   -205749.35246   -152848.75043  23968194.1954                   23968191.6214
 -10330479.66047  -8039095.20345  21740760.3754                   21740758.0004
 -19637172.00048 -15289739.34046  21871015.5704                   21871012.8594
 -12561224.61747  -9776313.06245  22579147.2734                   22579147.6054
 -21818567.96947 -16989377.45745  22707321.4614                   22707317.2114
   1192501.41046    939501.77743  23561909.4304                   23561907.3054
 11  8 28  2 59  0.0000000  0  9G12G29G26G21G15G05G25G02G18
 -11210008.94946  -8723505.52344  23710992.7734                   23710991.8204
 -19801454.80548 -15420070.56247  20527694.6094                   20527691.7384
 -15456115.91448 -12033196.20345  21289137.6484                   21289135.4024
   -287804.80547   -216788.01643  23952580.0474                   23952577.0704
 -10433907.26247  -8119688.10946  21721078.6804                   21721076.5594
 -19581809.66448 -15246599.85946  21881550.6334                   21881548.1334
 -12516642.19147  -9741573.51645  22587630.5084                   22587631.2934
 -21791286.34847 -16968119.04745  22712512.3984                   22712507.7974
   1092262.35947    861393.49644  23542834.8834                   23542832.0514
 11  8 28  2 59 30.0000000  0  9G12G29G26G21G15G05G25G02G18
  -9565180.82047  -7441821.33644  24023994.5944                   24023992.0084
 -18296669.40248 -14247510.49647  20814045.3984                   20814042.8324
 -13947097.95348 -10857338.03146  21576294.4224                   21576292.0664
   1205520.25846    946841.95744  24236749.8984                   24236747.8014
  -8961583.97747  -6972423.16846  22001252.5164                   22001249.9654
 -17950857.28147 -13975727.88346  22191910.4774                   22191907.5984
 -10896374.62947  -8479027.37145  22895957.4144                   22895957.8164
 -20188456.75047 -15719160.93045  23017520.6254                   23017516.9574
   2567680.38746   2011069.96144  23823597.1254                   23823595.3164
 11  8 28  3  0  0.0000000  0  9G12G29G26G21G15G05G25G02G18
  -9495784.60947  -7387746.41444  24037199.3284                   24037198.1294
 -18366892.97748 -14302230.14147  20800682.3524                   20800679.8834
 -14012912.25447 -10908621.88346  21563770.3834                   21563767.8874
   1123378.25047    882835.24244  24221119.0314                   24221116.4414
  -9064355.57047  -7052504.88746  21981695.7894                   21981693.0164
 -17895155.09047 -13932323.59446  22202510.2034                   22202507.9574
 -10851263.53947  -8443875.89545  22904541.8204                   22904542.5124
 -20160918.40247 -15697702.50845  23022761.7974                   23022757.3324
   2467908.09046   1933325.40244  23804611.5314                   23804609.1254
 11  8 28  3  0 30.0000000  0  9G12G29G26G21G15G05G25G02G18
  -9426403.57447  -7333683.33244  24050402.5234                   24050401.1524
 -18436698.78548 -14356624.26247  20787398.9844                   20787395.8714
 -14078132.58248 -10959442.89146  21551359.5554                   21551356.8524
   1041193.77347    818795.46544  24205479.5944                   24205476.9024
  -9166793.77748  -7132326.83645  21962202.6484                   21962199.8674
 -17839285.53547 -13888788.88346  22213142.0394                   22213139.8444
 -10805891.77347  -8408521.28545  22913175.8914                   22913176.6804
 -20133250.02747 -15676142.73845  23028026.7114                   23028022.3984
   2368371.12147   1855764.21944  23785669.7274                   23785667.7194
 11  8 28  3  1  0.0000000  0  9G12G29G26G21G15G05G25G02G18
  -9357043.86347  -7279636.87544  24063600.9144                   24063600.1484
 -18506088.03148 -14410693.79347  20774194.5394                   20774191.7664
 -14142759.07048 -11009801.17646  21539061.2974                   21539059.0704
    958963.29747    754719.83244  24189831.9774                   24189829.1884
  -9268898.41447  -7211888.85246  21942772.7344                   21942769.9264
 -17783253.45347 -13845127.53546  22223805.0784                   22223801.7384
 -10760265.30547  -8372968.20745  22921858.4924                   22921858.7384
 -20105453.96147 -15654483.45745  23033316.0084                   23033311.4384
   2269067.23446   1778384.66044  23766772.7194                   23766770.9534
 11  8 28  3  1 30.0000000  0  9G12G29G26G21G15G05G25G02G18
  -9287708.17646  -7225609.12544  24076795.6564                   24076793.6454
 -18575058.80548 -14464437.22747  20761069.6724                   20761067.0664
 -14206789.96947 -11059695.35546  21526876.4304                   21526874.1994
    876686.68847    690608.23444  24174175.1804                   24174172.5634
  -9370666.84847  -7291188.89146  21923406.7664                   21923404.1524
 -17727061.43448 -13801341.54746  22234497.7734                   22234495.4534
 -10714387.39847  -8337219.20745  22930588.7274                   22930589.2544
 -20077529.87547 -15632724.45345  23038629.9454                   23038625.3674
   2169996.85946   1701187.06344  23747920.2974                   23747918.3404
 11  8 28  3  2  0.0000000  0  9G12G29G26G21G15G05G25G02G18
  -9218398.55147  -7171601.69144  24089984.3594                   24089983.7464
 -18643607.74248 -14517851.96147  20748025.2814                   20748022.6994
 -14270221.69148 -11109122.64546  21514805.6724                   21514803.7034
    794364.41047    626461.05144  24158509.3834                   24158507.3714
  -9472095.37948  -7370224.07046  21904105.4924                   21904102.8444
 -17670710.92247 -13757432.07046  22245220.8674                   22245218.2154
 -10668260.26647  -8301276.01645  22939366.4694                   22939366.7304
 -20049476.18447 -15610864.45745  23043967.8984                   23043964.5984
   2071161.65246   1624172.69944  23729112.5474                   23729110.6024
 11  8 28  3  2 30.0000000  0  9G12G29G26G21G15G05G25G02G18
  -9149115.96947  -7117615.32444  24103169.0394                   24103167.0904
 -18711730.80548 -14570934.85247  20735061.6644                   20735059.5204
 -14333050.12148 -11158079.82846  21502849.9224                   21502847.0784
    711998.49247    562279.88744  24142836.1724                   24142834.1994
  -9573178.82848  -7448990.34446  21884870.1724                   21884867.4064
 -17614202.15247 -13713399.26646  22255974.1024                   22255971.7894
 -10621885.01647  -8265139.47345  22948190.6644                   22948191.8754
 -20021290.81247 -15588901.83645  23049331.4224                   23049327.2154
   1972564.33646   1547343.71944  23710349.8524                   23710348.0314
 11  8 28  3  3  0.0000000  0  9G12G29G26G21G15G05G25G02G18
  -9079863.32047  -7063652.26644  24116347.0234                   24116345.5234
 -18779426.21548 -14623684.49647  20722179.6884                   20722177.5124
 -14395272.89547 -11206565.08246  21491009.4844                   21491007.2074
    629588.36347    498064.25444  24127153.6334                   24127151.8134
  -9673914.63748  -7527485.75046  21865700.5314                   21865697.8914
 -17557537.59447 -13669245.09046  22266756.9304                   22266754.6844
 -10575264.96947  -8228812.16845  22957062.2734                   22957063.0744
 -19992973.43447 -15566836.35945  23054720.6174                   23054715.9384
   1874205.55546   1470700.60244  23691632.3674                   23691630.3754
 11  8 28  3  3 30.0000000  0  9G12G29G26G21G15G05G25G02G18
  -9010642.32047  -7009713.89544  24129519.0944                   24129517.6414
 -18846690.80548 -14676098.44547  20709379.4534                   20709377.0984
 -14456887.00847 -11254576.05546  21479284.5314                   21479282.0944
    547135.18046    433815.08644  24111463.2424                   24111460.7154
  -9774299.04348  -7605707.32846  21846597.9844                   21846595.3874
 -17500718.52047 -13624970.48846  22277569.5704                   22277566.6174
 -10528402.19547  -8192295.75445  22965980.4694                   22965981.1484
 -19964522.20747 -15544666.60245  23060134.3914                   23060130.4804
   1776086.71546   1394244.44143  23672961.3444                   23672959.4224
 11  8 28  3  4  0.0000000  0  9G12G29G26G21G15G05G25G02G18
  -8941456.85247  -6955803.18744  24142684.8054                   24142683.5784
 -18913523.55948 -14728175.88747  20696661.8284                   20696659.2974
 -14517891.04748 -11302111.64546  21467676.2274                   21467673.4344
    464637.19946    369531.02744  24095763.5784                   24095762.5664
  -9874329.93448  -7683653.43446  21827562.6414                   21827560.2664
 -17443748.36347 -13580578.16846  22288410.5234                   22288407.8444
 -10481300.84847  -8155593.39545  22974943.3984                   22974944.1954
 -19935938.08647 -15522393.28145  23065573.8364                   23065569.5664
   1678207.52046   1317975.00844  23654335.6564                   23654332.9734
 11  8 28  3  4 30.0000000  0  9G12G29G26G21G15G05G25G02G18
  -8872309.12147  -6901921.89144  24155843.9224                   24155842.1764
 -18979921.61748 -14779914.62147  20684026.5164                   20684024.1564
 -14578281.93048 -11349169.45346  21456183.5164                   21456181.3324
    382095.17247    305212.64544  24080057.3984                   24080054.6454
  -9974003.51648  -7761321.11346  21808595.3524                   21808593.1334
 -17386628.31247 -13536069.05146  22299280.1254                   22299277.2154
 -10433963.15248  -8118706.89845  22983951.9844                   22983951.8404
 -19907219.71546 -15500015.35544  23071038.4534                   23071034.4024
   1580569.29746   1241893.35544  23635755.3364                   23635753.0084
 11  8 28  3  5  0.0000000  0  9G12G29G26G21G15G05G25G02G18
  -8803204.57047  -6848074.26244  24168993.7344                   24168992.2814
 -19045885.64548 -14831315.14847  20671474.3134                   20671471.7074
 -14638060.08648 -11395749.79746  21444808.0474                   21444805.8714
    299506.43046    240857.85544  24064340.3364                   24064337.7854
 -10073319.93048  -7838710.48446  21789696.0314                   21789693.5514
 -17329363.02748 -13491446.75846  22310177.0394                   22310174.7774
 -10386394.91848  -8081640.73445  22993003.4534                   22993003.8134
 -19878368.92647 -15477534.25044  23076528.6174                   23076524.8914
   1483170.27347   1165998.07844  23617221.0634                   23617218.8134
 11  8 28  3  5 30.0000000  0  9G12G29G26G21G15G05G25G02G18
  -8734144.33647  -6794261.11743  24182135.4224                   24182133.6884
 -19111411.95348 -14882374.59447  20659004.7424                   20659001.9534
 -14697222.34048 -11441850.22746  21433550.0234                   21433547.8404
    216871.96946    176467.43044  24048616.0474                   24048613.1914
 -10172274.75848  -7915818.09046  21770865.4774                   21770862.6024
 -17271953.77047 -13446712.28146  22321102.2974                   22321099.0984
 -10338597.96147  -8044396.34045  23002099.1024                   23002099.3714
 -19849384.12146 -15454948.69545  23082044.2814                   23082040.1644
   1386011.97347   1090290.38344  23598732.0474                   23598729.6954
 11  8 28  3  6  0.0000000  0  9G12G29G26G21G15G05G25G02G18
  -8665130.72346  -6740484.35944  24195268.4224                   24195267.8484
 -19176497.85548 -14933090.86747  20646619.3524                   20646617.0634
 -14755765.45748 -11487468.21546  21422410.1804                   21422407.6764
    134192.53946    112041.98443  24032882.2274                   24032879.6684
 -10270864.13348  -7992640.94946  21752104.5084                   21752101.7504
 -17214401.86747 -13401866.64846  22332053.2584                   22332050.9654
 -10290574.58647  -8006975.52345  23011237.6334                   23011237.7854
 -19820264.05546 -15432257.75444  23087585.7274                   23087581.2734
   1289096.14147   1014771.61744  23580290.2274                   23580287.3914
 11  8 28  3  6 30.0000000  0  9G12G29G26G21G15G05G25G02G18
  -8596167.07447  -6686746.52044  24208391.4454                   24208390.3754
 -19241142.35548 -14983463.18047  20634317.8204                   20634315.5004
 -14813688.19948 -11532602.79746  21411387.2584                   21411385.4144
     51466.91846     47580.54344  24017140.4064                   24017137.8324
 -10369086.37547  -8069177.71946  21733413.3364                   21733410.6024
 -17156710.17247 -13356912.10246  22343032.2894                   22343029.0314
 -10242328.84447  -7969381.43445  23020418.0634                   23020418.6254
 -19791009.13347 -15409461.73444  23093152.8834                   23093148.6454
   1192422.43447    939441.50044  23561893.5314                   23561891.0164
 11  8 28  3  7  0.0000000  0  9G12G29G26G21G15G05G25G02G18
  -8527254.44146  -6633048.43744  24221505.6334                   24221504.2274
 -19305341.62948 -15033488.56647  20622101.2114                   20622098.7384
 -14870986.73848 -11577250.99246  21400483.9304                   21400481.5314
    -31302.97347    -16915.39544  24001389.2424                   24001386.6524
 -10466936.58648  -8145424.59046  21714793.3134                   21714790.8914
 -17098879.15247 -13311848.96946  22354036.8984                   22354034.1954
 -10193861.86347  -7931614.95345  23029641.4304                   23029641.8164
 -19761616.72747 -15386558.59044  23098745.8674                   23098741.6604
   1095993.21547    864301.89544  23543543.8284                   23543540.9384
 11  8 28  3  7 30.0000000  0  9G12G29G26G21G15G05G25G02G18
  -8458396.52046  -6579393.01644  24234608.3674                   24234608.0744
 -19369094.52348 -15083166.13747  20609969.5084                   20609966.8164
 -14927660.13748 -11621412.04346  21389699.2194                   21389696.7194
   -114118.48447    -81446.89144  23985630.4064                   23985627.4304
 -10564413.39548  -8221380.50446  21696244.1954                   21696241.2774
 -17040912.19947 -13266679.92645  22365067.9144                   22365064.9654
 -10145178.01647  -7893679.48845  23038905.7274                   23038905.6054
 -19732087.96947 -15363549.16444  23104364.8984                   23104360.5204
    999808.13747    789352.55144  23525239.7894                   23525237.7034
 11  8 28  3  8  0.0000000  0  9G12G29G26G21G15G05G25G02G18
  -8389598.36746  -6525784.14544  24247700.0554                   24247699.7774
 -19432401.12148 -15132495.93747  20597922.5234                   20597920.1564
 -14983708.14148 -11665085.79346  21379033.6804                   21379031.0554
   -196981.41447   -146015.32844  23969862.3284                   23969859.3754
 -10661515.60948  -8297044.52046  21677766.2504                   21677763.5594
 -16982813.36747 -13221408.10945  22376123.5474                   22376121.5554
 -10096282.29347  -7855578.91445  23048210.2814                   23048211.0084
 -19702424.12547 -15340434.50044  23110009.8754                   23110005.6994
    903865.30947    714591.96144  23506982.6564                   23506980.4384
 11  8 28  3  8 30.0000000  0  9G12G29G26G21G15G05G25G02G18
  -8320861.61346  -6472223.14144  24260780.3754                   24260779.7584
 -19495258.53948 -15181475.73047  20585961.3914                   20585958.5984
 -15039127.98048 -11708270.06646  21368487.2194                   21368485.4064
   -279891.34447   -210620.39144  23954085.1414                   23954082.5084
 -10758239.32847  -8372413.61346  21659360.1564                   21659356.9414
 -16924584.15647 -13176034.71945  22387204.0704                   22387201.4454
 -10047176.96147  -7817315.03145  23057554.3834                   23057555.0634
 -19672623.75047 -15317213.44944  23115681.1954                   23115676.7304
    808166.57446    640021.56644  23488771.4774                   23488769.2034
 11  8 28  3  9  0.0000000  0  9G12G29G26G21G15G05G25G02G18
  -8252187.85546  -6418711.19544  24273849.1334                   24273847.8914
 -19557663.34448 -15230102.84047  20574085.8834                   20574083.3054
 -15093916.23848 -11750962.18446  21358061.9454                   21358059.3204
   -362847.09047   -275261.18444  23938298.8674                   23938296.4414
 -10854580.48447  -8447484.60946  21641026.8284                   21641024.0084
 -16866225.07447 -13130560.11345  22398309.2344                   22398306.3754
  -9997863.82047  -7778889.21945  23066938.5784                   23066939.2704
 -19642685.03147 -15293884.57044  23121378.3444                   23121373.7704
    712713.66446    565642.71544  23470608.0704                   23470605.1604
 11  8 28  3  9 30.0000000  0  9G12G29G26G21G15G05G25G02G18
  -8183580.75046  -6365251.20344  24286904.9454                   24286903.5084
 -19619614.87548 -15278376.75047  20562297.1804                   20562294.3014
 -15148072.35248 -11793161.72746  21347756.0864                   21347753.9024
   -445849.97347   -339938.67244  23922504.0944                   23922501.0314
 -10950537.73048  -8522256.44546  21622767.2424                   21622764.5044
 -16807739.42647 -13084986.88745  22409439.5004                   22409436.4064
  -9948347.16847  -7740304.82845  23076361.2194                   23076361.8984
 -19612608.37547 -15270448.22744  23127101.4454                   23127097.2194
    617506.04747    491455.03544  23452490.0084                   23452488.1484
 11  8 28  3 10  0.0000000  0  9G12G29G26G21G15G05G25G02G18
  -8115043.70346  -6311845.78544  24299947.0944                   24299945.3364
 -19681111.60248 -15326296.26647  20550594.5784                   20550591.9654
 -15201594.62947 -11834867.37146  21337571.1564                   21337568.7384
   -528900.43447   -404653.22744  23906699.7664                   23906697.2934
 -11046108.41048  -8596727.06246  21604580.2894                   21604577.5394
 -16749130.10947 -13039317.29345  22420592.1564                   22420589.2234
  -9898630.59447  -7701564.63745  23085821.5394                   23085822.8014
 -19582394.01646 -15246904.57844  23132850.9614                   23132845.6994
    522543.93047    417458.62144  23434419.4534                   23434416.8014
 11  8 28  3 10 30.0000000  0  9G12G29G26G21G15G05G25G02G18
  -8046578.72747  -6258496.52344  24312975.1484                   24312974.6644
 -19742151.04748 -15373859.45347  20538979.0394                   20538976.4384
 -15254480.74648 -11876077.30546  21327507.1174                   21327505.0084
   -611997.85946   -469404.40244  23890886.4534                   23890884.4064
 -11141289.37948  -8670894.02046  21586468.1334                   21586464.9494
 -16690398.47347 -12993552.37945  22431768.5084                   22431765.3874
  -9848716.71147  -7662670.72345  23095320.3754                   23095320.8364
 -19552041.34047 -15223253.14144  23138626.9844                   23138622.4614
    427827.91447    343654.00044  23416395.9144                   23416393.6844
 11  8 28  3 11  0.0000000  0  9G12G29G26G21G15G05G25G02G18
  -7978188.17646  -6205205.26644  24325989.9774                   24325988.4884
 -19802730.95748 -15421064.57447  20527451.1254                   20527448.6294
 -15306728.32447 -11916789.68446  21317564.8524                   21317562.2544
   -695142.23446   -534192.17644  23875065.0784                   23875062.8554
 -11236077.78948  -8744755.08246  21568430.2114                   21568427.2154
 -16631546.38347 -12947693.62145  22442967.5704                   22442964.3244
  -9798608.38347  -7623625.29745  23104855.3284                   23104856.2894
 -19521549.07847 -15199492.94944  23144429.3984                   23144425.3244
    333359.00047    270041.89844  23398418.7034                   23398416.5124
 11  8 28  3 11 30.0000000  0  9G12G29G26G21G15G05G25G02G18
  -7909872.42246  -6151972.27044  24338990.2194                   24338989.0164
 -19862847.10248 -15467908.31247  20516011.5394                   20516008.5984
 -15358333.46547 -11957001.46146  21307744.3204                   21307742.3834
   -778331.60946   -599014.96544  23859234.1414                   23859231.8834
 -11330468.47748  -8818306.23846  21550468.3524                   21550465.0984
 -16572573.69147 -12901740.87145  22454189.2734                   22454186.7424
  -9748306.30947  -7584428.88345  23114427.6884                   23114428.5394
 -19490914.42646 -15175621.80144  23150259.1024                   23150254.4064
    239140.17647    196624.68444  23380489.5314                   23380487.6564
 11  8 28  3 12  0.0000000  0  9G12G29G26G21G15G05G25G02G18
  -7841637.26646  -6098802.10944  24351974.5944                   24351973.7114
 -19922500.62948 -15514391.57847  20504660.1174                   20504656.6724
 -15409297.16848 -11996713.41846  21298046.4454                   21298044.4574
   -861568.63346   -663874.89144  23843393.6414                   23843392.1914
 -11424461.58648  -8891547.58646  21532581.5634                   21532579.1764
 -16513485.41847 -12855698.07445  22465433.5704                   22465431.3874
  -9697816.62547  -7545086.29345  23124035.3054                   23124036.3524
 -19460140.11346 -15151641.81644  23156114.7424                   23156109.7814
    145168.89547    123400.35544  23362607.7584                   23362605.1054
 11  8 28  3 12 30.0000000  0  9G12G29G26G21G15G05G25G02G18
  -7773482.98046  -6045694.94543  24364944.5784                   24364942.6054
 -19981687.47348 -15560511.18747  20493396.9454                   20493394.3364
 -15459615.55948 -12035922.52746  21288471.3204                   21288468.9104
   -944851.07047   -728770.23044  23827546.4774                   23827543.9414
 -11518051.79748  -8964474.98446  21514772.5864                   21514769.5784
 -16454281.44547 -12809565.12545  22476699.8914                   22476696.9384
  -9647140.21147  -7505598.18045  23133679.2424                   23133679.5904
 -19429223.43046 -15127550.89844  23161997.9144                   23161994.3834
     51447.73847     50370.96144  23344772.3914                   23344770.6294
 11  8 28  3 13  0.0000000  0  9G12G29G26G21G15G05G25G02G18
  -7705413.48446  -5992653.86343  24377897.4304                   24377896.5234
 -20040406.79348 -15606266.48847  20482223.2194                   20482220.2154
 -15509288.13348 -12074628.40246  21279018.6334                   21279016.5704
  -1028180.72746   -793702.34844  23811689.1954                   23811686.8164
 -11611238.04748  -9037087.60946  21497039.9534                   21497037.0004
 -16394965.27347 -12763344.73445  22487987.1414                   22487984.4694
  -9596281.66447  -7465968.15245  23143357.1804                   23143358.1334
 -19398165.17646 -15103349.68044  23167908.7584                   23167903.8444
    -42023.99647    -22464.10944  23326985.6804                   23326983.0904
 11  8 28  3 13 30.0000000  0  9G12G29G26G21G15G05G25G02G18
  -7637430.26646  -5939680.00443  24390833.6564                   24390832.6954
 -20098655.20748 -15651654.85947  20471138.7034                   20471136.0594
 -15558311.58248 -12112828.46946  21269689.8984                   21269687.7894
  -1111555.44547   -858669.60244  23795823.9924                   23795820.8204
 -11704016.20348  -9109382.23846  21479384.4304                   21479381.9224
 -16335537.28547 -12717037.23445  22499295.8984                   22499293.6334
  -9545242.39847  -7426197.31245  23153070.1884                   23153070.2544
 -19366963.24246 -15079036.50444  23173846.4224                   23173842.5354
   -135244.53947    -95103.43444  23309245.9844                   23309243.5984
 11  8 28  3 14  0.0000000  0  9G12G29G26G21G15G05G25G02G18
  -7569536.64846  -5886775.97743  24403753.3754                   24403752.9964
 -20156431.68048 -15696675.47747  20460144.0164                   20460141.1724
 -15606685.10948 -12150522.10246  21260484.6884                   21260482.4414
  -1194976.79747   -923673.17644  23779949.5864                   23779946.7854
 -11796384.24647  -9181357.30546  21461807.1254                   21461804.2544
 -16276000.16447 -12670644.67645  22510625.1094                   22510622.8364
  -9494026.44547  -7386288.80545  23162815.7194                   23162816.3094
 -19335618.00046 -15054611.66044  23179811.2344                   23179807.1884
   -228214.08647   -167547.17244  23291554.5164                   23291552.0824
 11  8 28  3 14 30.0000000  0  9G12G29G26G21G15G05G25G02G18
  -7501735.68746  -5833944.10543  24416655.2664                   24416654.3134
 -20213735.54348 -15741327.83247  20449239.5164                   20449236.9384
 -15654407.88748 -12187708.66046  21251403.4144                   21251400.6024
  -1278445.31247   -988713.52744  23764065.7034                   23764062.5434
 -11888340.16047  -9253011.23446  21444308.7814                   21444306.1914
 -16216357.29747 -12624169.72345  22521975.1804                   22521972.8834
  -9442637.77047  -7346245.68045  23172594.6414                   23172595.1604
 -19304129.98046 -15030075.55544  23185803.4224                   23185798.3164
   -320933.00446   -239795.63344  23273911.0164                   23273908.4654
 11  8 28  3 15  0.0000000  0  9G12G29G26G21G15G05G25G02G18
  -7434031.30146  -5781187.58243  24429539.8284                   24429538.6914
 -20270565.74648 -15785611.09447  20438425.3834                   20438422.3634
 -15701478.94548 -12224387.39146  21242446.3524                   21242443.5084
  -1361961.80947  -1053791.28144  23748173.2814                   23748169.6294
 -11979882.00847  -9324342.50446  21426888.8134                   21426886.5124
 -16156611.14847 -12577614.29345  22533344.7194                   22533342.2304
  -9391080.18047  -7306070.94945  23182405.5554                   23182406.4614
 -19272499.31646 -15005428.30544  23191822.4304                   23191818.3094
   -413401.82446   -311849.19944  23256314.8914                   23256312.0664
 11  8 28  3 15 30.0000000  0  9G12G29G26G21G15G05G25G02G18
  -7366423.89146  -5728506.59043  24442405.2114                   24442404.2504
 -20326918.25048 -15829522.12147  20427701.5864                   20427698.8674
 -15747894.56248 -12260555.37946  21233613.6884                   21233610.9804
  -1445524.41447  -1118904.95344  23732272.0944                   23732268.1994
 -12071005.34448  -9395347.66446  21409548.4844                   21409546.3094
 -16096761.90247 -12530978.53945  22544733.7194                   22544730.5864
  -9339354.77347  -7265765.43745  23192248.8984                   23192249.5434
 -19240723.44146 -14980667.89144  23197868.7814                   23197864.7074
   -505618.14547   -383706.01244  23238766.0004                   23238764.0904
 11  8 28  3 16  0.0000000  0  9G12G29G26G21G15G05G25G02G18
  -7298915.12946  -5675902.45743  24455252.0864                   24455250.6024
 -20382790.32848 -15873058.79747  20417069.3364                   20417066.6454
 -15793652.53548 -12296210.91046  21224905.9304                   21224903.7074
  -1529132.05946  -1184053.71944  23716361.3834                   23716357.9104
 -12161706.42248  -9466023.78546  21392288.6024                   21392286.1954
 -16036810.59447 -12484263.23845  22556141.6024                   22556139.6024
  -9287463.82847  -7225330.93045  23202123.3984                   23202123.8794
 -19208800.93746 -14955793.23844  23203943.8284                   23203939.7664
   -597580.27347   -455364.77044  23221266.6414                   23221263.5634
 11  8 28  3 16 30.0000000  0  9G12G29G26G21G15G05G25G02G18
  -7231510.48046  -5623379.48044  24468078.7814                   24468077.9304
 -20438182.90248 -15916221.83247  20406528.6334                   20406525.8054
 -15838753.81648 -12331354.74646  21216323.4144                   21216321.1254
  -1612787.47347  -1249239.68744  23700442.6484                   23700438.8754
 -12251985.17648  -9536370.84046  21375108.9694                   21375106.8524
 -15976762.06247 -12437472.19145  22567569.0864                   22567566.4024
  -9235413.21147  -7184772.02045  23212028.2194                   23212028.8404
 -19176734.45747 -14930806.41044  23210046.3364                   23210041.5434
   -689290.83247   -526827.48044  23203814.5704                   23203811.7424
 11  8 28  3 17  0.0000000  0  9G12G29G26G21G15G05G25G02G18
  -7164211.12946  -5570938.52344  24480885.8674                   24480883.8834
 -20493093.07048 -15959008.96147  20396079.7424                   20396076.9844
 -15883196.03548 -12365985.01646  21207866.4614                   21207863.6414
  -1696489.70747  -1314462.15244  23684514.4224                   23684511.0354
 -12341838.10248  -9606386.07846  21358010.5234                   21358008.1644
 -15916617.20747 -12390606.08645  22579014.4614                   22579010.9454
  -9183204.98847  -7144090.28145  23221963.1254                   23221963.4654
 -19144522.00047 -14905705.82844  23216175.1954                   23216171.6724
   -780748.29747   -598092.97744  23186410.6954                   23186408.0594
 11  8 28  3 17 30.0000000  0  9G12G29G26G21G15G05G25G02G18
  -7097021.39846  -5518582.99644  24493671.1564                   24493670.6764
 -20547520.57448 -16001420.00047  20385722.2734                   20385719.4494
 -15926978.96548 -12400101.56646  21199534.9694                   21199532.3164
  -1780240.39546  -1379722.36744  23668576.8594                   23668573.9344
 -12431264.03547  -9676068.58246  21340993.1954                   21340990.6844
 -15856379.43747 -12343667.57045  22590477.1024                   22590474.0864
  -9130843.66047  -7103289.25845  23231927.1024                   23231927.5704
 -19112164.92246 -14880492.55544  23222332.7814                   23222329.2074
   -871953.86747   -669162.18044  23169054.9454                   23169052.7504
 11  8 28  3 18  0.0000000  0  9G12G29G26G21G15G05G25G02G18
  -7029941.21146  -5466312.81644  24506436.1024                   24506435.9344
 -20601461.03548 -16043451.51647  20375458.3754                   20375454.8714
 -15970098.58248 -12433701.25046  21191329.2194                   21191326.6724
  -1864036.46546  -1445017.89144  23652631.0164                   23652627.8204
 -12520257.54348  -9745414.14846  21324058.3594                   21324055.5944
 -15796048.07847 -12296656.12145  22601957.8754                   22601954.9414
  -9078329.66447  -7062369.28144  23241920.3284                   23241920.6214
 -19079659.88746 -14855163.98044  23228518.1484                   23228513.8754
   -962904.15247   -740032.46144  23151747.4534                   23151745.0594
 11  8 28  3 18 30.0000000  0  9G12G29G26G21G15G05G25G02G18
  -6962974.63347  -5414131.16444  24519179.8284                   24519178.7624
 -20654914.63748 -16085103.65247  20365286.2194                   20365283.2734
 -16012555.12948 -12466784.25446  21183250.2194                   21183247.7274
  -1947879.73846  -1510350.24244  23636675.5554                   23636673.2704
 -12608818.03148  -9814422.27746  21307206.2814                   21307203.3484
 -15735627.14147 -12249574.88345  22613455.6414                   22613453.0594
  -9025668.01247  -7021334.25445  23251941.4454                   23251941.7114
 -19047008.36746 -14829721.26244  23234731.7194                   23234727.8014
  -1053600.73447   -810705.06644  23134488.4384                   23134485.4184
 11  8 28  3 19  0.0000000  0  9G12G29G26G21G15G05G25G02G18
  -6896123.30546  -5362039.33244  24531901.0004                   24531900.2034
 -20707878.42248 -16126374.12547  20355207.2274                   20355204.6764
 -16054346.35248 -12499348.82046  21175297.5784                   21175294.9144
  -2031769.41046  -1575718.70344  23620712.1414                   23620709.3634
 -12696941.74648  -9883090.07446  21290436.8594                   21290433.9224
 -15675117.08247 -12202424.19545  22624970.0474                   22624967.5084
  -8972860.59047  -6980185.64545  23261990.1954                   23261991.4454
 -19014208.82846 -14804163.19144  23240972.4064                   23240969.4574
  -1144042.50847   -881179.10944  23117277.4304                   23117275.3954
 11  8 28  3 19 30.0000000  0  9G12G29G26G21G15G05G25G02G18
  -6829390.68746  -5310039.97744  24544599.7814                   24544599.2274
 -20760351.57048 -16167262.27747  20345222.0394                   20345219.3834
 -16095471.62148 -12531394.46546  21167471.2814                   21167469.1294
  -2115705.93046  -1641123.69144  23604739.7974                   23604737.3014
 -12784627.05148  -9951416.25046  21273750.1884                   21273747.7424
 -15614521.07847 -12155206.52345  22636501.0864                   22636498.1254
  -8919911.54747  -6938926.64845  23272065.9614                   23272066.5164
 -18981261.54747 -14778490.03144  23247243.3444                   23247238.9734
  -1234229.68447   -951454.75444  23100115.5944                   23100113.3634
 11  8 28  3 20  0.0000000  0  9G12G29G26G21G15G05G25G02G18
  -6762777.65246  -5258133.82844  24557276.4304                   24557275.8134
 -20812330.47748 -16207765.31247  20335330.8914                   20335328.0474
 -16135928.03548 -12562918.91446  21159772.9844                   21159770.3954
  -2199687.81247  -1706564.03544  23588758.6884                   23588755.9344
 -12871869.70748 -10019397.50846  21257148.9534                   21257145.9774
 -15553839.13747 -12107921.91845  22648048.1954                   22648046.1414
  -8866822.24647  -6897558.35945  23282168.5554                   23282169.4774
 -18948164.50047 -14752700.14544  23253541.8674                   23253537.1724
  -1324160.28947  -1021530.50844  23083002.5704                   23083000.3484
 11  8 28  3 20 30.0000000  0  9G12G29G26G21G15G05G25G02G18
  -6696288.73446  -5206324.34443  24569928.6174                   24569927.1994
 -20863816.40648 -16247884.21147  20325532.9844                   20325530.6294
 -16175716.30548 -12593922.75046  21152201.6884                   21152198.9454
  -2283716.86347  -1772041.14144  23572767.8054                   23572765.1644
 -12958669.26247 -10087033.49246  21240631.5004                   21240628.6524
 -15493075.48847 -12060573.63345  22659611.6804                   22659608.6954
  -8813597.91847  -6856084.87145  23292297.2034                   23292298.0594
 -18914919.12947 -14726794.70344  23259867.7034                   23259863.3554
  -1413836.32847  -1091407.86344  23065937.6724                   23065935.0204
 11  8 28  3 21  0.0000000  0  9G12G29G26G21G15G05G25G02G18
  -6629926.77346  -5154613.84443  24582556.8444                   24582556.1294
 -20914807.53548 -16287617.54747  20315829.6334                   20315827.0784
 -16214835.51648 -12624405.23446  21144757.4304                   21144754.7504
  -2367793.37147  -1837555.22744  23556769.4534                   23556765.9024
 -13045023.52347 -10154322.49246  21224198.7504                   21224196.3914
 -15432232.33647 -12013163.38745  22671190.0234                   22671186.8874
  -8760241.93447  -6814508.80545  23302450.5314                   23302450.8794
 -18881525.54747 -14700773.74644  23266222.0394                   23266217.9264
  -1503257.65247  -1161086.77344  23048921.5164                   23048918.2894
 11  8 28  3 21 30.0000000  0  9G12G29G26G21G15G05G25G02G18
  -6563695.29346  -5103005.02743  24595160.8444                   24595159.5824
 -20965303.25848 -16326964.85947  20306221.1094                   20306217.9884
 -16253285.37548 -12654366.14546  21137440.7424                   21137437.8324
  -2451918.13747  -1903106.90244  23540760.4774                   23540757.7624
 -13130930.85947 -10221263.23846  21207851.0164                   21207848.6024
 -15371312.70347 -11965693.54745  22682782.4924                   22682779.5004
  -8706758.31247  -6772833.27345  23312628.1414                   23312629.0944
 -18847984.05947 -14674637.53944  23272605.0314                   23272601.3284
  -1592424.72747  -1230567.54344  23031953.7734                   23031950.5824
 11  8 28  3 22  0.0000000  0  9G12G29G26G21G15G05G25G02G18
  -6497593.11746  -5051496.90643  24607739.2504                   24607738.2114
 -21015297.96948 -16365921.77047  20296707.4144                   20296704.3014
 -16291061.04748 -12683801.70346  21130252.2274                   21130249.5044
  -2536087.88347  -1968693.66044  23524743.6334                   23524740.2344
 -13216385.23448 -10287851.02746  21191589.6414                   21191586.6884
 -15310314.67247 -11918162.63345  22694389.4304                   22694386.9924
  -8653146.78947  -6731058.07445  23322829.9304                   23322830.5004
 -18814290.82847 -14648383.07844  23279016.7814                   23279012.5634
  -1681334.03947  -1299847.46944  23015034.9064                   23015031.4574
 11  8 28  3 22 30.0000000  0  9G12G29G26G21G15G05G25G02G18
  -6431625.83645  -5000093.91043  24620291.8914                   24620290.5594
 -21064793.18448 -16404489.45747  20287288.6174                   20287286.0354
 -16328164.35248 -12712713.35546  21123191.9304                   21123188.9694
  -2620304.95347  -2034317.30544  23508717.8364                   23508713.5124
 -13301386.98848 -10354086.13346  21175414.6094                   21175411.6134
 -15249243.16047 -11870574.44945  22706011.2974                   22706008.1094
  -8599413.06247  -6689187.65245  23333055.3054                   23333056.3094
 -18780448.29746 -14622012.27344  23285457.0634                   23285452.5594
  -1769987.85247  -1368928.30944  22998164.6564                   22998161.5314
 11  8 28  3 23  0.0000000  0  9G12G29G26G21G15G05G25G02G18
  -6365792.69946  -4948795.49643  24632820.1334                   24632819.5084
 -21113784.82848 -16442664.75447  20277966.0634                   20277963.0904
 -16364591.37148 -12741098.02346  21116259.7894                   21116257.7384
  -2704566.49647  -2099975.55944  23492682.6484                   23492679.4884
 -13385930.49647 -10419964.16446  21159326.5084                   21159323.4804
 -15188097.02047 -11822928.11745  22717646.6094                   22717644.5634
  -8545557.45347  -6647222.26245  23343303.5864                   23343303.7234
 -18746453.09847 -14595522.53544  23291925.7034                   23291921.5164
  -1858383.30147  -1437807.84044  22981343.0634                   22981340.0004
 11  8 28  3 23 30.0000000  0  9G12G29G26G21G15G05G25G02G18
  -6300099.01646  -4897605.73043  24645321.5864                   24645320.0514
 -21162273.52748 -16480448.14547  20268738.6484                   20268735.6254
 -16400343.38748 -12768956.72346  21109456.6804                   21109453.7814
  -2788875.23846  -2165670.63744  23476639.6174                   23476635.3524
 -13470016.46148 -10485485.65646  21143325.0864                   21143322.3444
 -15126881.25447 -11775227.54745  22729296.0164                   22729292.9924
  -8491585.70747  -6605166.37145  23353573.8054                   23353574.6724
 -18712307.44147 -14568915.53944  23298423.5704                   23298419.5824
  -1946522.56247  -1506487.72744  22964571.0554                   22964567.8834
 11  8 28  3 24  0.0000000  0  9G12G29G26G21G15G05G25G02G18
  -6234546.35945  -4846525.77343  24657795.2584                   24657794.9144
 -21210256.66048 -16517837.59047  20259607.8524                   20259604.8714
 -16435418.31648 -12796287.81646  21102781.6804                   21102779.0904
  -2873230.15646  -2231401.68444  23460587.2194                   23460583.6844
 -13553641.17248 -10550647.73446  21127411.8054                   21127409.1214
 -15065596.06247 -11727472.85945  22740958.4144                   22740955.2344
  -8437499.99647  -6563021.68045  23363866.2344                   23363866.7894
 -18678009.63347 -14542189.99644  23304950.2734                   23304946.1054
  -2034404.20347  -1574966.87944  22947847.4304                   22947844.6054
 11  8 28  3 24 30.0000000  0  8G29G26G21G15G05G25G02G18
 -21257732.52048 -16554831.76247  20250573.3754                   20250570.7504
 -16469814.82048 -12823090.26246  21096236.3914                   21096233.5784
  -2957630.18446  -2297167.87143  23444525.6804                   23444522.4264
 -13636801.84848 -10615448.23046  21111587.2194                   21111584.0234
 -15004243.07847 -11679665.35245  22752633.1884                   22752630.4184
  -8383302.77047  -6520790.08244  23374178.9384                   23374180.0824
 -18643559.08246 -14515345.42644  23311505.5394                   23311501.3094
  -2122028.04747  -1643245.14144  22931172.8284                   22931170.1884
 11  8 28  3 25  0.0000000  0  8G29G26G21G15G05G25G02G18
 -21304699.43448 -16591429.35247  20241636.2034                   20241632.6484
 -16503531.82848 -12849363.23046  21089820.1334                   21089817.7734
  -3042074.96146  -2362968.94144  23428456.6884                   23428454.0274
 -13719496.06648 -10679885.25046  21095850.6484                   21095848.1644
 -14942824.18047 -11631806.48445  22764320.8284                   22764318.1174
  -8328997.12947  -6478474.02744  23384513.8204                   23384514.4574
 -18608955.07847 -14488381.27344  23318090.5474                   23318087.1684
  -2209393.41447  -1711322.02744  22914548.1334                   22914545.3554
 11  8 28  3 25 30.0000000  0  8G29G26G21G15G05G25G02G18
 -21351149.24248 -16627623.99647  20232796.8364                   20232794.4774
 -16536561.69948 -12875100.77746  21083534.7814                   21083532.0784
  -3126558.07047  -2428799.87544  23412379.7894                   23412376.8484
 -13801714.41848 -10743951.46946  21080204.9534                   21080202.6884
 -14881334.43747 -11583892.40245  22776022.1254                   22776018.9734
  -8274579.42647  -6436070.64144  23394869.1094                   23394869.5204
 -18574190.66046 -14461292.09444  23324706.0084                   23324701.4574
  -2296493.44547  -1779192.13744  22897973.4844                   22897970.7934
 11  8 28  3 26  0.0000000  0  8G29G26G21G15G05G25G02G18
 -21397076.66048 -16663411.59047  20224057.0864                   20224054.2034
 -16568899.70348 -12900299.19946  21077381.3834                   21077378.8954
  -3211075.73847  -2494657.74244  23396296.9774                   23396293.7304
 -13883451.08648 -10807642.34846  21064651.1174                   21064648.2344
 -14819772.02047 -11535921.70345  22787736.6024                   22787733.7704
  -8220049.02347  -6393579.42644  23405245.7114                   23405246.5274
 -18539261.73047 -14434074.76644  23331352.8674                   23331348.4144
  -2383324.25047  -1846852.46144  22881450.0704                   22881447.2114
 11  8 28  3 26 30.0000000  0  8G29G26G21G15G05G25G02G18
 -21442481.25848 -16698791.78147  20215416.9844                   20215413.9264
 -16600546.03948 -12924958.66446  21071359.1254                   21071356.2814
  -3295628.81647  -2560543.22344  23380207.2814                   23380204.4574
 -13964704.63748 -10870956.77346  21049188.9144                   21049186.2854
 -14758139.80547 -11487896.60945  22799465.0314                   22799461.8634
  -8165410.25447  -6351003.77045  23415643.5004                   23415643.4774
 -18504168.98447 -14406729.77744  23338030.8754                   23338026.3014
  -2469886.92247  -1914303.85244  22864977.6884                   22864974.4264
 11  8 28  3 27  0.0000000  0  8G29G26G21G15G05G25G02G18
 -21487365.67248 -16733766.64847  20206875.5004                   20206872.5514
 -16631503.87548 -12949081.63346  21065467.7894                   21065465.1564
  -3380220.70347  -2626458.92644  23364109.6804                   23364106.8014
 -14045476.95748 -10933896.21546  21033818.4774                   21033815.9104
 -14696443.65647 -11439821.69945  22811205.1884                   22811202.5554
  -8110669.83247  -6308348.91444  23426060.0704                   23426060.6764
 -18468915.64547 -14379259.67644  23344739.1174                   23344734.9454
  -2556184.78147  -1981548.89544  22848555.7894                   22848552.7584
 11  8 28  3 27 30.0000000  0  8G29G26G21G15G05G25G02G18
 -21531729.17648 -16768335.60547  20198433.6724                   20198430.6174
 -16661773.18448 -12972668.10246  21059707.7424                   21059704.9804
  -3464852.32447  -2692405.61345  23348004.8134                   23348001.8284
 -14125766.42648 -10996459.40246  21018539.7504                   21018537.1294
 -14634686.35547 -11391699.12945  22822957.5474                   22822954.5784
  -8055831.96947  -6265618.13344  23436495.3134                   23436496.1054
 -18433502.55946 -14351665.08244  23351477.9924                   23351474.8134
  -2642218.96146  -2048588.46944  22832183.6484                   22832180.8284
 11  8 28  3 28  0.0000000  0  8G29G26G21G15G05G25G02G18
 -21575572.96948 -16802499.59847  20190090.4384                   20190087.8524
 -16691355.58648 -12995719.30946  21054078.3134                   21054076.0274
  -3549526.17247  -2758385.19545  23331892.0474                   23331888.8134
 -14205573.01648 -11058646.33646  21003353.2814                   21003350.3674
 -14572872.01247 -11343532.10945  22834720.1024                   22834717.2344
  -8000902.03947  -6222815.60944  23446948.0234                   23446948.5824
 -18397931.31646 -14323947.23444  23358247.1254                   23358242.7114
  -2727991.36347  -2115424.06644  22815861.7664                   22815858.6994
 11  8 28  3 28 30.0000000  0  8G29G26G21G15G05G25G02G18
 -21618897.12948 -16836258.67647  20181846.0084                   20181843.1564
 -16720251.57448 -13018235.63346  21048579.3984                   21048576.7734
  -3634243.26647  -2824398.47345  23315770.7274                   23315768.1294
 -14284895.99248 -11120456.41846  20988258.7344                   20988256.3014
 -14511003.68047 -11295323.04345  22846493.8594                   22846490.6094
  -7945884.49247  -6179944.82044  23457418.0314                   23457418.2704
 -18362203.38346 -14296107.29344  23365046.6094                   23365041.8524
  -2813503.34447  -2182056.75044  22799589.5474                   22799586.6134
 11  8 28  3 29  0.0000000  0  8G29G26G21G15G05G25G02G18
 -21661699.16048 -16869610.90247  20173701.0634                   20173698.0394
 -16748459.56248 -13040215.88346  21043211.6804                   21043209.2854
  -3719001.70347  -2890443.97744  23299641.9844                   23299638.3404
 -14363731.94548 -11181886.98846  20973256.3914                   20973253.8364
 -14449082.04347 -11247072.41445  22858276.6724                   22858274.1604
  -7890781.33647  -6137007.31244  23467903.6644                   23467904.4534
 -18326317.08646 -14268143.99244  23371875.2734                   23371870.8094
  -2898753.93747  -2248485.75444  22783366.7504                   22783364.0554
 11  8 28  3 29 30.0000000  0  8G29G26G21G15G05G25G02G18
 -21703977.23448 -16902554.84447  20165656.3054                   20165652.9534
 -16775978.16848 -13061658.93446  21037975.1644                   21037972.3984
  -3803801.48447  -2956521.69144  23283505.2424                   23283501.6994
 -14442078.17648 -11242935.97746  20958347.6954                   20958344.7304
 -14387108.03547 -11198780.99245  22870070.0084                   22870067.6094
  -7835595.00447  -6094004.99645  23478404.9844                   23478406.2704
 -18290271.60246 -14240056.63344  23378733.7424                   23378729.9224
  -2983742.09847  -2314710.27044  22767194.0634                   22767190.9774
 11  8 28  3 30  0.0000000  0  8G29G26G21G15G05G25G02G18
 -21745731.17648 -16935090.37947  20157710.2114                   20157707.4024
 -16802808.25848 -13082565.47746  21032869.4924                   21032866.9304
  -3888643.52347  -3022632.34844  23267359.8754                   23267356.3594
 -14519933.96548 -11303602.80146  20943532.5004                   20943529.2814
 -14325085.32447 -11150451.61745  22881872.5314                   22881869.2464
  -7780330.04347  -6050941.38744  23488922.1644                   23488921.6884
 -18254067.58646 -14211845.73444  23385623.9534                   23385619.6134
  -3068469.20347  -2380731.36344  22751070.9384                   22751068.2274
 11  8 28  3 30 30.0000000  0  8G29G26G21G15G05G25G02G18
 -21786961.31648 -16967217.75847  20149864.3834                   20149861.6414
 -16828950.71548 -13102936.21546  21027894.8444                   21027892.1134
  -3973529.36347  -3088777.12544  23251206.6414                   23251203.2854
 -14597298.32048 -11363886.69146  20928810.0864                   20928807.1564
 -14263017.24647 -11102086.89845  22893683.9384                   22893681.3324
  -7724991.05147  -6007820.12544  23499451.8364                   23499453.6294
 -18217706.32046 -14183512.28544  23392542.8754                   23392539.0904
  -3152936.87547  -2446550.30144  22734997.2894                   22734994.2854
 11  8 28  3 31  0.0000000  0  8G29G26G21G15G05G25G02G18
 -21827665.15248 -16998935.02747  20142118.9614                   20142116.1054
 -16854404.03947 -13122769.96946  21023051.4694                   21023048.9454
  -4058457.57047  -3154954.91044  23235045.4534                   23235041.7704
 -14674168.21948 -11423785.27746  20914181.9224                   20914179.4694
 -14200904.29747 -11053687.21945  22905503.3754                   22905501.0204
  -7669580.04747  -5964642.72744  23509996.6804                   23509997.0204
 -18181186.58246 -14155055.37944  23399492.7814                   23399487.7704
  -3237143.81647  -2512166.07444  22718973.2814                   22718969.9454
 11  8 28  3 31 30.0000000  0  8G29G26G21G15G05G25G02G18
 -21867842.99648 -17030242.42247  20134473.3134                   20134470.3054
 -16879168.73847 -13142067.11346  21018338.8984                   21018336.2854
  -4143429.19547  -3221166.53544  23218875.7894                   23218872.1214
 -14750542.71148 -11483297.85246  20899648.4224                   20899645.8874
 -14138749.58247 -11005254.98045  22917331.8054                   22917329.3204
  -7614101.30547  -5921412.55144  23520554.1254                   23520554.7894
 -18144509.17646 -14126475.58244  23406471.9534                   23406467.7814
  -3321091.17246  -2577579.57044  22702998.2424                   22702995.4964
 11  8 28  3 32  0.0000000  0  8G29G26G21G15G05G25G02G18
 -21907491.66848 -17061137.48047  20126928.3444                   20126925.6094
 -16903242.77048 -13160826.09446  21013757.4614                   21013755.2504
  -4228442.14847  -3287410.34044  23202698.4384                   23202695.0744
 -14826417.84048 -11542421.29346  20885210.4694                   20885207.7074
 -14076552.75847 -10956789.93745  22929167.0864                   22929163.9844
  -7558556.03547  -5878130.56244  23531123.6254                   23531124.8594
 -18107671.96946 -14097771.29344  23413481.5784                   23413478.3444
  -3404776.71147  -2642789.05145  22687073.0164                   22687070.8014
 11  8 28  3 32 30.0000000  0  8G29G26G21G15G05G25G02G18
 -20371191.97748 -15864020.83247  20419276.4384                   20419273.6024
 -15351207.58248 -11951448.00446  21309099.8134                   21309097.5084
  -2738076.19947  -2126086.19544  23486305.6804                   23486302.0394
 -13326372.15648 -10373554.50446  21170659.3984                   21170656.5084
 -12438901.09847  -9680697.75445  23240801.9384                   23240799.5164
  -5927532.28947  -4607202.99244  23841497.5084                   23841497.9654
 -16495258.87146 -12841345.50844  23720313.8284                   23720309.4304
  -1912781.45747  -1480195.31645  22970990.7734                   22970988.2234
 11  8 28  3 33  0.0000000  0  8G29G26G21G15G05G25G02G18
 -20409782.25848 -15894091.16847  20411932.9224                   20411930.0984
 -15373901.69947 -11969131.71546  21304781.3054                   21304778.7734
  -2823174.10947  -2192396.18444  23470111.9064                   23470108.4654
 -13401245.79748 -10431897.57046  21156411.5084                   21156408.5394
 -12376629.30947  -9632174.29745  23252651.7734                   23252648.9804
  -5871866.68047  -4563827.21544  23852090.2114                   23852091.2664
 -16458104.32046 -12812393.94544  23727384.3364                   23727379.6334
  -1995947.77347  -1545000.19545  22955165.0394                   22955162.1724
 11  8 28  3 33 30.0000000  0  8G29G26G21G15G05G25G02G18
 -20447840.24248 -15923746.73047  20404690.7424                   20404687.7154
 -15395904.01247 -11986276.36746  21300594.3834                   21300591.8874
  -2908313.28947  -2258738.34844  23453910.8204                   23453907.5314
 -13475614.23448 -10489846.97746  21142259.4924                   21142256.4304
 -12314320.95747  -9583622.34445  23264508.7664                   23264506.3634
  -5816144.05547  -4520407.01244  23862693.5004                   23862694.8324
 -16420789.20746 -12783317.24644  23734485.1564                   23734481.5274
  -2078852.85947  -1609601.53944  22939388.7974                   22939385.7734
 11  8 28  3 34  0.0000000  0  8G29G26G21G15G05G25G02G18
 -20485365.47748 -15952987.17247  20397550.4144                   20397546.7664
 -15417215.13347 -12002882.43046  21296539.3054                   21296536.1804
  -2993493.61747  -2325112.56645  23437700.9454                   23437697.8484
 -13549476.00848 -10547401.58646  21128204.1484                   21128201.4024
 -12251978.87547  -9535044.11345  23276372.1174                   23276369.0514
  -5760368.44147  -4476945.53944  23873307.5394                   23873308.4804
 -16383314.32446 -12754116.05144  23741616.8284                   23741612.0864
  -2161497.63747  -1674000.04745  22923661.5004                   22923659.1604
